<?xml version="1.0" encoding="UTF-8" standalone="no" ?>
<gpx xmlns="http://www.topografix.com/GPX/1/1" xmlns:xsi="http://www.w3.org/2001/XMLSchema-instance" xsi:schemaLocation="http://www.topografix.com/GPX/1/1 http://www.topografix.com/GPX/1/1/gpx.xsd" version="1.1" creator="VisuGPX - https://www.visugpx.com">
  <metadata>
    <name>Randonnée du 2/09/26 Boucle depuis Mittelbergheim-Château d'Andalou et du Spesbourg</name>
  </metadata>
  <trk>
    <name><![CDATA[Parcours du 02/09/2026 16h08]]></name>
    <trkseg>
      <trkpt lat="48.39784" lon="7.43905">
        <ele>240.58179</ele>
        <time>2026-09-02T09:32:16Z</time>
      </trkpt>
      <trkpt lat="48.39784" lon="7.43905">
        <ele>240.57306</ele>
        <time>2026-09-02T09:32:17Z</time>
      </trkpt>
      <trkpt lat="48.39784" lon="7.43912">
        <ele>240.57306</ele>
        <time>2026-09-02T09:32:54Z</time>
      </trkpt>
      <trkpt lat="48.3978" lon="7.43911">
        <ele>240.57306</ele>
        <time>2026-09-02T09:33:18Z</time>
      </trkpt>
      <trkpt lat="48.3978" lon="7.43904">
        <ele>240.5748</ele>
        <time>2026-09-02T09:33:36Z</time>
      </trkpt>
      <trkpt lat="48.3978" lon="7.43896">
        <ele>240.57306</ele>
        <time>2026-09-02T09:33:43Z</time>
      </trkpt>
      <trkpt lat="48.39779" lon="7.43888">
        <ele>240.57306</ele>
        <time>2026-09-02T09:33:48Z</time>
      </trkpt>
      <trkpt lat="48.39785" lon="7.43886">
        <ele>240.57306</ele>
        <time>2026-09-02T09:34:02Z</time>
      </trkpt>
      <trkpt lat="48.3979" lon="7.43886">
        <ele>240.57306</ele>
        <time>2026-09-02T09:34:06Z</time>
      </trkpt>
      <trkpt lat="48.39792" lon="7.4388">
        <ele>240.57306</ele>
        <time>2026-09-02T09:34:13Z</time>
      </trkpt>
      <trkpt lat="48.39792" lon="7.43872">
        <ele>240.57306</ele>
        <time>2026-09-02T09:34:19Z</time>
      </trkpt>
      <trkpt lat="48.3979" lon="7.43865">
        <ele>240.57306</ele>
        <time>2026-09-02T09:34:24Z</time>
      </trkpt>
      <trkpt lat="48.39788" lon="7.43859">
        <ele>240.57306</ele>
        <time>2026-09-02T09:34:29Z</time>
      </trkpt>
      <trkpt lat="48.39785" lon="7.43852">
        <ele>240.57306</ele>
        <time>2026-09-02T09:34:43Z</time>
      </trkpt>
      <trkpt lat="48.39781" lon="7.43846">
        <ele>240.57306</ele>
        <time>2026-09-02T09:34:49Z</time>
      </trkpt>
      <trkpt lat="48.39778" lon="7.43841">
        <ele>240.57306</ele>
        <time>2026-09-02T09:34:53Z</time>
      </trkpt>
      <trkpt lat="48.39776" lon="7.43834">
        <ele>240.57306</ele>
        <time>2026-09-02T09:34:57Z</time>
      </trkpt>
      <trkpt lat="48.39774" lon="7.43828">
        <ele>240.57306</ele>
        <time>2026-09-02T09:35:01Z</time>
      </trkpt>
      <trkpt lat="48.3977" lon="7.43822">
        <ele>240.57306</ele>
        <time>2026-09-02T09:35:06Z</time>
      </trkpt>
      <trkpt lat="48.39767" lon="7.43817">
        <ele>240.57306</ele>
        <time>2026-09-02T09:35:10Z</time>
      </trkpt>
      <trkpt lat="48.39764" lon="7.43811">
        <ele>240.57306</ele>
        <time>2026-09-02T09:35:14Z</time>
      </trkpt>
      <trkpt lat="48.39761" lon="7.43805">
        <ele>240.57306</ele>
        <time>2026-09-02T09:35:18Z</time>
      </trkpt>
      <trkpt lat="48.39758" lon="7.43799">
        <ele>240.57306</ele>
        <time>2026-09-02T09:35:22Z</time>
      </trkpt>
      <trkpt lat="48.39754" lon="7.43794">
        <ele>240.57306</ele>
        <time>2026-09-02T09:35:27Z</time>
      </trkpt>
      <trkpt lat="48.3975" lon="7.4379">
        <ele>240.57306</ele>
        <time>2026-09-02T09:35:31Z</time>
      </trkpt>
      <trkpt lat="48.39746" lon="7.43785">
        <ele>240.57306</ele>
        <time>2026-09-02T09:35:35Z</time>
      </trkpt>
      <trkpt lat="48.39742" lon="7.43781">
        <ele>240.57306</ele>
        <time>2026-09-02T09:35:39Z</time>
      </trkpt>
      <trkpt lat="48.39738" lon="7.43776">
        <ele>240.57306</ele>
        <time>2026-09-02T09:35:43Z</time>
      </trkpt>
      <trkpt lat="48.39735" lon="7.4377">
        <ele>240.57306</ele>
        <time>2026-09-02T09:35:47Z</time>
      </trkpt>
      <trkpt lat="48.39736" lon="7.43763">
        <ele>240.57306</ele>
        <time>2026-09-02T09:35:51Z</time>
      </trkpt>
      <trkpt lat="48.39738" lon="7.43756">
        <ele>240.57306</ele>
        <time>2026-09-02T09:35:57Z</time>
      </trkpt>
      <trkpt lat="48.39739" lon="7.43749">
        <ele>240.57306</ele>
        <time>2026-09-02T09:36:12Z</time>
      </trkpt>
      <trkpt lat="48.39742" lon="7.43742">
        <ele>240.57306</ele>
        <time>2026-09-02T09:36:18Z</time>
      </trkpt>
      <trkpt lat="48.39744" lon="7.43736">
        <ele>240.57306</ele>
        <time>2026-09-02T09:36:29Z</time>
      </trkpt>
      <trkpt lat="48.39747" lon="7.43729">
        <ele>240.57306</ele>
        <time>2026-09-02T09:36:34Z</time>
      </trkpt>
      <trkpt lat="48.39749" lon="7.43722">
        <ele>240.57306</ele>
        <time>2026-09-02T09:36:39Z</time>
      </trkpt>
      <trkpt lat="48.39751" lon="7.43716">
        <ele>240.57306</ele>
        <time>2026-09-02T09:36:43Z</time>
      </trkpt>
      <trkpt lat="48.39753" lon="7.43708">
        <ele>240.57306</ele>
        <time>2026-09-02T09:36:48Z</time>
      </trkpt>
      <trkpt lat="48.39756" lon="7.43701">
        <ele>240.57306</ele>
        <time>2026-09-02T09:36:53Z</time>
      </trkpt>
      <trkpt lat="48.39758" lon="7.43695">
        <ele>240.57306</ele>
        <time>2026-09-02T09:36:57Z</time>
      </trkpt>
      <trkpt lat="48.3976" lon="7.43688">
        <ele>240.57306</ele>
        <time>2026-09-02T09:37:01Z</time>
      </trkpt>
      <trkpt lat="48.39761" lon="7.43682">
        <ele>240.57306</ele>
        <time>2026-09-02T09:37:05Z</time>
      </trkpt>
      <trkpt lat="48.39763" lon="7.43674">
        <ele>240.57306</ele>
        <time>2026-09-02T09:37:10Z</time>
      </trkpt>
      <trkpt lat="48.39764" lon="7.43666">
        <ele>240.57306</ele>
        <time>2026-09-02T09:37:15Z</time>
      </trkpt>
      <trkpt lat="48.39765" lon="7.43659">
        <ele>240.57306</ele>
        <time>2026-09-02T09:37:19Z</time>
      </trkpt>
      <trkpt lat="48.39766" lon="7.43651">
        <ele>240.57306</ele>
        <time>2026-09-02T09:37:24Z</time>
      </trkpt>
      <trkpt lat="48.39769" lon="7.43643">
        <ele>240.57306</ele>
        <time>2026-09-02T09:37:29Z</time>
      </trkpt>
      <trkpt lat="48.39769" lon="7.43636">
        <ele>240.57306</ele>
        <time>2026-09-02T09:37:33Z</time>
      </trkpt>
      <trkpt lat="48.39769" lon="7.43629">
        <ele>240.57306</ele>
        <time>2026-09-02T09:37:37Z</time>
      </trkpt>
      <trkpt lat="48.39771" lon="7.43621">
        <ele>240.57306</ele>
        <time>2026-09-02T09:37:42Z</time>
      </trkpt>
      <trkpt lat="48.39772" lon="7.43614">
        <ele>240.57306</ele>
        <time>2026-09-02T09:37:46Z</time>
      </trkpt>
      <trkpt lat="48.39774" lon="7.43606">
        <ele>240.57306</ele>
        <time>2026-09-02T09:37:51Z</time>
      </trkpt>
      <trkpt lat="48.39775" lon="7.43598">
        <ele>240.57306</ele>
        <time>2026-09-02T09:37:55Z</time>
      </trkpt>
      <trkpt lat="48.39776" lon="7.43591">
        <ele>242.72125</ele>
        <time>2026-09-02T09:37:59Z</time>
      </trkpt>
      <trkpt lat="48.39778" lon="7.43584">
        <ele>244.86945</ele>
        <time>2026-09-02T09:38:03Z</time>
      </trkpt>
      <trkpt lat="48.3978" lon="7.43578">
        <ele>247.01764</ele>
        <time>2026-09-02T09:38:06Z</time>
      </trkpt>
      <trkpt lat="48.39783" lon="7.43573">
        <ele>249.16583</ele>
        <time>2026-09-02T09:38:10Z</time>
      </trkpt>
      <trkpt lat="48.39786" lon="7.43566">
        <ele>251.31403</ele>
        <time>2026-09-02T09:38:14Z</time>
      </trkpt>
      <trkpt lat="48.39788" lon="7.43559">
        <ele>251.31403</ele>
        <time>2026-09-02T09:38:19Z</time>
      </trkpt>
      <trkpt lat="48.3979" lon="7.43552">
        <ele>251.31403</ele>
        <time>2026-09-02T09:38:23Z</time>
      </trkpt>
      <trkpt lat="48.39793" lon="7.43546">
        <ele>251.31403</ele>
        <time>2026-09-02T09:38:27Z</time>
      </trkpt>
      <trkpt lat="48.39796" lon="7.4354">
        <ele>251.31403</ele>
        <time>2026-09-02T09:38:31Z</time>
      </trkpt>
      <trkpt lat="48.39797" lon="7.43533">
        <ele>251.31403</ele>
        <time>2026-09-02T09:38:36Z</time>
      </trkpt>
      <trkpt lat="48.39799" lon="7.43526">
        <ele>251.31403</ele>
        <time>2026-09-02T09:38:40Z</time>
      </trkpt>
      <trkpt lat="48.39801" lon="7.43519">
        <ele>251.31403</ele>
        <time>2026-09-02T09:38:44Z</time>
      </trkpt>
      <trkpt lat="48.39804" lon="7.43512">
        <ele>251.31403</ele>
        <time>2026-09-02T09:38:49Z</time>
      </trkpt>
      <trkpt lat="48.39807" lon="7.43505">
        <ele>251.31403</ele>
        <time>2026-09-02T09:38:53Z</time>
      </trkpt>
      <trkpt lat="48.39808" lon="7.43499">
        <ele>251.31403</ele>
        <time>2026-09-02T09:38:57Z</time>
      </trkpt>
      <trkpt lat="48.3981" lon="7.43492">
        <ele>251.31403</ele>
        <time>2026-09-02T09:39:01Z</time>
      </trkpt>
      <trkpt lat="48.39811" lon="7.43484">
        <ele>251.31403</ele>
        <time>2026-09-02T09:39:06Z</time>
      </trkpt>
      <trkpt lat="48.39813" lon="7.43477">
        <ele>251.31403</ele>
        <time>2026-09-02T09:39:10Z</time>
      </trkpt>
      <trkpt lat="48.39815" lon="7.43469">
        <ele>251.31403</ele>
        <time>2026-09-02T09:39:15Z</time>
      </trkpt>
      <trkpt lat="48.39816" lon="7.43461">
        <ele>251.31403</ele>
        <time>2026-09-02T09:39:20Z</time>
      </trkpt>
      <trkpt lat="48.39817" lon="7.43453">
        <ele>251.31403</ele>
        <time>2026-09-02T09:39:25Z</time>
      </trkpt>
      <trkpt lat="48.3982" lon="7.43445">
        <ele>251.31403</ele>
        <time>2026-09-02T09:39:30Z</time>
      </trkpt>
      <trkpt lat="48.39821" lon="7.43439">
        <ele>251.31403</ele>
        <time>2026-09-02T09:39:34Z</time>
      </trkpt>
      <trkpt lat="48.39823" lon="7.43432">
        <ele>251.31403</ele>
        <time>2026-09-02T09:39:38Z</time>
      </trkpt>
      <trkpt lat="48.39824" lon="7.43426">
        <ele>251.31403</ele>
        <time>2026-09-02T09:39:42Z</time>
      </trkpt>
      <trkpt lat="48.39825" lon="7.43419">
        <ele>253.39978</ele>
        <time>2026-09-02T09:39:47Z</time>
      </trkpt>
      <trkpt lat="48.39826" lon="7.43411">
        <ele>255.48552</ele>
        <time>2026-09-02T09:39:52Z</time>
      </trkpt>
      <trkpt lat="48.39827" lon="7.43404">
        <ele>257.57126</ele>
        <time>2026-09-02T09:39:56Z</time>
      </trkpt>
      <trkpt lat="48.39828" lon="7.43397">
        <ele>259.657</ele>
        <time>2026-09-02T09:40:00Z</time>
      </trkpt>
      <trkpt lat="48.39828" lon="7.4339">
        <ele>261.74277</ele>
        <time>2026-09-02T09:40:04Z</time>
      </trkpt>
      <trkpt lat="48.39829" lon="7.43383">
        <ele>261.74277</ele>
        <time>2026-09-02T09:40:08Z</time>
      </trkpt>
      <trkpt lat="48.39832" lon="7.43376">
        <ele>261.74277</ele>
        <time>2026-09-02T09:40:13Z</time>
      </trkpt>
      <trkpt lat="48.39834" lon="7.43369">
        <ele>261.74277</ele>
        <time>2026-09-02T09:40:17Z</time>
      </trkpt>
      <trkpt lat="48.39835" lon="7.43363">
        <ele>261.74277</ele>
        <time>2026-09-02T09:40:21Z</time>
      </trkpt>
      <trkpt lat="48.39837" lon="7.43357">
        <ele>261.74277</ele>
        <time>2026-09-02T09:40:25Z</time>
      </trkpt>
      <trkpt lat="48.39839" lon="7.4335">
        <ele>261.74277</ele>
        <time>2026-09-02T09:40:29Z</time>
      </trkpt>
      <trkpt lat="48.39841" lon="7.43344">
        <ele>261.74277</ele>
        <time>2026-09-02T09:40:33Z</time>
      </trkpt>
      <trkpt lat="48.39843" lon="7.43337">
        <ele>261.74277</ele>
        <time>2026-09-02T09:40:37Z</time>
      </trkpt>
      <trkpt lat="48.39844" lon="7.4333">
        <ele>261.74277</ele>
        <time>2026-09-02T09:40:41Z</time>
      </trkpt>
      <trkpt lat="48.39846" lon="7.43322">
        <ele>261.74277</ele>
        <time>2026-09-02T09:40:46Z</time>
      </trkpt>
      <trkpt lat="48.39848" lon="7.43316">
        <ele>261.74277</ele>
        <time>2026-09-02T09:40:50Z</time>
      </trkpt>
      <trkpt lat="48.3985" lon="7.43309">
        <ele>261.74277</ele>
        <time>2026-09-02T09:40:54Z</time>
      </trkpt>
      <trkpt lat="48.39851" lon="7.43302">
        <ele>261.74277</ele>
        <time>2026-09-02T09:40:58Z</time>
      </trkpt>
      <trkpt lat="48.39853" lon="7.43296">
        <ele>261.74277</ele>
        <time>2026-09-02T09:41:02Z</time>
      </trkpt>
      <trkpt lat="48.39854" lon="7.43288">
        <ele>261.74277</ele>
        <time>2026-09-02T09:41:07Z</time>
      </trkpt>
      <trkpt lat="48.39855" lon="7.43281">
        <ele>261.74277</ele>
        <time>2026-09-02T09:41:11Z</time>
      </trkpt>
      <trkpt lat="48.39856" lon="7.43275">
        <ele>261.74277</ele>
        <time>2026-09-02T09:41:15Z</time>
      </trkpt>
      <trkpt lat="48.39858" lon="7.43266">
        <ele>261.74277</ele>
        <time>2026-09-02T09:41:20Z</time>
      </trkpt>
      <trkpt lat="48.39859" lon="7.4326">
        <ele>263.82776</ele>
        <time>2026-09-02T09:41:24Z</time>
      </trkpt>
      <trkpt lat="48.3986" lon="7.43251">
        <ele>265.91272</ele>
        <time>2026-09-02T09:41:29Z</time>
      </trkpt>
      <trkpt lat="48.39861" lon="7.43244">
        <ele>267.9977</ele>
        <time>2026-09-02T09:41:33Z</time>
      </trkpt>
      <trkpt lat="48.39863" lon="7.43237">
        <ele>270.08267</ele>
        <time>2026-09-02T09:41:37Z</time>
      </trkpt>
      <trkpt lat="48.39864" lon="7.4323">
        <ele>272.16766</ele>
        <time>2026-09-02T09:41:41Z</time>
      </trkpt>
      <trkpt lat="48.39867" lon="7.43224">
        <ele>272.16766</ele>
        <time>2026-09-02T09:41:45Z</time>
      </trkpt>
      <trkpt lat="48.39869" lon="7.43218">
        <ele>272.16766</ele>
        <time>2026-09-02T09:41:49Z</time>
      </trkpt>
      <trkpt lat="48.3987" lon="7.43211">
        <ele>272.16766</ele>
        <time>2026-09-02T09:41:53Z</time>
      </trkpt>
      <trkpt lat="48.39871" lon="7.43204">
        <ele>272.16766</ele>
        <time>2026-09-02T09:41:57Z</time>
      </trkpt>
      <trkpt lat="48.39873" lon="7.43196">
        <ele>272.16766</ele>
        <time>2026-09-02T09:42:02Z</time>
      </trkpt>
      <trkpt lat="48.39875" lon="7.43189">
        <ele>272.16766</ele>
        <time>2026-09-02T09:42:24Z</time>
      </trkpt>
      <trkpt lat="48.39875" lon="7.43181">
        <ele>272.16766</ele>
        <time>2026-09-02T09:43:38Z</time>
      </trkpt>
      <trkpt lat="48.39877" lon="7.43173">
        <ele>272.16766</ele>
        <time>2026-09-02T09:43:43Z</time>
      </trkpt>
      <trkpt lat="48.39879" lon="7.43166">
        <ele>272.16766</ele>
        <time>2026-09-02T09:43:47Z</time>
      </trkpt>
      <trkpt lat="48.3988" lon="7.4316">
        <ele>272.16766</ele>
        <time>2026-09-02T09:43:51Z</time>
      </trkpt>
      <trkpt lat="48.39882" lon="7.43152">
        <ele>272.16766</ele>
        <time>2026-09-02T09:43:55Z</time>
      </trkpt>
      <trkpt lat="48.39883" lon="7.43146">
        <ele>272.16766</ele>
        <time>2026-09-02T09:43:59Z</time>
      </trkpt>
      <trkpt lat="48.39886" lon="7.43139">
        <ele>272.16766</ele>
        <time>2026-09-02T09:44:03Z</time>
      </trkpt>
      <trkpt lat="48.39887" lon="7.43132">
        <ele>272.16766</ele>
        <time>2026-09-02T09:44:08Z</time>
      </trkpt>
      <trkpt lat="48.39888" lon="7.43124">
        <ele>272.16766</ele>
        <time>2026-09-02T09:44:13Z</time>
      </trkpt>
      <trkpt lat="48.3989" lon="7.43117">
        <ele>272.16766</ele>
        <time>2026-09-02T09:44:17Z</time>
      </trkpt>
      <trkpt lat="48.3989" lon="7.43109">
        <ele>272.16766</ele>
        <time>2026-09-02T09:44:22Z</time>
      </trkpt>
      <trkpt lat="48.39891" lon="7.43101">
        <ele>272.16766</ele>
        <time>2026-09-02T09:44:27Z</time>
      </trkpt>
      <trkpt lat="48.39893" lon="7.43094">
        <ele>272.16766</ele>
        <time>2026-09-02T09:44:32Z</time>
      </trkpt>
      <trkpt lat="48.39896" lon="7.43087">
        <ele>272.16766</ele>
        <time>2026-09-02T09:44:37Z</time>
      </trkpt>
      <trkpt lat="48.39898" lon="7.43079">
        <ele>272.16766</ele>
        <time>2026-09-02T09:44:42Z</time>
      </trkpt>
      <trkpt lat="48.39899" lon="7.43072">
        <ele>272.16766</ele>
        <time>2026-09-02T09:44:47Z</time>
      </trkpt>
      <trkpt lat="48.39901" lon="7.43065">
        <ele>274.23132</ele>
        <time>2026-09-02T09:44:52Z</time>
      </trkpt>
      <trkpt lat="48.39903" lon="7.43058">
        <ele>276.29498</ele>
        <time>2026-09-02T09:44:57Z</time>
      </trkpt>
      <trkpt lat="48.39904" lon="7.43051">
        <ele>278.35867</ele>
        <time>2026-09-02T09:45:01Z</time>
      </trkpt>
      <trkpt lat="48.39907" lon="7.43043">
        <ele>280.42233</ele>
        <time>2026-09-02T09:45:06Z</time>
      </trkpt>
      <trkpt lat="48.3991" lon="7.43036">
        <ele>282.486</ele>
        <time>2026-09-02T09:45:10Z</time>
      </trkpt>
      <trkpt lat="48.39912" lon="7.43029">
        <ele>282.486</ele>
        <time>2026-09-02T09:45:15Z</time>
      </trkpt>
      <trkpt lat="48.39914" lon="7.43021">
        <ele>282.486</ele>
        <time>2026-09-02T09:45:20Z</time>
      </trkpt>
      <trkpt lat="48.39916" lon="7.43014">
        <ele>282.486</ele>
        <time>2026-09-02T09:45:24Z</time>
      </trkpt>
      <trkpt lat="48.39917" lon="7.43006">
        <ele>282.486</ele>
        <time>2026-09-02T09:45:29Z</time>
      </trkpt>
      <trkpt lat="48.39918" lon="7.42999">
        <ele>282.486</ele>
        <time>2026-09-02T09:45:34Z</time>
      </trkpt>
      <trkpt lat="48.39919" lon="7.42992">
        <ele>282.486</ele>
        <time>2026-09-02T09:45:39Z</time>
      </trkpt>
      <trkpt lat="48.39921" lon="7.42985">
        <ele>282.486</ele>
        <time>2026-09-02T09:45:43Z</time>
      </trkpt>
      <trkpt lat="48.39922" lon="7.42978">
        <ele>282.486</ele>
        <time>2026-09-02T09:45:48Z</time>
      </trkpt>
      <trkpt lat="48.39924" lon="7.42971">
        <ele>282.486</ele>
        <time>2026-09-02T09:45:53Z</time>
      </trkpt>
      <trkpt lat="48.39924" lon="7.42963">
        <ele>282.486</ele>
        <time>2026-09-02T09:45:57Z</time>
      </trkpt>
      <trkpt lat="48.39926" lon="7.42955">
        <ele>282.486</ele>
        <time>2026-09-02T09:46:02Z</time>
      </trkpt>
      <trkpt lat="48.39927" lon="7.42948">
        <ele>282.486</ele>
        <time>2026-09-02T09:46:06Z</time>
      </trkpt>
      <trkpt lat="48.39928" lon="7.4294">
        <ele>282.486</ele>
        <time>2026-09-02T09:46:27Z</time>
      </trkpt>
      <trkpt lat="48.39929" lon="7.42934">
        <ele>282.486</ele>
        <time>2026-09-02T09:46:32Z</time>
      </trkpt>
      <trkpt lat="48.39931" lon="7.42927">
        <ele>282.486</ele>
        <time>2026-09-02T09:46:37Z</time>
      </trkpt>
      <trkpt lat="48.39933" lon="7.4292">
        <ele>282.486</ele>
        <time>2026-09-02T09:46:41Z</time>
      </trkpt>
      <trkpt lat="48.39935" lon="7.42913">
        <ele>282.486</ele>
        <time>2026-09-02T09:46:45Z</time>
      </trkpt>
      <trkpt lat="48.39936" lon="7.42906">
        <ele>282.486</ele>
        <time>2026-09-02T09:46:49Z</time>
      </trkpt>
      <trkpt lat="48.39938" lon="7.42899">
        <ele>284.68268</ele>
        <time>2026-09-02T09:46:53Z</time>
      </trkpt>
      <trkpt lat="48.3994" lon="7.42892">
        <ele>286.87933</ele>
        <time>2026-09-02T09:46:57Z</time>
      </trkpt>
      <trkpt lat="48.39941" lon="7.42884">
        <ele>289.07602</ele>
        <time>2026-09-02T09:47:02Z</time>
      </trkpt>
      <trkpt lat="48.39942" lon="7.42875">
        <ele>291.27267</ele>
        <time>2026-09-02T09:47:07Z</time>
      </trkpt>
      <trkpt lat="48.39944" lon="7.42869">
        <ele>293.46936</ele>
        <time>2026-09-02T09:47:11Z</time>
      </trkpt>
      <trkpt lat="48.39945" lon="7.42862">
        <ele>293.46936</ele>
        <time>2026-09-02T09:47:15Z</time>
      </trkpt>
      <trkpt lat="48.39946" lon="7.42854">
        <ele>293.46936</ele>
        <time>2026-09-02T09:47:19Z</time>
      </trkpt>
      <trkpt lat="48.39948" lon="7.42847">
        <ele>293.46936</ele>
        <time>2026-09-02T09:47:23Z</time>
      </trkpt>
      <trkpt lat="48.39948" lon="7.4284">
        <ele>293.46936</ele>
        <time>2026-09-02T09:47:28Z</time>
      </trkpt>
      <trkpt lat="48.3995" lon="7.42833">
        <ele>293.46936</ele>
        <time>2026-09-02T09:47:32Z</time>
      </trkpt>
      <trkpt lat="48.39951" lon="7.42825">
        <ele>293.46936</ele>
        <time>2026-09-02T09:47:37Z</time>
      </trkpt>
      <trkpt lat="48.39953" lon="7.42818">
        <ele>293.46936</ele>
        <time>2026-09-02T09:47:42Z</time>
      </trkpt>
      <trkpt lat="48.39955" lon="7.42812">
        <ele>293.46936</ele>
        <time>2026-09-02T09:47:46Z</time>
      </trkpt>
      <trkpt lat="48.39957" lon="7.42805">
        <ele>293.46936</ele>
        <time>2026-09-02T09:47:51Z</time>
      </trkpt>
      <trkpt lat="48.3996" lon="7.42797">
        <ele>293.46936</ele>
        <time>2026-09-02T09:47:56Z</time>
      </trkpt>
      <trkpt lat="48.39963" lon="7.42791">
        <ele>293.46936</ele>
        <time>2026-09-02T09:48:01Z</time>
      </trkpt>
      <trkpt lat="48.39965" lon="7.42785">
        <ele>293.46936</ele>
        <time>2026-09-02T09:48:05Z</time>
      </trkpt>
      <trkpt lat="48.39969" lon="7.42778">
        <ele>293.46936</ele>
        <time>2026-09-02T09:48:10Z</time>
      </trkpt>
      <trkpt lat="48.39971" lon="7.42772">
        <ele>293.46936</ele>
        <time>2026-09-02T09:48:14Z</time>
      </trkpt>
      <trkpt lat="48.39974" lon="7.42766">
        <ele>293.46936</ele>
        <time>2026-09-02T09:48:19Z</time>
      </trkpt>
      <trkpt lat="48.39977" lon="7.4276">
        <ele>293.46936</ele>
        <time>2026-09-02T09:48:23Z</time>
      </trkpt>
      <trkpt lat="48.3998" lon="7.42754">
        <ele>293.46936</ele>
        <time>2026-09-02T09:48:28Z</time>
      </trkpt>
      <trkpt lat="48.39982" lon="7.42748">
        <ele>293.46936</ele>
        <time>2026-09-02T09:48:32Z</time>
      </trkpt>
      <trkpt lat="48.39985" lon="7.42741">
        <ele>293.46936</ele>
        <time>2026-09-02T09:48:36Z</time>
      </trkpt>
      <trkpt lat="48.39987" lon="7.42733">
        <ele>293.46936</ele>
        <time>2026-09-02T09:48:41Z</time>
      </trkpt>
      <trkpt lat="48.39989" lon="7.42727">
        <ele>293.46936</ele>
        <time>2026-09-02T09:48:45Z</time>
      </trkpt>
      <trkpt lat="48.39991" lon="7.4272">
        <ele>293.46936</ele>
        <time>2026-09-02T09:48:50Z</time>
      </trkpt>
      <trkpt lat="48.39994" lon="7.42713">
        <ele>293.46936</ele>
        <time>2026-09-02T09:48:53Z</time>
      </trkpt>
      <trkpt lat="48.39996" lon="7.42706">
        <ele>293.46936</ele>
        <time>2026-09-02T09:48:58Z</time>
      </trkpt>
      <trkpt lat="48.39997" lon="7.427">
        <ele>293.46936</ele>
        <time>2026-09-02T09:49:02Z</time>
      </trkpt>
      <trkpt lat="48.39999" lon="7.42692">
        <ele>293.46936</ele>
        <time>2026-09-02T09:49:06Z</time>
      </trkpt>
      <trkpt lat="48.40002" lon="7.42685">
        <ele>293.46936</ele>
        <time>2026-09-02T09:49:11Z</time>
      </trkpt>
      <trkpt lat="48.40004" lon="7.42678">
        <ele>293.46936</ele>
        <time>2026-09-02T09:49:16Z</time>
      </trkpt>
      <trkpt lat="48.40006" lon="7.42672">
        <ele>293.46936</ele>
        <time>2026-09-02T09:49:20Z</time>
      </trkpt>
      <trkpt lat="48.40009" lon="7.42665">
        <ele>293.46936</ele>
        <time>2026-09-02T09:49:25Z</time>
      </trkpt>
      <trkpt lat="48.4001" lon="7.42658">
        <ele>293.46936</ele>
        <time>2026-09-02T09:49:29Z</time>
      </trkpt>
      <trkpt lat="48.40011" lon="7.4265">
        <ele>293.46936</ele>
        <time>2026-09-02T09:49:34Z</time>
      </trkpt>
      <trkpt lat="48.40013" lon="7.42644">
        <ele>293.46936</ele>
        <time>2026-09-02T09:49:38Z</time>
      </trkpt>
      <trkpt lat="48.40014" lon="7.42637">
        <ele>293.46936</ele>
        <time>2026-09-02T09:49:43Z</time>
      </trkpt>
      <trkpt lat="48.40016" lon="7.4263">
        <ele>293.46936</ele>
        <time>2026-09-02T09:49:47Z</time>
      </trkpt>
      <trkpt lat="48.40017" lon="7.42623">
        <ele>293.46936</ele>
        <time>2026-09-02T09:49:51Z</time>
      </trkpt>
      <trkpt lat="48.40018" lon="7.42615">
        <ele>293.46936</ele>
        <time>2026-09-02T09:49:56Z</time>
      </trkpt>
      <trkpt lat="48.40019" lon="7.42608">
        <ele>295.51135</ele>
        <time>2026-09-02T09:50:00Z</time>
      </trkpt>
      <trkpt lat="48.40021" lon="7.42599">
        <ele>297.55338</ele>
        <time>2026-09-02T09:50:05Z</time>
      </trkpt>
      <trkpt lat="48.40023" lon="7.42593">
        <ele>299.59537</ele>
        <time>2026-09-02T09:50:09Z</time>
      </trkpt>
      <trkpt lat="48.40025" lon="7.42585">
        <ele>301.6374</ele>
        <time>2026-09-02T09:50:13Z</time>
      </trkpt>
      <trkpt lat="48.40027" lon="7.42578">
        <ele>303.67938</ele>
        <time>2026-09-02T09:50:17Z</time>
      </trkpt>
      <trkpt lat="48.4003" lon="7.42569">
        <ele>303.67938</ele>
        <time>2026-09-02T09:50:23Z</time>
      </trkpt>
      <trkpt lat="48.40032" lon="7.42563">
        <ele>303.67938</ele>
        <time>2026-09-02T09:50:27Z</time>
      </trkpt>
      <trkpt lat="48.40034" lon="7.42557">
        <ele>303.67938</ele>
        <time>2026-09-02T09:50:31Z</time>
      </trkpt>
      <trkpt lat="48.40036" lon="7.4255">
        <ele>303.67938</ele>
        <time>2026-09-02T09:50:35Z</time>
      </trkpt>
      <trkpt lat="48.40038" lon="7.42543">
        <ele>303.67938</ele>
        <time>2026-09-02T09:50:39Z</time>
      </trkpt>
      <trkpt lat="48.40039" lon="7.42536">
        <ele>303.67938</ele>
        <time>2026-09-02T09:50:43Z</time>
      </trkpt>
      <trkpt lat="48.4004" lon="7.42529">
        <ele>303.67938</ele>
        <time>2026-09-02T09:50:47Z</time>
      </trkpt>
      <trkpt lat="48.40041" lon="7.42522">
        <ele>303.67938</ele>
        <time>2026-09-02T09:50:51Z</time>
      </trkpt>
      <trkpt lat="48.40042" lon="7.42514">
        <ele>303.67938</ele>
        <time>2026-09-02T09:50:55Z</time>
      </trkpt>
      <trkpt lat="48.40043" lon="7.42506">
        <ele>303.67938</ele>
        <time>2026-09-02T09:50:59Z</time>
      </trkpt>
      <trkpt lat="48.40043" lon="7.42498">
        <ele>303.67938</ele>
        <time>2026-09-02T09:51:03Z</time>
      </trkpt>
      <trkpt lat="48.40044" lon="7.4249">
        <ele>303.67938</ele>
        <time>2026-09-02T09:51:08Z</time>
      </trkpt>
      <trkpt lat="48.40044" lon="7.42483">
        <ele>303.67938</ele>
        <time>2026-09-02T09:51:12Z</time>
      </trkpt>
      <trkpt lat="48.40045" lon="7.42476">
        <ele>303.67938</ele>
        <time>2026-09-02T09:51:16Z</time>
      </trkpt>
      <trkpt lat="48.40046" lon="7.42468">
        <ele>303.67938</ele>
        <time>2026-09-02T09:51:20Z</time>
      </trkpt>
      <trkpt lat="48.40046" lon="7.42461">
        <ele>303.67938</ele>
        <time>2026-09-02T09:51:24Z</time>
      </trkpt>
      <trkpt lat="48.40047" lon="7.42453">
        <ele>303.67938</ele>
        <time>2026-09-02T09:51:28Z</time>
      </trkpt>
      <trkpt lat="48.40048" lon="7.42446">
        <ele>303.67938</ele>
        <time>2026-09-02T09:51:33Z</time>
      </trkpt>
      <trkpt lat="48.40048" lon="7.42438">
        <ele>303.67938</ele>
        <time>2026-09-02T09:51:37Z</time>
      </trkpt>
      <trkpt lat="48.40049" lon="7.4243">
        <ele>303.67938</ele>
        <time>2026-09-02T09:51:41Z</time>
      </trkpt>
      <trkpt lat="48.40049" lon="7.42423">
        <ele>303.67938</ele>
        <time>2026-09-02T09:51:45Z</time>
      </trkpt>
      <trkpt lat="48.40049" lon="7.42415">
        <ele>303.67938</ele>
        <time>2026-09-02T09:51:50Z</time>
      </trkpt>
      <trkpt lat="48.40049" lon="7.42407">
        <ele>303.67938</ele>
        <time>2026-09-02T09:51:54Z</time>
      </trkpt>
      <trkpt lat="48.4005" lon="7.42401">
        <ele>303.67938</ele>
        <time>2026-09-02T09:51:58Z</time>
      </trkpt>
      <trkpt lat="48.4005" lon="7.42393">
        <ele>303.67938</ele>
        <time>2026-09-02T09:52:02Z</time>
      </trkpt>
      <trkpt lat="48.4005" lon="7.42386">
        <ele>303.67938</ele>
        <time>2026-09-02T09:52:06Z</time>
      </trkpt>
      <trkpt lat="48.4005" lon="7.42379">
        <ele>303.67938</ele>
        <time>2026-09-02T09:52:10Z</time>
      </trkpt>
      <trkpt lat="48.40051" lon="7.42372">
        <ele>303.67938</ele>
        <time>2026-09-02T09:52:14Z</time>
      </trkpt>
      <trkpt lat="48.40052" lon="7.42364">
        <ele>303.67938</ele>
        <time>2026-09-02T09:52:18Z</time>
      </trkpt>
      <trkpt lat="48.40052" lon="7.42357">
        <ele>303.67938</ele>
        <time>2026-09-02T09:52:22Z</time>
      </trkpt>
      <trkpt lat="48.40053" lon="7.42348">
        <ele>303.67938</ele>
        <time>2026-09-02T09:52:26Z</time>
      </trkpt>
      <trkpt lat="48.40054" lon="7.42341">
        <ele>303.67938</ele>
        <time>2026-09-02T09:52:30Z</time>
      </trkpt>
      <trkpt lat="48.40055" lon="7.42333">
        <ele>303.67938</ele>
        <time>2026-09-02T09:52:35Z</time>
      </trkpt>
      <trkpt lat="48.40056" lon="7.42326">
        <ele>303.67938</ele>
        <time>2026-09-02T09:52:39Z</time>
      </trkpt>
      <trkpt lat="48.40057" lon="7.42319">
        <ele>303.67938</ele>
        <time>2026-09-02T09:52:43Z</time>
      </trkpt>
      <trkpt lat="48.40057" lon="7.42312">
        <ele>303.67938</ele>
        <time>2026-09-02T09:52:47Z</time>
      </trkpt>
      <trkpt lat="48.40059" lon="7.42305">
        <ele>303.67938</ele>
        <time>2026-09-02T09:52:52Z</time>
      </trkpt>
      <trkpt lat="48.4006" lon="7.42298">
        <ele>303.67938</ele>
        <time>2026-09-02T09:52:56Z</time>
      </trkpt>
      <trkpt lat="48.40061" lon="7.4229">
        <ele>303.67938</ele>
        <time>2026-09-02T09:53:01Z</time>
      </trkpt>
      <trkpt lat="48.40062" lon="7.42284">
        <ele>303.67938</ele>
        <time>2026-09-02T09:53:07Z</time>
      </trkpt>
      <trkpt lat="48.40063" lon="7.42276">
        <ele>303.67938</ele>
        <time>2026-09-02T09:53:12Z</time>
      </trkpt>
      <trkpt lat="48.40065" lon="7.42268">
        <ele>303.67938</ele>
        <time>2026-09-02T09:53:17Z</time>
      </trkpt>
      <trkpt lat="48.40067" lon="7.42261">
        <ele>303.67938</ele>
        <time>2026-09-02T09:53:22Z</time>
      </trkpt>
      <trkpt lat="48.40071" lon="7.42254">
        <ele>303.67938</ele>
        <time>2026-09-02T09:53:27Z</time>
      </trkpt>
      <trkpt lat="48.40074" lon="7.42246">
        <ele>303.67938</ele>
        <time>2026-09-02T09:53:30Z</time>
      </trkpt>
      <trkpt lat="48.40074" lon="7.42239">
        <ele>303.67938</ele>
        <time>2026-09-02T09:53:34Z</time>
      </trkpt>
      <trkpt lat="48.40077" lon="7.42232">
        <ele>303.67938</ele>
        <time>2026-09-02T09:53:37Z</time>
      </trkpt>
      <trkpt lat="48.40078" lon="7.42225">
        <ele>303.67938</ele>
        <time>2026-09-02T09:53:41Z</time>
      </trkpt>
      <trkpt lat="48.40079" lon="7.42218">
        <ele>303.67938</ele>
        <time>2026-09-02T09:53:45Z</time>
      </trkpt>
      <trkpt lat="48.4008" lon="7.42211">
        <ele>303.67938</ele>
        <time>2026-09-02T09:53:49Z</time>
      </trkpt>
      <trkpt lat="48.40081" lon="7.42203">
        <ele>303.67938</ele>
        <time>2026-09-02T09:53:53Z</time>
      </trkpt>
      <trkpt lat="48.40081" lon="7.42195">
        <ele>303.67938</ele>
        <time>2026-09-02T09:53:59Z</time>
      </trkpt>
      <trkpt lat="48.40081" lon="7.42187">
        <ele>303.67938</ele>
        <time>2026-09-02T09:54:04Z</time>
      </trkpt>
      <trkpt lat="48.40081" lon="7.42181">
        <ele>303.67938</ele>
        <time>2026-09-02T09:54:08Z</time>
      </trkpt>
      <trkpt lat="48.40081" lon="7.42172">
        <ele>303.67938</ele>
        <time>2026-09-02T09:54:14Z</time>
      </trkpt>
      <trkpt lat="48.4008" lon="7.42164">
        <ele>303.67938</ele>
        <time>2026-09-02T09:54:19Z</time>
      </trkpt>
      <trkpt lat="48.4008" lon="7.42157">
        <ele>303.67938</ele>
        <time>2026-09-02T09:54:24Z</time>
      </trkpt>
      <trkpt lat="48.40078" lon="7.42149">
        <ele>303.67938</ele>
        <time>2026-09-02T09:54:28Z</time>
      </trkpt>
      <trkpt lat="48.40077" lon="7.42143">
        <ele>303.67938</ele>
        <time>2026-09-02T09:54:33Z</time>
      </trkpt>
      <trkpt lat="48.40075" lon="7.42136">
        <ele>303.67938</ele>
        <time>2026-09-02T09:54:37Z</time>
      </trkpt>
      <trkpt lat="48.40073" lon="7.42129">
        <ele>303.67938</ele>
        <time>2026-09-02T09:54:42Z</time>
      </trkpt>
      <trkpt lat="48.40071" lon="7.42122">
        <ele>303.67938</ele>
        <time>2026-09-02T09:54:47Z</time>
      </trkpt>
      <trkpt lat="48.40069" lon="7.42115">
        <ele>303.67938</ele>
        <time>2026-09-02T09:54:52Z</time>
      </trkpt>
      <trkpt lat="48.40068" lon="7.42108">
        <ele>305.7935</ele>
        <time>2026-09-02T09:54:58Z</time>
      </trkpt>
      <trkpt lat="48.40067" lon="7.42101">
        <ele>307.90762</ele>
        <time>2026-09-02T09:55:02Z</time>
      </trkpt>
      <trkpt lat="48.40066" lon="7.42093">
        <ele>310.02173</ele>
        <time>2026-09-02T09:55:06Z</time>
      </trkpt>
      <trkpt lat="48.40066" lon="7.42085">
        <ele>312.13586</ele>
        <time>2026-09-02T09:55:11Z</time>
      </trkpt>
      <trkpt lat="48.40066" lon="7.42076">
        <ele>314.24997</ele>
        <time>2026-09-02T09:55:17Z</time>
      </trkpt>
      <trkpt lat="48.40065" lon="7.42068">
        <ele>314.24997</ele>
        <time>2026-09-02T09:55:22Z</time>
      </trkpt>
      <trkpt lat="48.40065" lon="7.42061">
        <ele>314.24997</ele>
        <time>2026-09-02T09:55:27Z</time>
      </trkpt>
      <trkpt lat="48.40065" lon="7.42054">
        <ele>314.24997</ele>
        <time>2026-09-02T09:55:31Z</time>
      </trkpt>
      <trkpt lat="48.40065" lon="7.42046">
        <ele>314.24997</ele>
        <time>2026-09-02T09:55:36Z</time>
      </trkpt>
      <trkpt lat="48.40065" lon="7.42039">
        <ele>314.24997</ele>
        <time>2026-09-02T09:55:40Z</time>
      </trkpt>
      <trkpt lat="48.40064" lon="7.42032">
        <ele>314.24997</ele>
        <time>2026-09-02T09:55:45Z</time>
      </trkpt>
      <trkpt lat="48.40064" lon="7.42025">
        <ele>314.24997</ele>
        <time>2026-09-02T09:55:49Z</time>
      </trkpt>
      <trkpt lat="48.40063" lon="7.42018">
        <ele>314.24997</ele>
        <time>2026-09-02T09:55:54Z</time>
      </trkpt>
      <trkpt lat="48.40062" lon="7.42011">
        <ele>314.24997</ele>
        <time>2026-09-02T09:55:58Z</time>
      </trkpt>
      <trkpt lat="48.40061" lon="7.42003">
        <ele>314.24997</ele>
        <time>2026-09-02T09:56:03Z</time>
      </trkpt>
      <trkpt lat="48.4006" lon="7.41995">
        <ele>314.24997</ele>
        <time>2026-09-02T09:56:09Z</time>
      </trkpt>
      <trkpt lat="48.40059" lon="7.41986">
        <ele>314.24997</ele>
        <time>2026-09-02T09:56:14Z</time>
      </trkpt>
      <trkpt lat="48.40058" lon="7.41978">
        <ele>314.24997</ele>
        <time>2026-09-02T09:56:19Z</time>
      </trkpt>
      <trkpt lat="48.40058" lon="7.4197">
        <ele>314.24997</ele>
        <time>2026-09-02T09:56:25Z</time>
      </trkpt>
      <trkpt lat="48.40057" lon="7.41962">
        <ele>314.24997</ele>
        <time>2026-09-02T09:56:30Z</time>
      </trkpt>
      <trkpt lat="48.40059" lon="7.41955">
        <ele>316.42508</ele>
        <time>2026-09-02T09:56:36Z</time>
      </trkpt>
      <trkpt lat="48.40061" lon="7.41948">
        <ele>318.6002</ele>
        <time>2026-09-02T09:56:41Z</time>
      </trkpt>
      <trkpt lat="48.40064" lon="7.41943">
        <ele>320.7753</ele>
        <time>2026-09-02T09:56:46Z</time>
      </trkpt>
      <trkpt lat="48.40066" lon="7.41936">
        <ele>322.9504</ele>
        <time>2026-09-02T09:56:51Z</time>
      </trkpt>
      <trkpt lat="48.4007" lon="7.4193">
        <ele>325.12552</ele>
        <time>2026-09-02T09:56:57Z</time>
      </trkpt>
      <trkpt lat="48.40074" lon="7.41925">
        <ele>325.12552</ele>
        <time>2026-09-02T09:57:03Z</time>
      </trkpt>
      <trkpt lat="48.40078" lon="7.41921">
        <ele>325.12552</ele>
        <time>2026-09-02T09:57:11Z</time>
      </trkpt>
      <trkpt lat="48.40073" lon="7.41921">
        <ele>325.12552</ele>
        <time>2026-09-02T09:57:42Z</time>
      </trkpt>
      <trkpt lat="48.4007" lon="7.41916">
        <ele>325.12552</ele>
        <time>2026-09-02T09:57:45Z</time>
      </trkpt>
      <trkpt lat="48.40067" lon="7.41909">
        <ele>325.12552</ele>
        <time>2026-09-02T09:57:48Z</time>
      </trkpt>
      <trkpt lat="48.40066" lon="7.41901">
        <ele>327.2044</ele>
        <time>2026-09-02T09:57:54Z</time>
      </trkpt>
      <trkpt lat="48.4006" lon="7.41899">
        <ele>329.28333</ele>
        <time>2026-09-02T09:58:09Z</time>
      </trkpt>
      <trkpt lat="48.40056" lon="7.41901">
        <ele>331.3622</ele>
        <time>2026-09-02T09:58:17Z</time>
      </trkpt>
      <trkpt lat="48.40051" lon="7.41896">
        <ele>333.44113</ele>
        <time>2026-09-02T09:58:23Z</time>
      </trkpt>
      <trkpt lat="48.40046" lon="7.41893">
        <ele>335.52002</ele>
        <time>2026-09-02T09:58:28Z</time>
      </trkpt>
      <trkpt lat="48.40043" lon="7.41888">
        <ele>335.52002</ele>
        <time>2026-09-02T09:58:33Z</time>
      </trkpt>
      <trkpt lat="48.40039" lon="7.41884">
        <ele>335.52002</ele>
        <time>2026-09-02T09:58:38Z</time>
      </trkpt>
      <trkpt lat="48.40035" lon="7.41881">
        <ele>335.52002</ele>
        <time>2026-09-02T09:58:43Z</time>
      </trkpt>
      <trkpt lat="48.40031" lon="7.41877">
        <ele>335.52002</ele>
        <time>2026-09-02T09:58:50Z</time>
      </trkpt>
      <trkpt lat="48.40026" lon="7.41874">
        <ele>335.52002</ele>
        <time>2026-09-02T09:58:56Z</time>
      </trkpt>
      <trkpt lat="48.40022" lon="7.41869">
        <ele>335.52002</ele>
        <time>2026-09-02T09:59:04Z</time>
      </trkpt>
      <trkpt lat="48.40017" lon="7.41867">
        <ele>337.8695</ele>
        <time>2026-09-02T09:59:09Z</time>
      </trkpt>
      <trkpt lat="48.40013" lon="7.41862">
        <ele>340.21902</ele>
        <time>2026-09-02T09:59:14Z</time>
      </trkpt>
      <trkpt lat="48.40008" lon="7.41859">
        <ele>342.5685</ele>
        <time>2026-09-02T09:59:21Z</time>
      </trkpt>
      <trkpt lat="48.40003" lon="7.41855">
        <ele>344.91803</ele>
        <time>2026-09-02T09:59:27Z</time>
      </trkpt>
      <trkpt lat="48.39999" lon="7.41853">
        <ele>347.26752</ele>
        <time>2026-09-02T09:59:35Z</time>
      </trkpt>
      <trkpt lat="48.39993" lon="7.41851">
        <ele>347.26752</ele>
        <time>2026-09-02T09:59:39Z</time>
      </trkpt>
      <trkpt lat="48.39988" lon="7.41848">
        <ele>347.26752</ele>
        <time>2026-09-02T09:59:44Z</time>
      </trkpt>
      <trkpt lat="48.39983" lon="7.41845">
        <ele>347.26752</ele>
        <time>2026-09-02T09:59:49Z</time>
      </trkpt>
      <trkpt lat="48.39978" lon="7.41843">
        <ele>347.26752</ele>
        <time>2026-09-02T09:59:54Z</time>
      </trkpt>
      <trkpt lat="48.39974" lon="7.41841">
        <ele>347.26752</ele>
        <time>2026-09-02T09:59:58Z</time>
      </trkpt>
      <trkpt lat="48.39976" lon="7.41833">
        <ele>347.26752</ele>
        <time>2026-09-02T09:59:59Z</time>
      </trkpt>
      <trkpt lat="48.3997" lon="7.4183">
        <ele>347.26752</ele>
        <time>2026-09-02T10:00:05Z</time>
      </trkpt>
      <trkpt lat="48.39965" lon="7.4183">
        <ele>347.26752</ele>
        <time>2026-09-02T10:00:10Z</time>
      </trkpt>
      <trkpt lat="48.39961" lon="7.4183">
        <ele>347.26752</ele>
        <time>2026-09-02T10:00:15Z</time>
      </trkpt>
      <trkpt lat="48.39956" lon="7.41826">
        <ele>347.26752</ele>
        <time>2026-09-02T10:00:21Z</time>
      </trkpt>
      <trkpt lat="48.3995" lon="7.41826">
        <ele>347.26752</ele>
        <time>2026-09-02T10:00:26Z</time>
      </trkpt>
      <trkpt lat="48.39945" lon="7.41825">
        <ele>347.26752</ele>
        <time>2026-09-02T10:00:31Z</time>
      </trkpt>
      <trkpt lat="48.3994" lon="7.41824">
        <ele>347.26752</ele>
        <time>2026-09-02T10:00:36Z</time>
      </trkpt>
      <trkpt lat="48.39935" lon="7.41822">
        <ele>347.26752</ele>
        <time>2026-09-02T10:00:44Z</time>
      </trkpt>
      <trkpt lat="48.3993" lon="7.41819">
        <ele>347.26752</ele>
        <time>2026-09-02T10:00:50Z</time>
      </trkpt>
      <trkpt lat="48.39925" lon="7.41817">
        <ele>347.26752</ele>
        <time>2026-09-02T10:00:54Z</time>
      </trkpt>
      <trkpt lat="48.39918" lon="7.41815">
        <ele>347.26752</ele>
        <time>2026-09-02T10:00:59Z</time>
      </trkpt>
      <trkpt lat="48.39914" lon="7.41811">
        <ele>349.3781</ele>
        <time>2026-09-02T10:01:05Z</time>
      </trkpt>
      <trkpt lat="48.39909" lon="7.41807">
        <ele>351.48868</ele>
        <time>2026-09-02T10:01:12Z</time>
      </trkpt>
      <trkpt lat="48.39903" lon="7.41805">
        <ele>353.59927</ele>
        <time>2026-09-02T10:01:18Z</time>
      </trkpt>
      <trkpt lat="48.39898" lon="7.41805">
        <ele>355.70984</ele>
        <time>2026-09-02T10:01:22Z</time>
      </trkpt>
      <trkpt lat="48.39893" lon="7.41804">
        <ele>357.82043</ele>
        <time>2026-09-02T10:01:27Z</time>
      </trkpt>
      <trkpt lat="48.39889" lon="7.41803">
        <ele>357.82043</ele>
        <time>2026-09-02T10:01:31Z</time>
      </trkpt>
      <trkpt lat="48.39883" lon="7.41801">
        <ele>357.82043</ele>
        <time>2026-09-02T10:01:37Z</time>
      </trkpt>
      <trkpt lat="48.39879" lon="7.418">
        <ele>357.82043</ele>
        <time>2026-09-02T10:01:43Z</time>
      </trkpt>
      <trkpt lat="48.39874" lon="7.41801">
        <ele>357.82043</ele>
        <time>2026-09-02T10:01:51Z</time>
      </trkpt>
      <trkpt lat="48.39869" lon="7.41801">
        <ele>357.82043</ele>
        <time>2026-09-02T10:02:00Z</time>
      </trkpt>
      <trkpt lat="48.39862" lon="7.41799">
        <ele>357.82043</ele>
        <time>2026-09-02T10:02:17Z</time>
      </trkpt>
      <trkpt lat="48.39858" lon="7.41799">
        <ele>357.82043</ele>
        <time>2026-09-02T10:02:32Z</time>
      </trkpt>
      <trkpt lat="48.39853" lon="7.41799">
        <ele>357.82043</ele>
        <time>2026-09-02T10:03:12Z</time>
      </trkpt>
      <trkpt lat="48.39848" lon="7.41799">
        <ele>357.82043</ele>
        <time>2026-09-02T10:03:17Z</time>
      </trkpt>
      <trkpt lat="48.39843" lon="7.41797">
        <ele>357.82043</ele>
        <time>2026-09-02T10:03:22Z</time>
      </trkpt>
      <trkpt lat="48.39839" lon="7.41793">
        <ele>359.84906</ele>
        <time>2026-09-02T10:03:27Z</time>
      </trkpt>
      <trkpt lat="48.39834" lon="7.41791">
        <ele>361.8777</ele>
        <time>2026-09-02T10:03:33Z</time>
      </trkpt>
      <trkpt lat="48.3983" lon="7.41789">
        <ele>363.90634</ele>
        <time>2026-09-02T10:03:37Z</time>
      </trkpt>
      <trkpt lat="48.39824" lon="7.41786">
        <ele>365.93497</ele>
        <time>2026-09-02T10:03:43Z</time>
      </trkpt>
      <trkpt lat="48.3982" lon="7.41783">
        <ele>367.9636</ele>
        <time>2026-09-02T10:03:48Z</time>
      </trkpt>
      <trkpt lat="48.39816" lon="7.41781">
        <ele>367.9636</ele>
        <time>2026-09-02T10:03:55Z</time>
      </trkpt>
      <trkpt lat="48.39811" lon="7.41777">
        <ele>367.9636</ele>
        <time>2026-09-02T10:04:01Z</time>
      </trkpt>
      <trkpt lat="48.39806" lon="7.41777">
        <ele>367.9636</ele>
        <time>2026-09-02T10:04:04Z</time>
      </trkpt>
      <trkpt lat="48.39801" lon="7.41776">
        <ele>367.9636</ele>
        <time>2026-09-02T10:04:10Z</time>
      </trkpt>
      <trkpt lat="48.39795" lon="7.41776">
        <ele>367.9636</ele>
        <time>2026-09-02T10:04:16Z</time>
      </trkpt>
      <trkpt lat="48.39791" lon="7.41777">
        <ele>367.9636</ele>
        <time>2026-09-02T10:04:21Z</time>
      </trkpt>
      <trkpt lat="48.39785" lon="7.41777">
        <ele>367.9636</ele>
        <time>2026-09-02T10:04:27Z</time>
      </trkpt>
      <trkpt lat="48.3978" lon="7.41779">
        <ele>367.9636</ele>
        <time>2026-09-02T10:04:31Z</time>
      </trkpt>
      <trkpt lat="48.39775" lon="7.4178">
        <ele>367.9636</ele>
        <time>2026-09-02T10:04:35Z</time>
      </trkpt>
      <trkpt lat="48.3977" lon="7.41783">
        <ele>367.9636</ele>
        <time>2026-09-02T10:04:40Z</time>
      </trkpt>
      <trkpt lat="48.39765" lon="7.41787">
        <ele>367.9636</ele>
        <time>2026-09-02T10:04:47Z</time>
      </trkpt>
      <trkpt lat="48.39762" lon="7.41791">
        <ele>367.9636</ele>
        <time>2026-09-02T10:04:53Z</time>
      </trkpt>
      <trkpt lat="48.39757" lon="7.41794">
        <ele>367.9636</ele>
        <time>2026-09-02T10:04:56Z</time>
      </trkpt>
      <trkpt lat="48.39753" lon="7.41799">
        <ele>369.96817</ele>
        <time>2026-09-02T10:05:01Z</time>
      </trkpt>
      <trkpt lat="48.39749" lon="7.41804">
        <ele>371.97278</ele>
        <time>2026-09-02T10:05:05Z</time>
      </trkpt>
      <trkpt lat="48.39745" lon="7.41809">
        <ele>373.97736</ele>
        <time>2026-09-02T10:05:10Z</time>
      </trkpt>
      <trkpt lat="48.39739" lon="7.41812">
        <ele>375.98196</ele>
        <time>2026-09-02T10:05:17Z</time>
      </trkpt>
      <trkpt lat="48.39734" lon="7.41816">
        <ele>377.98654</ele>
        <time>2026-09-02T10:05:24Z</time>
      </trkpt>
      <trkpt lat="48.39734" lon="7.41823">
        <ele>377.98654</ele>
        <time>2026-09-02T10:05:34Z</time>
      </trkpt>
      <trkpt lat="48.39732" lon="7.4183">
        <ele>377.98654</ele>
        <time>2026-09-02T10:05:41Z</time>
      </trkpt>
      <trkpt lat="48.39728" lon="7.41836">
        <ele>377.98654</ele>
        <time>2026-09-02T10:05:46Z</time>
      </trkpt>
      <trkpt lat="48.39726" lon="7.41841">
        <ele>377.98654</ele>
        <time>2026-09-02T10:05:50Z</time>
      </trkpt>
      <trkpt lat="48.39724" lon="7.41848">
        <ele>377.98654</ele>
        <time>2026-09-02T10:05:55Z</time>
      </trkpt>
      <trkpt lat="48.3972" lon="7.41854">
        <ele>377.98654</ele>
        <time>2026-09-02T10:06:00Z</time>
      </trkpt>
      <trkpt lat="48.39718" lon="7.41859">
        <ele>377.98654</ele>
        <time>2026-09-02T10:06:04Z</time>
      </trkpt>
      <trkpt lat="48.39716" lon="7.41866">
        <ele>377.98654</ele>
        <time>2026-09-02T10:06:10Z</time>
      </trkpt>
      <trkpt lat="48.39713" lon="7.41872">
        <ele>377.98654</ele>
        <time>2026-09-02T10:06:15Z</time>
      </trkpt>
      <trkpt lat="48.39711" lon="7.41879">
        <ele>377.98654</ele>
        <time>2026-09-02T10:06:20Z</time>
      </trkpt>
      <trkpt lat="48.39707" lon="7.41884">
        <ele>377.98654</ele>
        <time>2026-09-02T10:06:25Z</time>
      </trkpt>
      <trkpt lat="48.39706" lon="7.41891">
        <ele>377.98654</ele>
        <time>2026-09-02T10:06:31Z</time>
      </trkpt>
      <trkpt lat="48.39704" lon="7.41898">
        <ele>377.98654</ele>
        <time>2026-09-02T10:06:36Z</time>
      </trkpt>
      <trkpt lat="48.39702" lon="7.41905">
        <ele>377.98654</ele>
        <time>2026-09-02T10:06:42Z</time>
      </trkpt>
      <trkpt lat="48.39697" lon="7.41909">
        <ele>377.98654</ele>
        <time>2026-09-02T10:06:46Z</time>
      </trkpt>
      <trkpt lat="48.39694" lon="7.41915">
        <ele>377.98654</ele>
        <time>2026-09-02T10:06:50Z</time>
      </trkpt>
      <trkpt lat="48.3969" lon="7.41921">
        <ele>377.98654</ele>
        <time>2026-09-02T10:06:55Z</time>
      </trkpt>
      <trkpt lat="48.39687" lon="7.41925">
        <ele>377.98654</ele>
        <time>2026-09-02T10:07:00Z</time>
      </trkpt>
      <trkpt lat="48.39683" lon="7.4193">
        <ele>377.98654</ele>
        <time>2026-09-02T10:07:07Z</time>
      </trkpt>
      <trkpt lat="48.39678" lon="7.41931">
        <ele>377.98654</ele>
        <time>2026-09-02T10:07:13Z</time>
      </trkpt>
      <trkpt lat="48.39673" lon="7.41931">
        <ele>377.98654</ele>
        <time>2026-09-02T10:09:37Z</time>
      </trkpt>
      <trkpt lat="48.39668" lon="7.41928">
        <ele>377.98654</ele>
        <time>2026-09-02T10:09:43Z</time>
      </trkpt>
      <trkpt lat="48.39665" lon="7.41922">
        <ele>377.98654</ele>
        <time>2026-09-02T10:09:48Z</time>
      </trkpt>
      <trkpt lat="48.39661" lon="7.41917">
        <ele>377.98654</ele>
        <time>2026-09-02T10:09:53Z</time>
      </trkpt>
      <trkpt lat="48.39659" lon="7.41911">
        <ele>377.98654</ele>
        <time>2026-09-02T10:09:58Z</time>
      </trkpt>
      <trkpt lat="48.39656" lon="7.41906">
        <ele>377.98654</ele>
        <time>2026-09-02T10:10:03Z</time>
      </trkpt>
      <trkpt lat="48.39653" lon="7.419">
        <ele>377.98654</ele>
        <time>2026-09-02T10:10:09Z</time>
      </trkpt>
      <trkpt lat="48.3965" lon="7.41892">
        <ele>377.98654</ele>
        <time>2026-09-02T10:10:13Z</time>
      </trkpt>
      <trkpt lat="48.39648" lon="7.41886">
        <ele>377.98654</ele>
        <time>2026-09-02T10:10:17Z</time>
      </trkpt>
      <trkpt lat="48.39647" lon="7.41878">
        <ele>377.98654</ele>
        <time>2026-09-02T10:10:23Z</time>
      </trkpt>
      <trkpt lat="48.39647" lon="7.41871">
        <ele>380.0321</ele>
        <time>2026-09-02T10:10:28Z</time>
      </trkpt>
      <trkpt lat="48.39646" lon="7.41862">
        <ele>382.07767</ele>
        <time>2026-09-02T10:10:33Z</time>
      </trkpt>
      <trkpt lat="48.39644" lon="7.41856">
        <ele>384.12323</ele>
        <time>2026-09-02T10:10:39Z</time>
      </trkpt>
      <trkpt lat="48.39642" lon="7.41849">
        <ele>386.1688</ele>
        <time>2026-09-02T10:10:44Z</time>
      </trkpt>
      <trkpt lat="48.39641" lon="7.41841">
        <ele>388.21436</ele>
        <time>2026-09-02T10:10:50Z</time>
      </trkpt>
      <trkpt lat="48.39642" lon="7.41833">
        <ele>388.21436</ele>
        <time>2026-09-02T10:10:56Z</time>
      </trkpt>
      <trkpt lat="48.39641" lon="7.41825">
        <ele>388.21436</ele>
        <time>2026-09-02T10:11:02Z</time>
      </trkpt>
      <trkpt lat="48.39641" lon="7.41818">
        <ele>388.21436</ele>
        <time>2026-09-02T10:11:07Z</time>
      </trkpt>
      <trkpt lat="48.39641" lon="7.41811">
        <ele>388.21436</ele>
        <time>2026-09-02T10:11:13Z</time>
      </trkpt>
      <trkpt lat="48.39642" lon="7.41804">
        <ele>388.21436</ele>
        <time>2026-09-02T10:11:18Z</time>
      </trkpt>
      <trkpt lat="48.39642" lon="7.41796">
        <ele>390.31302</ele>
        <time>2026-09-02T10:11:24Z</time>
      </trkpt>
      <trkpt lat="48.39643" lon="7.41789">
        <ele>392.41165</ele>
        <time>2026-09-02T10:11:30Z</time>
      </trkpt>
      <trkpt lat="48.39644" lon="7.41782">
        <ele>394.5103</ele>
        <time>2026-09-02T10:11:35Z</time>
      </trkpt>
      <trkpt lat="48.39643" lon="7.41775">
        <ele>396.60895</ele>
        <time>2026-09-02T10:11:43Z</time>
      </trkpt>
      <trkpt lat="48.39643" lon="7.41767">
        <ele>398.7076</ele>
        <time>2026-09-02T10:11:48Z</time>
      </trkpt>
      <trkpt lat="48.39642" lon="7.41758">
        <ele>398.7076</ele>
        <time>2026-09-02T10:11:54Z</time>
      </trkpt>
      <trkpt lat="48.39642" lon="7.41751">
        <ele>398.7076</ele>
        <time>2026-09-02T10:12:01Z</time>
      </trkpt>
      <trkpt lat="48.39642" lon="7.41744">
        <ele>398.7076</ele>
        <time>2026-09-02T10:12:07Z</time>
      </trkpt>
      <trkpt lat="48.39641" lon="7.41737">
        <ele>398.7076</ele>
        <time>2026-09-02T10:12:12Z</time>
      </trkpt>
      <trkpt lat="48.3964" lon="7.4173">
        <ele>398.7076</ele>
        <time>2026-09-02T10:12:18Z</time>
      </trkpt>
      <trkpt lat="48.39639" lon="7.41721">
        <ele>400.769</ele>
        <time>2026-09-02T10:12:26Z</time>
      </trkpt>
      <trkpt lat="48.39637" lon="7.41714">
        <ele>402.83038</ele>
        <time>2026-09-02T10:12:31Z</time>
      </trkpt>
      <trkpt lat="48.39636" lon="7.41708">
        <ele>404.89178</ele>
        <time>2026-09-02T10:12:37Z</time>
      </trkpt>
      <trkpt lat="48.39634" lon="7.417">
        <ele>406.95316</ele>
        <time>2026-09-02T10:12:43Z</time>
      </trkpt>
      <trkpt lat="48.39633" lon="7.41692">
        <ele>409.01456</ele>
        <time>2026-09-02T10:12:48Z</time>
      </trkpt>
      <trkpt lat="48.39631" lon="7.41685">
        <ele>409.01456</ele>
        <time>2026-09-02T10:12:54Z</time>
      </trkpt>
      <trkpt lat="48.3963" lon="7.41679">
        <ele>409.01456</ele>
        <time>2026-09-02T10:13:00Z</time>
      </trkpt>
      <trkpt lat="48.39628" lon="7.41673">
        <ele>409.01456</ele>
        <time>2026-09-02T10:13:04Z</time>
      </trkpt>
      <trkpt lat="48.39628" lon="7.41666">
        <ele>409.01456</ele>
        <time>2026-09-02T10:13:09Z</time>
      </trkpt>
      <trkpt lat="48.39628" lon="7.41659">
        <ele>409.01456</ele>
        <time>2026-09-02T10:13:13Z</time>
      </trkpt>
      <trkpt lat="48.39627" lon="7.41652">
        <ele>409.01456</ele>
        <time>2026-09-02T10:13:18Z</time>
      </trkpt>
      <trkpt lat="48.39626" lon="7.41646">
        <ele>409.01456</ele>
        <time>2026-09-02T10:13:22Z</time>
      </trkpt>
      <trkpt lat="48.39623" lon="7.41639">
        <ele>409.01456</ele>
        <time>2026-09-02T10:13:27Z</time>
      </trkpt>
      <trkpt lat="48.39622" lon="7.41631">
        <ele>409.01456</ele>
        <time>2026-09-02T10:13:32Z</time>
      </trkpt>
      <trkpt lat="48.39621" lon="7.41624">
        <ele>411.0709</ele>
        <time>2026-09-02T10:13:37Z</time>
      </trkpt>
      <trkpt lat="48.39619" lon="7.41618">
        <ele>413.12723</ele>
        <time>2026-09-02T10:13:41Z</time>
      </trkpt>
      <trkpt lat="48.39617" lon="7.41612">
        <ele>415.1836</ele>
        <time>2026-09-02T10:13:46Z</time>
      </trkpt>
      <trkpt lat="48.39615" lon="7.41605">
        <ele>417.23993</ele>
        <time>2026-09-02T10:13:51Z</time>
      </trkpt>
      <trkpt lat="48.39612" lon="7.41598">
        <ele>419.29626</ele>
        <time>2026-09-02T10:13:56Z</time>
      </trkpt>
      <trkpt lat="48.39609" lon="7.4159">
        <ele>419.29626</ele>
        <time>2026-09-02T10:14:01Z</time>
      </trkpt>
      <trkpt lat="48.39607" lon="7.41584">
        <ele>419.29626</ele>
        <time>2026-09-02T10:14:06Z</time>
      </trkpt>
      <trkpt lat="48.39604" lon="7.41578">
        <ele>419.29626</ele>
        <time>2026-09-02T10:14:11Z</time>
      </trkpt>
      <trkpt lat="48.39602" lon="7.41572">
        <ele>419.29626</ele>
        <time>2026-09-02T10:14:16Z</time>
      </trkpt>
      <trkpt lat="48.39599" lon="7.41565">
        <ele>419.29626</ele>
        <time>2026-09-02T10:14:21Z</time>
      </trkpt>
      <trkpt lat="48.39597" lon="7.41559">
        <ele>419.29626</ele>
        <time>2026-09-02T10:14:27Z</time>
      </trkpt>
      <trkpt lat="48.39593" lon="7.41553">
        <ele>419.29626</ele>
        <time>2026-09-02T10:14:32Z</time>
      </trkpt>
      <trkpt lat="48.39592" lon="7.41546">
        <ele>419.29626</ele>
        <time>2026-09-02T10:14:37Z</time>
      </trkpt>
      <trkpt lat="48.3959" lon="7.41538">
        <ele>419.29626</ele>
        <time>2026-09-02T10:14:42Z</time>
      </trkpt>
      <trkpt lat="48.39587" lon="7.41531">
        <ele>419.29626</ele>
        <time>2026-09-02T10:14:47Z</time>
      </trkpt>
      <trkpt lat="48.39585" lon="7.41524">
        <ele>419.29626</ele>
        <time>2026-09-02T10:14:51Z</time>
      </trkpt>
      <trkpt lat="48.39584" lon="7.41517">
        <ele>419.29626</ele>
        <time>2026-09-02T10:14:55Z</time>
      </trkpt>
      <trkpt lat="48.39585" lon="7.41509">
        <ele>419.29626</ele>
        <time>2026-09-02T10:15:00Z</time>
      </trkpt>
      <trkpt lat="48.39585" lon="7.41501">
        <ele>419.29626</ele>
        <time>2026-09-02T10:15:05Z</time>
      </trkpt>
      <trkpt lat="48.39585" lon="7.41494">
        <ele>419.29626</ele>
        <time>2026-09-02T10:15:10Z</time>
      </trkpt>
      <trkpt lat="48.39584" lon="7.41485">
        <ele>419.29626</ele>
        <time>2026-09-02T10:15:15Z</time>
      </trkpt>
      <trkpt lat="48.39584" lon="7.41477">
        <ele>419.29626</ele>
        <time>2026-09-02T10:15:20Z</time>
      </trkpt>
      <trkpt lat="48.39584" lon="7.41469">
        <ele>419.29626</ele>
        <time>2026-09-02T10:15:25Z</time>
      </trkpt>
      <trkpt lat="48.39585" lon="7.41463">
        <ele>419.29626</ele>
        <time>2026-09-02T10:15:29Z</time>
      </trkpt>
      <trkpt lat="48.39586" lon="7.41456">
        <ele>419.29626</ele>
        <time>2026-09-02T10:15:33Z</time>
      </trkpt>
      <trkpt lat="48.39587" lon="7.41448">
        <ele>419.29626</ele>
        <time>2026-09-02T10:15:38Z</time>
      </trkpt>
      <trkpt lat="48.39586" lon="7.41441">
        <ele>419.29626</ele>
        <time>2026-09-02T10:15:43Z</time>
      </trkpt>
      <trkpt lat="48.39586" lon="7.41434">
        <ele>419.29626</ele>
        <time>2026-09-02T10:15:48Z</time>
      </trkpt>
      <trkpt lat="48.39587" lon="7.41426">
        <ele>419.29626</ele>
        <time>2026-09-02T10:15:53Z</time>
      </trkpt>
      <trkpt lat="48.39589" lon="7.41418">
        <ele>419.29626</ele>
        <time>2026-09-02T10:15:58Z</time>
      </trkpt>
      <trkpt lat="48.3959" lon="7.41411">
        <ele>419.29626</ele>
        <time>2026-09-02T10:16:03Z</time>
      </trkpt>
      <trkpt lat="48.3959" lon="7.41404">
        <ele>419.29626</ele>
        <time>2026-09-02T10:16:08Z</time>
      </trkpt>
      <trkpt lat="48.39587" lon="7.41398">
        <ele>419.29626</ele>
        <time>2026-09-02T10:16:13Z</time>
      </trkpt>
      <trkpt lat="48.39583" lon="7.41394">
        <ele>419.29626</ele>
        <time>2026-09-02T10:16:17Z</time>
      </trkpt>
      <trkpt lat="48.39578" lon="7.4139">
        <ele>419.29626</ele>
        <time>2026-09-02T10:16:22Z</time>
      </trkpt>
      <trkpt lat="48.39578" lon="7.41383">
        <ele>419.29626</ele>
        <time>2026-09-02T10:16:27Z</time>
      </trkpt>
      <trkpt lat="48.39578" lon="7.41375">
        <ele>419.29626</ele>
        <time>2026-09-02T10:16:35Z</time>
      </trkpt>
      <trkpt lat="48.39578" lon="7.41369">
        <ele>419.29626</ele>
        <time>2026-09-02T10:16:42Z</time>
      </trkpt>
      <trkpt lat="48.39581" lon="7.41376">
        <ele>419.29626</ele>
        <time>2026-09-02T10:20:27Z</time>
      </trkpt>
      <trkpt lat="48.39581" lon="7.41383">
        <ele>419.29626</ele>
        <time>2026-09-02T10:20:33Z</time>
      </trkpt>
      <trkpt lat="48.39581" lon="7.41391">
        <ele>419.29626</ele>
        <time>2026-09-02T10:20:39Z</time>
      </trkpt>
      <trkpt lat="48.39584" lon="7.41396">
        <ele>419.29626</ele>
        <time>2026-09-02T10:20:45Z</time>
      </trkpt>
      <trkpt lat="48.39588" lon="7.41401">
        <ele>419.29626</ele>
        <time>2026-09-02T10:20:49Z</time>
      </trkpt>
      <trkpt lat="48.39594" lon="7.41405">
        <ele>419.29626</ele>
        <time>2026-09-02T10:20:55Z</time>
      </trkpt>
      <trkpt lat="48.39598" lon="7.4141">
        <ele>419.29626</ele>
        <time>2026-09-02T10:21:02Z</time>
      </trkpt>
      <trkpt lat="48.39601" lon="7.41416">
        <ele>419.29626</ele>
        <time>2026-09-02T10:21:07Z</time>
      </trkpt>
      <trkpt lat="48.39606" lon="7.41422">
        <ele>419.29626</ele>
        <time>2026-09-02T10:21:13Z</time>
      </trkpt>
      <trkpt lat="48.39609" lon="7.41428">
        <ele>419.29626</ele>
        <time>2026-09-02T10:21:19Z</time>
      </trkpt>
      <trkpt lat="48.39613" lon="7.41433">
        <ele>419.29626</ele>
        <time>2026-09-02T10:21:25Z</time>
      </trkpt>
      <trkpt lat="48.39616" lon="7.41439">
        <ele>419.29626</ele>
        <time>2026-09-02T10:21:30Z</time>
      </trkpt>
      <trkpt lat="48.39621" lon="7.41438">
        <ele>419.29626</ele>
        <time>2026-09-02T10:21:38Z</time>
      </trkpt>
      <trkpt lat="48.39626" lon="7.41435">
        <ele>419.29626</ele>
        <time>2026-09-02T10:21:44Z</time>
      </trkpt>
      <trkpt lat="48.39631" lon="7.41433">
        <ele>419.29626</ele>
        <time>2026-09-02T10:21:50Z</time>
      </trkpt>
      <trkpt lat="48.39634" lon="7.41426">
        <ele>419.29626</ele>
        <time>2026-09-02T10:21:55Z</time>
      </trkpt>
      <trkpt lat="48.39637" lon="7.41421">
        <ele>419.29626</ele>
        <time>2026-09-02T10:21:59Z</time>
      </trkpt>
      <trkpt lat="48.39641" lon="7.41419">
        <ele>419.29626</ele>
        <time>2026-09-02T10:22:03Z</time>
      </trkpt>
      <trkpt lat="48.39646" lon="7.41418">
        <ele>419.29626</ele>
        <time>2026-09-02T10:22:08Z</time>
      </trkpt>
      <trkpt lat="48.39651" lon="7.41419">
        <ele>419.29626</ele>
        <time>2026-09-02T10:22:12Z</time>
      </trkpt>
      <trkpt lat="48.39655" lon="7.41414">
        <ele>419.29626</ele>
        <time>2026-09-02T10:22:17Z</time>
      </trkpt>
      <trkpt lat="48.39656" lon="7.41406">
        <ele>419.29626</ele>
        <time>2026-09-02T10:22:23Z</time>
      </trkpt>
      <trkpt lat="48.39656" lon="7.41399">
        <ele>419.29626</ele>
        <time>2026-09-02T10:22:27Z</time>
      </trkpt>
      <trkpt lat="48.3966" lon="7.41396">
        <ele>419.29626</ele>
        <time>2026-09-02T10:22:32Z</time>
      </trkpt>
      <trkpt lat="48.39664" lon="7.41391">
        <ele>419.29626</ele>
        <time>2026-09-02T10:22:36Z</time>
      </trkpt>
      <trkpt lat="48.39667" lon="7.41386">
        <ele>419.29626</ele>
        <time>2026-09-02T10:22:39Z</time>
      </trkpt>
      <trkpt lat="48.39671" lon="7.4138">
        <ele>419.29626</ele>
        <time>2026-09-02T10:22:44Z</time>
      </trkpt>
      <trkpt lat="48.39676" lon="7.41377">
        <ele>419.29626</ele>
        <time>2026-09-02T10:22:47Z</time>
      </trkpt>
      <trkpt lat="48.39679" lon="7.41371">
        <ele>419.29626</ele>
        <time>2026-09-02T10:22:51Z</time>
      </trkpt>
      <trkpt lat="48.39683" lon="7.41367">
        <ele>419.29626</ele>
        <time>2026-09-02T10:22:55Z</time>
      </trkpt>
      <trkpt lat="48.39686" lon="7.41361">
        <ele>419.29626</ele>
        <time>2026-09-02T10:23:01Z</time>
      </trkpt>
      <trkpt lat="48.39689" lon="7.41355">
        <ele>419.29626</ele>
        <time>2026-09-02T10:23:09Z</time>
      </trkpt>
      <trkpt lat="48.39694" lon="7.41351">
        <ele>419.29626</ele>
        <time>2026-09-02T10:23:13Z</time>
      </trkpt>
      <trkpt lat="48.39695" lon="7.41343">
        <ele>419.29626</ele>
        <time>2026-09-02T10:23:20Z</time>
      </trkpt>
      <trkpt lat="48.39692" lon="7.41336">
        <ele>419.29626</ele>
        <time>2026-09-02T10:23:26Z</time>
      </trkpt>
      <trkpt lat="48.39693" lon="7.41328">
        <ele>419.29626</ele>
        <time>2026-09-02T10:23:31Z</time>
      </trkpt>
      <trkpt lat="48.39695" lon="7.41321">
        <ele>419.29626</ele>
        <time>2026-09-02T10:23:35Z</time>
      </trkpt>
      <trkpt lat="48.39699" lon="7.41315">
        <ele>419.29626</ele>
        <time>2026-09-02T10:23:38Z</time>
      </trkpt>
      <trkpt lat="48.39702" lon="7.41309">
        <ele>419.29626</ele>
        <time>2026-09-02T10:23:43Z</time>
      </trkpt>
      <trkpt lat="48.39705" lon="7.41303">
        <ele>419.29626</ele>
        <time>2026-09-02T10:23:46Z</time>
      </trkpt>
      <trkpt lat="48.3971" lon="7.41299">
        <ele>419.29626</ele>
        <time>2026-09-02T10:23:49Z</time>
      </trkpt>
      <trkpt lat="48.39715" lon="7.41298">
        <ele>419.29626</ele>
        <time>2026-09-02T10:23:54Z</time>
      </trkpt>
      <trkpt lat="48.3972" lon="7.41295">
        <ele>419.29626</ele>
        <time>2026-09-02T10:24:00Z</time>
      </trkpt>
      <trkpt lat="48.39725" lon="7.41291">
        <ele>419.29626</ele>
        <time>2026-09-02T10:24:04Z</time>
      </trkpt>
      <trkpt lat="48.39728" lon="7.41287">
        <ele>419.29626</ele>
        <time>2026-09-02T10:24:10Z</time>
      </trkpt>
      <trkpt lat="48.39731" lon="7.41281">
        <ele>419.29626</ele>
        <time>2026-09-02T10:24:20Z</time>
      </trkpt>
      <trkpt lat="48.39734" lon="7.41275">
        <ele>419.29626</ele>
        <time>2026-09-02T10:24:23Z</time>
      </trkpt>
      <trkpt lat="48.39737" lon="7.41269">
        <ele>419.29626</ele>
        <time>2026-09-02T10:24:27Z</time>
      </trkpt>
      <trkpt lat="48.39741" lon="7.41265">
        <ele>419.29626</ele>
        <time>2026-09-02T10:24:32Z</time>
      </trkpt>
      <trkpt lat="48.39742" lon="7.41256">
        <ele>419.29626</ele>
        <time>2026-09-02T10:24:35Z</time>
      </trkpt>
      <trkpt lat="48.39746" lon="7.41252">
        <ele>419.29626</ele>
        <time>2026-09-02T10:24:38Z</time>
      </trkpt>
      <trkpt lat="48.39748" lon="7.41245">
        <ele>419.29626</ele>
        <time>2026-09-02T10:24:43Z</time>
      </trkpt>
      <trkpt lat="48.39752" lon="7.4124">
        <ele>419.29626</ele>
        <time>2026-09-02T10:24:47Z</time>
      </trkpt>
      <trkpt lat="48.39755" lon="7.41231">
        <ele>419.29626</ele>
        <time>2026-09-02T10:24:51Z</time>
      </trkpt>
      <trkpt lat="48.39759" lon="7.41228">
        <ele>419.29626</ele>
        <time>2026-09-02T10:24:56Z</time>
      </trkpt>
      <trkpt lat="48.39764" lon="7.41226">
        <ele>419.29626</ele>
        <time>2026-09-02T10:25:00Z</time>
      </trkpt>
      <trkpt lat="48.39767" lon="7.41221">
        <ele>419.29626</ele>
        <time>2026-09-02T10:25:05Z</time>
      </trkpt>
      <trkpt lat="48.39772" lon="7.41221">
        <ele>419.29626</ele>
        <time>2026-09-02T10:25:10Z</time>
      </trkpt>
      <trkpt lat="48.39776" lon="7.41214">
        <ele>419.29626</ele>
        <time>2026-09-02T10:25:15Z</time>
      </trkpt>
      <trkpt lat="48.39781" lon="7.41215">
        <ele>419.29626</ele>
        <time>2026-09-02T10:25:18Z</time>
      </trkpt>
      <trkpt lat="48.39786" lon="7.41214">
        <ele>419.29626</ele>
        <time>2026-09-02T10:25:25Z</time>
      </trkpt>
      <trkpt lat="48.3979" lon="7.41211">
        <ele>419.29626</ele>
        <time>2026-09-02T10:25:30Z</time>
      </trkpt>
      <trkpt lat="48.39797" lon="7.41204">
        <ele>419.29626</ele>
        <time>2026-09-02T10:25:34Z</time>
      </trkpt>
      <trkpt lat="48.39802" lon="7.41204">
        <ele>419.29626</ele>
        <time>2026-09-02T10:25:39Z</time>
      </trkpt>
      <trkpt lat="48.39808" lon="7.41206">
        <ele>419.29626</ele>
        <time>2026-09-02T10:25:44Z</time>
      </trkpt>
      <trkpt lat="48.39813" lon="7.41208">
        <ele>419.29626</ele>
        <time>2026-09-02T10:25:49Z</time>
      </trkpt>
      <trkpt lat="48.39819" lon="7.4121">
        <ele>419.29626</ele>
        <time>2026-09-02T10:25:55Z</time>
      </trkpt>
      <trkpt lat="48.39824" lon="7.41214">
        <ele>419.29626</ele>
        <time>2026-09-02T10:26:01Z</time>
      </trkpt>
      <trkpt lat="48.39829" lon="7.41214">
        <ele>419.29626</ele>
        <time>2026-09-02T10:26:06Z</time>
      </trkpt>
      <trkpt lat="48.39833" lon="7.41215">
        <ele>419.29626</ele>
        <time>2026-09-02T10:26:12Z</time>
      </trkpt>
      <trkpt lat="48.39839" lon="7.41213">
        <ele>419.29626</ele>
        <time>2026-09-02T10:26:17Z</time>
      </trkpt>
      <trkpt lat="48.39845" lon="7.41213">
        <ele>419.29626</ele>
        <time>2026-09-02T10:26:22Z</time>
      </trkpt>
      <trkpt lat="48.3985" lon="7.41218">
        <ele>419.29626</ele>
        <time>2026-09-02T10:26:27Z</time>
      </trkpt>
      <trkpt lat="48.39854" lon="7.41223">
        <ele>419.29626</ele>
        <time>2026-09-02T10:26:30Z</time>
      </trkpt>
      <trkpt lat="48.39859" lon="7.41227">
        <ele>419.29626</ele>
        <time>2026-09-02T10:26:35Z</time>
      </trkpt>
      <trkpt lat="48.39864" lon="7.4123">
        <ele>421.37564</ele>
        <time>2026-09-02T10:26:45Z</time>
      </trkpt>
      <trkpt lat="48.39867" lon="7.41236">
        <ele>423.45505</ele>
        <time>2026-09-02T10:26:47Z</time>
      </trkpt>
      <trkpt lat="48.39871" lon="7.41238">
        <ele>425.53442</ele>
        <time>2026-09-02T10:26:50Z</time>
      </trkpt>
      <trkpt lat="48.39876" lon="7.41243">
        <ele>427.61383</ele>
        <time>2026-09-02T10:26:58Z</time>
      </trkpt>
      <trkpt lat="48.39879" lon="7.41249">
        <ele>429.6932</ele>
        <time>2026-09-02T10:27:04Z</time>
      </trkpt>
      <trkpt lat="48.39885" lon="7.41249">
        <ele>429.6932</ele>
        <time>2026-09-02T10:27:10Z</time>
      </trkpt>
      <trkpt lat="48.3989" lon="7.41249">
        <ele>429.6932</ele>
        <time>2026-09-02T10:27:15Z</time>
      </trkpt>
      <trkpt lat="48.39893" lon="7.41252">
        <ele>429.6932</ele>
        <time>2026-09-02T10:27:20Z</time>
      </trkpt>
      <trkpt lat="48.39898" lon="7.41252">
        <ele>429.6932</ele>
        <time>2026-09-02T10:27:24Z</time>
      </trkpt>
      <trkpt lat="48.39903" lon="7.41253">
        <ele>429.6932</ele>
        <time>2026-09-02T10:27:30Z</time>
      </trkpt>
      <trkpt lat="48.39905" lon="7.41247">
        <ele>429.6932</ele>
        <time>2026-09-02T10:27:33Z</time>
      </trkpt>
      <trkpt lat="48.39912" lon="7.41249">
        <ele>429.6932</ele>
        <time>2026-09-02T10:27:36Z</time>
      </trkpt>
      <trkpt lat="48.39919" lon="7.41253">
        <ele>429.6932</ele>
        <time>2026-09-02T10:27:40Z</time>
      </trkpt>
      <trkpt lat="48.39922" lon="7.41248">
        <ele>429.6932</ele>
        <time>2026-09-02T10:27:45Z</time>
      </trkpt>
      <trkpt lat="48.39926" lon="7.41244">
        <ele>429.6932</ele>
        <time>2026-09-02T10:27:50Z</time>
      </trkpt>
      <trkpt lat="48.3993" lon="7.4124">
        <ele>429.6932</ele>
        <time>2026-09-02T10:27:58Z</time>
      </trkpt>
      <trkpt lat="48.39932" lon="7.41234">
        <ele>429.6932</ele>
        <time>2026-09-02T10:28:11Z</time>
      </trkpt>
      <trkpt lat="48.39934" lon="7.41225">
        <ele>429.6932</ele>
        <time>2026-09-02T10:28:16Z</time>
      </trkpt>
      <trkpt lat="48.39939" lon="7.41223">
        <ele>429.6932</ele>
        <time>2026-09-02T10:28:21Z</time>
      </trkpt>
      <trkpt lat="48.39942" lon="7.41218">
        <ele>429.6932</ele>
        <time>2026-09-02T10:28:24Z</time>
      </trkpt>
      <trkpt lat="48.39946" lon="7.41214">
        <ele>429.6932</ele>
        <time>2026-09-02T10:28:29Z</time>
      </trkpt>
      <trkpt lat="48.39948" lon="7.41207">
        <ele>429.6932</ele>
        <time>2026-09-02T10:28:42Z</time>
      </trkpt>
      <trkpt lat="48.39954" lon="7.41206">
        <ele>429.6932</ele>
        <time>2026-09-02T10:28:47Z</time>
      </trkpt>
      <trkpt lat="48.3996" lon="7.41206">
        <ele>429.6932</ele>
        <time>2026-09-02T10:28:51Z</time>
      </trkpt>
      <trkpt lat="48.39964" lon="7.412">
        <ele>429.6932</ele>
        <time>2026-09-02T10:28:58Z</time>
      </trkpt>
      <trkpt lat="48.39967" lon="7.41194">
        <ele>429.6932</ele>
        <time>2026-09-02T10:29:02Z</time>
      </trkpt>
      <trkpt lat="48.39972" lon="7.41198">
        <ele>429.6932</ele>
        <time>2026-09-02T10:29:11Z</time>
      </trkpt>
      <trkpt lat="48.39975" lon="7.41192">
        <ele>429.6932</ele>
        <time>2026-09-02T10:29:14Z</time>
      </trkpt>
      <trkpt lat="48.39976" lon="7.41184">
        <ele>429.6932</ele>
        <time>2026-09-02T10:29:21Z</time>
      </trkpt>
      <trkpt lat="48.39982" lon="7.41187">
        <ele>429.6932</ele>
        <time>2026-09-02T10:29:24Z</time>
      </trkpt>
      <trkpt lat="48.39986" lon="7.41187">
        <ele>429.6932</ele>
        <time>2026-09-02T10:29:30Z</time>
      </trkpt>
      <trkpt lat="48.39992" lon="7.41188">
        <ele>429.6932</ele>
        <time>2026-09-02T10:29:37Z</time>
      </trkpt>
      <trkpt lat="48.39997" lon="7.41193">
        <ele>429.6932</ele>
        <time>2026-09-02T10:29:41Z</time>
      </trkpt>
      <trkpt lat="48.40002" lon="7.41194">
        <ele>429.6932</ele>
        <time>2026-09-02T10:29:49Z</time>
      </trkpt>
      <trkpt lat="48.40007" lon="7.41192">
        <ele>429.6932</ele>
        <time>2026-09-02T10:29:55Z</time>
      </trkpt>
      <trkpt lat="48.40011" lon="7.41196">
        <ele>429.6932</ele>
        <time>2026-09-02T10:30:00Z</time>
      </trkpt>
      <trkpt lat="48.40015" lon="7.41203">
        <ele>429.6932</ele>
        <time>2026-09-02T10:30:06Z</time>
      </trkpt>
      <trkpt lat="48.40019" lon="7.41207">
        <ele>429.6932</ele>
        <time>2026-09-02T10:30:13Z</time>
      </trkpt>
      <trkpt lat="48.40021" lon="7.41214">
        <ele>429.6932</ele>
        <time>2026-09-02T10:30:16Z</time>
      </trkpt>
      <trkpt lat="48.40025" lon="7.41218">
        <ele>429.6932</ele>
        <time>2026-09-02T10:30:25Z</time>
      </trkpt>
      <trkpt lat="48.40028" lon="7.41225">
        <ele>429.6932</ele>
        <time>2026-09-02T10:30:30Z</time>
      </trkpt>
      <trkpt lat="48.40031" lon="7.41229">
        <ele>429.6932</ele>
        <time>2026-09-02T10:30:34Z</time>
      </trkpt>
      <trkpt lat="48.40036" lon="7.41232">
        <ele>429.6932</ele>
        <time>2026-09-02T10:30:40Z</time>
      </trkpt>
      <trkpt lat="48.40041" lon="7.41237">
        <ele>429.6932</ele>
        <time>2026-09-02T10:30:48Z</time>
      </trkpt>
      <trkpt lat="48.40046" lon="7.41244">
        <ele>429.6932</ele>
        <time>2026-09-02T10:30:51Z</time>
      </trkpt>
      <trkpt lat="48.40051" lon="7.41247">
        <ele>429.6932</ele>
        <time>2026-09-02T10:30:56Z</time>
      </trkpt>
      <trkpt lat="48.40056" lon="7.41248">
        <ele>429.6932</ele>
        <time>2026-09-02T10:30:59Z</time>
      </trkpt>
      <trkpt lat="48.4006" lon="7.41252">
        <ele>429.6932</ele>
        <time>2026-09-02T10:31:05Z</time>
      </trkpt>
      <trkpt lat="48.40065" lon="7.41255">
        <ele>429.6932</ele>
        <time>2026-09-02T10:31:10Z</time>
      </trkpt>
      <trkpt lat="48.40065" lon="7.41263">
        <ele>429.6932</ele>
        <time>2026-09-02T10:31:18Z</time>
      </trkpt>
      <trkpt lat="48.40069" lon="7.41269">
        <ele>429.6932</ele>
        <time>2026-09-02T10:31:21Z</time>
      </trkpt>
      <trkpt lat="48.4007" lon="7.41276">
        <ele>429.6932</ele>
        <time>2026-09-02T10:31:24Z</time>
      </trkpt>
      <trkpt lat="48.40075" lon="7.41281">
        <ele>429.6932</ele>
        <time>2026-09-02T10:31:30Z</time>
      </trkpt>
      <trkpt lat="48.4008" lon="7.41286">
        <ele>429.6932</ele>
        <time>2026-09-02T10:31:36Z</time>
      </trkpt>
      <trkpt lat="48.40084" lon="7.41289">
        <ele>429.6932</ele>
        <time>2026-09-02T10:31:41Z</time>
      </trkpt>
      <trkpt lat="48.40089" lon="7.41292">
        <ele>429.6932</ele>
        <time>2026-09-02T10:31:46Z</time>
      </trkpt>
      <trkpt lat="48.40094" lon="7.41294">
        <ele>429.6932</ele>
        <time>2026-09-02T10:31:51Z</time>
      </trkpt>
      <trkpt lat="48.40098" lon="7.41295">
        <ele>429.6932</ele>
        <time>2026-09-02T10:31:55Z</time>
      </trkpt>
      <trkpt lat="48.40104" lon="7.41295">
        <ele>429.6932</ele>
        <time>2026-09-02T10:32:02Z</time>
      </trkpt>
      <trkpt lat="48.40109" lon="7.41295">
        <ele>429.6932</ele>
        <time>2026-09-02T10:32:09Z</time>
      </trkpt>
      <trkpt lat="48.40114" lon="7.41294">
        <ele>429.6932</ele>
        <time>2026-09-02T10:32:14Z</time>
      </trkpt>
      <trkpt lat="48.40119" lon="7.41293">
        <ele>429.6932</ele>
        <time>2026-09-02T10:32:19Z</time>
      </trkpt>
      <trkpt lat="48.40123" lon="7.41293">
        <ele>431.80804</ele>
        <time>2026-09-02T10:32:30Z</time>
      </trkpt>
      <trkpt lat="48.40128" lon="7.4129">
        <ele>433.92285</ele>
        <time>2026-09-02T10:33:03Z</time>
      </trkpt>
      <trkpt lat="48.40129" lon="7.4128">
        <ele>436.0377</ele>
        <time>2026-09-02T10:33:06Z</time>
      </trkpt>
      <trkpt lat="48.40133" lon="7.41276">
        <ele>438.1525</ele>
        <time>2026-09-02T10:33:20Z</time>
      </trkpt>
      <trkpt lat="48.40137" lon="7.41274">
        <ele>440.26733</ele>
        <time>2026-09-02T10:33:26Z</time>
      </trkpt>
      <trkpt lat="48.40141" lon="7.41269">
        <ele>440.26733</ele>
        <time>2026-09-02T10:35:29Z</time>
      </trkpt>
      <trkpt lat="48.40145" lon="7.41265">
        <ele>440.26733</ele>
        <time>2026-09-02T10:35:34Z</time>
      </trkpt>
      <trkpt lat="48.40147" lon="7.4126">
        <ele>440.26733</ele>
        <time>2026-09-02T10:35:54Z</time>
      </trkpt>
      <trkpt lat="48.40147" lon="7.41267">
        <ele>440.26733</ele>
        <time>2026-09-02T10:36:11Z</time>
      </trkpt>
      <trkpt lat="48.40152" lon="7.41266">
        <ele>440.26733</ele>
        <time>2026-09-02T10:36:27Z</time>
      </trkpt>
      <trkpt lat="48.40157" lon="7.4126">
        <ele>440.26733</ele>
        <time>2026-09-02T10:36:32Z</time>
      </trkpt>
      <trkpt lat="48.40162" lon="7.41259">
        <ele>440.26733</ele>
        <time>2026-09-02T10:36:38Z</time>
      </trkpt>
      <trkpt lat="48.40167" lon="7.41256">
        <ele>440.26733</ele>
        <time>2026-09-02T10:36:44Z</time>
      </trkpt>
      <trkpt lat="48.4017" lon="7.41251">
        <ele>440.26733</ele>
        <time>2026-09-02T10:36:48Z</time>
      </trkpt>
      <trkpt lat="48.40171" lon="7.41244">
        <ele>440.26733</ele>
        <time>2026-09-02T10:36:53Z</time>
      </trkpt>
      <trkpt lat="48.4017" lon="7.41237">
        <ele>440.26733</ele>
        <time>2026-09-02T10:36:59Z</time>
      </trkpt>
      <trkpt lat="48.40166" lon="7.4124">
        <ele>440.26733</ele>
        <time>2026-09-02T10:37:21Z</time>
      </trkpt>
      <trkpt lat="48.40162" lon="7.41243">
        <ele>440.26733</ele>
        <time>2026-09-02T10:37:29Z</time>
      </trkpt>
      <trkpt lat="48.40158" lon="7.41247">
        <ele>440.26733</ele>
        <time>2026-09-02T10:37:34Z</time>
      </trkpt>
      <trkpt lat="48.40153" lon="7.41249">
        <ele>440.26733</ele>
        <time>2026-09-02T10:37:38Z</time>
      </trkpt>
      <trkpt lat="48.40149" lon="7.41252">
        <ele>440.26733</ele>
        <time>2026-09-02T10:37:43Z</time>
      </trkpt>
      <trkpt lat="48.40144" lon="7.41255">
        <ele>442.44653</ele>
        <time>2026-09-02T10:37:49Z</time>
      </trkpt>
      <trkpt lat="48.40139" lon="7.41258">
        <ele>444.62573</ele>
        <time>2026-09-02T10:37:57Z</time>
      </trkpt>
      <trkpt lat="48.40135" lon="7.41261">
        <ele>446.8049</ele>
        <time>2026-09-02T10:38:06Z</time>
      </trkpt>
      <trkpt lat="48.4013" lon="7.41263">
        <ele>448.9841</ele>
        <time>2026-09-02T10:38:11Z</time>
      </trkpt>
      <trkpt lat="48.40131" lon="7.41256">
        <ele>451.1633</ele>
        <time>2026-09-02T10:38:29Z</time>
      </trkpt>
      <trkpt lat="48.40136" lon="7.41253">
        <ele>451.1633</ele>
        <time>2026-09-02T10:39:10Z</time>
      </trkpt>
      <trkpt lat="48.40141" lon="7.4125">
        <ele>451.1633</ele>
        <time>2026-09-02T10:39:12Z</time>
      </trkpt>
      <trkpt lat="48.40137" lon="7.41252">
        <ele>451.1633</ele>
        <time>2026-09-02T10:39:18Z</time>
      </trkpt>
      <trkpt lat="48.40143" lon="7.4125">
        <ele>453.48416</ele>
        <time>2026-09-02T10:39:21Z</time>
      </trkpt>
      <trkpt lat="48.40146" lon="7.41245">
        <ele>455.80505</ele>
        <time>2026-09-02T10:39:29Z</time>
      </trkpt>
      <trkpt lat="48.40144" lon="7.41237">
        <ele>458.12592</ele>
        <time>2026-09-02T10:39:53Z</time>
      </trkpt>
      <trkpt lat="48.40143" lon="7.4123">
        <ele>460.4468</ele>
        <time>2026-09-02T10:40:01Z</time>
      </trkpt>
      <trkpt lat="48.40145" lon="7.41244">
        <ele>462.76767</ele>
        <time>2026-09-02T10:40:05Z</time>
      </trkpt>
      <trkpt lat="48.40146" lon="7.41227">
        <ele>462.76767</ele>
        <time>2026-09-02T10:40:07Z</time>
      </trkpt>
      <trkpt lat="48.40153" lon="7.41229">
        <ele>460.63113</ele>
        <time>2026-09-02T10:40:12Z</time>
      </trkpt>
      <trkpt lat="48.40158" lon="7.41229">
        <ele>458.4946</ele>
        <time>2026-09-02T10:40:28Z</time>
      </trkpt>
      <trkpt lat="48.40154" lon="7.41228">
        <ele>456.35803</ele>
        <time>2026-09-02T10:40:51Z</time>
      </trkpt>
      <trkpt lat="48.40158" lon="7.41228">
        <ele>454.2215</ele>
        <time>2026-09-02T11:30:07Z</time>
      </trkpt>
      <trkpt lat="48.40154" lon="7.41226">
        <ele>452.08496</ele>
        <time>2026-09-02T11:48:10Z</time>
      </trkpt>
      <trkpt lat="48.40149" lon="7.41226">
        <ele>452.08496</ele>
        <time>2026-09-02T11:48:16Z</time>
      </trkpt>
      <trkpt lat="48.40153" lon="7.41234">
        <ele>452.08496</ele>
        <time>2026-09-02T11:48:28Z</time>
      </trkpt>
      <trkpt lat="48.40152" lon="7.41241">
        <ele>452.08496</ele>
        <time>2026-09-02T11:48:56Z</time>
      </trkpt>
      <trkpt lat="48.40147" lon="7.41245">
        <ele>454.31543</ele>
        <time>2026-09-02T11:49:31Z</time>
      </trkpt>
      <trkpt lat="48.40142" lon="7.4125">
        <ele>456.54587</ele>
        <time>2026-09-02T11:49:40Z</time>
      </trkpt>
      <trkpt lat="48.40138" lon="7.41248">
        <ele>458.77634</ele>
        <time>2026-09-02T11:49:51Z</time>
      </trkpt>
      <trkpt lat="48.40133" lon="7.41253">
        <ele>461.00677</ele>
        <time>2026-09-02T11:50:01Z</time>
      </trkpt>
      <trkpt lat="48.40128" lon="7.41257">
        <ele>463.23724</ele>
        <time>2026-09-02T11:50:06Z</time>
      </trkpt>
      <trkpt lat="48.40123" lon="7.41258">
        <ele>463.23724</ele>
        <time>2026-09-02T11:51:21Z</time>
      </trkpt>
      <trkpt lat="48.40126" lon="7.41264">
        <ele>461.22488</ele>
        <time>2026-09-02T11:51:30Z</time>
      </trkpt>
      <trkpt lat="48.40121" lon="7.41265">
        <ele>459.21252</ele>
        <time>2026-09-02T11:51:51Z</time>
      </trkpt>
      <trkpt lat="48.40116" lon="7.41267">
        <ele>457.20016</ele>
        <time>2026-09-02T11:52:35Z</time>
      </trkpt>
      <trkpt lat="48.40121" lon="7.41267">
        <ele>455.1878</ele>
        <time>2026-09-02T11:53:47Z</time>
      </trkpt>
      <trkpt lat="48.40126" lon="7.41266">
        <ele>453.17545</ele>
        <time>2026-09-02T11:53:52Z</time>
      </trkpt>
      <trkpt lat="48.40131" lon="7.41268">
        <ele>453.17545</ele>
        <time>2026-09-02T11:54:01Z</time>
      </trkpt>
      <trkpt lat="48.40136" lon="7.41265">
        <ele>453.17545</ele>
        <time>2026-09-02T11:54:11Z</time>
      </trkpt>
      <trkpt lat="48.40141" lon="7.41262">
        <ele>453.17545</ele>
        <time>2026-09-02T11:54:18Z</time>
      </trkpt>
      <trkpt lat="48.40144" lon="7.41258">
        <ele>453.17545</ele>
        <time>2026-09-02T11:54:25Z</time>
      </trkpt>
      <trkpt lat="48.40148" lon="7.41254">
        <ele>453.17545</ele>
        <time>2026-09-02T11:54:30Z</time>
      </trkpt>
      <trkpt lat="48.40153" lon="7.41251">
        <ele>453.17545</ele>
        <time>2026-09-02T11:54:36Z</time>
      </trkpt>
      <trkpt lat="48.40157" lon="7.41249">
        <ele>453.17545</ele>
        <time>2026-09-02T11:54:40Z</time>
      </trkpt>
      <trkpt lat="48.40162" lon="7.41247">
        <ele>453.17545</ele>
        <time>2026-09-02T11:54:46Z</time>
      </trkpt>
      <trkpt lat="48.40167" lon="7.41243">
        <ele>453.17545</ele>
        <time>2026-09-02T11:54:52Z</time>
      </trkpt>
      <trkpt lat="48.40171" lon="7.41245">
        <ele>453.17545</ele>
        <time>2026-09-02T11:55:02Z</time>
      </trkpt>
      <trkpt lat="48.40168" lon="7.41252">
        <ele>453.17545</ele>
        <time>2026-09-02T11:55:09Z</time>
      </trkpt>
      <trkpt lat="48.40165" lon="7.41256">
        <ele>453.17545</ele>
        <time>2026-09-02T11:55:16Z</time>
      </trkpt>
      <trkpt lat="48.4016" lon="7.41259">
        <ele>453.17545</ele>
        <time>2026-09-02T11:55:22Z</time>
      </trkpt>
      <trkpt lat="48.40155" lon="7.4126">
        <ele>453.17545</ele>
        <time>2026-09-02T11:55:34Z</time>
      </trkpt>
      <trkpt lat="48.40149" lon="7.41264">
        <ele>453.17545</ele>
        <time>2026-09-02T11:55:44Z</time>
      </trkpt>
      <trkpt lat="48.40145" lon="7.41269">
        <ele>453.17545</ele>
        <time>2026-09-02T11:55:49Z</time>
      </trkpt>
      <trkpt lat="48.40141" lon="7.41273">
        <ele>453.17545</ele>
        <time>2026-09-02T11:55:54Z</time>
      </trkpt>
      <trkpt lat="48.40137" lon="7.41275">
        <ele>453.17545</ele>
        <time>2026-09-02T11:56:00Z</time>
      </trkpt>
      <trkpt lat="48.40132" lon="7.41276">
        <ele>453.17545</ele>
        <time>2026-09-02T11:56:06Z</time>
      </trkpt>
      <trkpt lat="48.40127" lon="7.41276">
        <ele>451.14417</ele>
        <time>2026-09-02T11:56:12Z</time>
      </trkpt>
      <trkpt lat="48.40123" lon="7.4128">
        <ele>449.1129</ele>
        <time>2026-09-02T11:56:19Z</time>
      </trkpt>
      <trkpt lat="48.4012" lon="7.41284">
        <ele>447.08163</ele>
        <time>2026-09-02T11:56:25Z</time>
      </trkpt>
      <trkpt lat="48.40121" lon="7.41291">
        <ele>445.05038</ele>
        <time>2026-09-02T11:56:33Z</time>
      </trkpt>
      <trkpt lat="48.4012" lon="7.41298">
        <ele>443.0191</ele>
        <time>2026-09-02T11:56:58Z</time>
      </trkpt>
      <trkpt lat="48.40117" lon="7.41293">
        <ele>443.0191</ele>
        <time>2026-09-02T11:57:09Z</time>
      </trkpt>
      <trkpt lat="48.40112" lon="7.41293">
        <ele>443.0191</ele>
        <time>2026-09-02T11:57:16Z</time>
      </trkpt>
      <trkpt lat="48.40107" lon="7.41294">
        <ele>443.0191</ele>
        <time>2026-09-02T11:57:21Z</time>
      </trkpt>
      <trkpt lat="48.40102" lon="7.41293">
        <ele>443.0191</ele>
        <time>2026-09-02T11:57:29Z</time>
      </trkpt>
      <trkpt lat="48.40097" lon="7.41295">
        <ele>443.0191</ele>
        <time>2026-09-02T11:57:35Z</time>
      </trkpt>
      <trkpt lat="48.40092" lon="7.41294">
        <ele>443.0191</ele>
        <time>2026-09-02T11:57:40Z</time>
      </trkpt>
      <trkpt lat="48.40088" lon="7.41292">
        <ele>443.0191</ele>
        <time>2026-09-02T11:57:45Z</time>
      </trkpt>
      <trkpt lat="48.40083" lon="7.41288">
        <ele>443.0191</ele>
        <time>2026-09-02T11:57:49Z</time>
      </trkpt>
      <trkpt lat="48.40079" lon="7.41285">
        <ele>443.0191</ele>
        <time>2026-09-02T11:57:53Z</time>
      </trkpt>
      <trkpt lat="48.40075" lon="7.41281">
        <ele>443.0191</ele>
        <time>2026-09-02T11:57:58Z</time>
      </trkpt>
      <trkpt lat="48.40071" lon="7.41276">
        <ele>443.0191</ele>
        <time>2026-09-02T11:58:04Z</time>
      </trkpt>
      <trkpt lat="48.40067" lon="7.41272">
        <ele>443.0191</ele>
        <time>2026-09-02T11:58:09Z</time>
      </trkpt>
      <trkpt lat="48.40063" lon="7.41268">
        <ele>443.0191</ele>
        <time>2026-09-02T11:58:14Z</time>
      </trkpt>
      <trkpt lat="48.40059" lon="7.41263">
        <ele>443.0191</ele>
        <time>2026-09-02T11:58:21Z</time>
      </trkpt>
      <trkpt lat="48.40055" lon="7.41258">
        <ele>443.0191</ele>
        <time>2026-09-02T11:58:25Z</time>
      </trkpt>
      <trkpt lat="48.40051" lon="7.41252">
        <ele>443.0191</ele>
        <time>2026-09-02T11:58:31Z</time>
      </trkpt>
      <trkpt lat="48.40046" lon="7.41248">
        <ele>443.0191</ele>
        <time>2026-09-02T11:58:36Z</time>
      </trkpt>
      <trkpt lat="48.40042" lon="7.41243">
        <ele>443.0191</ele>
        <time>2026-09-02T11:58:41Z</time>
      </trkpt>
      <trkpt lat="48.40038" lon="7.4124">
        <ele>443.0191</ele>
        <time>2026-09-02T11:58:45Z</time>
      </trkpt>
      <trkpt lat="48.40034" lon="7.41236">
        <ele>443.0191</ele>
        <time>2026-09-02T11:58:51Z</time>
      </trkpt>
      <trkpt lat="48.4003" lon="7.41231">
        <ele>443.0191</ele>
        <time>2026-09-02T11:58:57Z</time>
      </trkpt>
      <trkpt lat="48.40026" lon="7.41227">
        <ele>443.0191</ele>
        <time>2026-09-02T11:59:01Z</time>
      </trkpt>
      <trkpt lat="48.40022" lon="7.41222">
        <ele>443.0191</ele>
        <time>2026-09-02T11:59:06Z</time>
      </trkpt>
      <trkpt lat="48.40018" lon="7.41218">
        <ele>443.0191</ele>
        <time>2026-09-02T11:59:11Z</time>
      </trkpt>
      <trkpt lat="48.40016" lon="7.41213">
        <ele>443.0191</ele>
        <time>2026-09-02T11:59:24Z</time>
      </trkpt>
      <trkpt lat="48.40017" lon="7.41206">
        <ele>443.0191</ele>
        <time>2026-09-02T11:59:28Z</time>
      </trkpt>
      <trkpt lat="48.4002" lon="7.41198">
        <ele>443.0191</ele>
        <time>2026-09-02T11:59:31Z</time>
      </trkpt>
      <trkpt lat="48.40023" lon="7.41192">
        <ele>443.0191</ele>
        <time>2026-09-02T11:59:36Z</time>
      </trkpt>
      <trkpt lat="48.40027" lon="7.41188">
        <ele>443.0191</ele>
        <time>2026-09-02T11:59:42Z</time>
      </trkpt>
      <trkpt lat="48.40031" lon="7.41184">
        <ele>443.0191</ele>
        <time>2026-09-02T11:59:46Z</time>
      </trkpt>
      <trkpt lat="48.40034" lon="7.41179">
        <ele>443.0191</ele>
        <time>2026-09-02T11:59:51Z</time>
      </trkpt>
      <trkpt lat="48.40038" lon="7.41174">
        <ele>443.0191</ele>
        <time>2026-09-02T11:59:57Z</time>
      </trkpt>
      <trkpt lat="48.40041" lon="7.41168">
        <ele>443.0191</ele>
        <time>2026-09-02T12:00:03Z</time>
      </trkpt>
      <trkpt lat="48.40044" lon="7.41162">
        <ele>443.0191</ele>
        <time>2026-09-02T12:00:08Z</time>
      </trkpt>
      <trkpt lat="48.40047" lon="7.41157">
        <ele>443.0191</ele>
        <time>2026-09-02T12:00:14Z</time>
      </trkpt>
      <trkpt lat="48.40051" lon="7.41153">
        <ele>443.0191</ele>
        <time>2026-09-02T12:00:19Z</time>
      </trkpt>
      <trkpt lat="48.40056" lon="7.41148">
        <ele>443.0191</ele>
        <time>2026-09-02T12:00:24Z</time>
      </trkpt>
      <trkpt lat="48.40059" lon="7.41141">
        <ele>443.0191</ele>
        <time>2026-09-02T12:00:29Z</time>
      </trkpt>
      <trkpt lat="48.40064" lon="7.41139">
        <ele>443.0191</ele>
        <time>2026-09-02T12:00:33Z</time>
      </trkpt>
      <trkpt lat="48.40068" lon="7.41138">
        <ele>443.0191</ele>
        <time>2026-09-02T12:00:38Z</time>
      </trkpt>
      <trkpt lat="48.40073" lon="7.41138">
        <ele>443.0191</ele>
        <time>2026-09-02T12:00:43Z</time>
      </trkpt>
      <trkpt lat="48.40078" lon="7.41138">
        <ele>443.0191</ele>
        <time>2026-09-02T12:00:47Z</time>
      </trkpt>
      <trkpt lat="48.40083" lon="7.41137">
        <ele>443.0191</ele>
        <time>2026-09-02T12:00:52Z</time>
      </trkpt>
      <trkpt lat="48.40088" lon="7.41137">
        <ele>443.0191</ele>
        <time>2026-09-02T12:00:59Z</time>
      </trkpt>
      <trkpt lat="48.40093" lon="7.41136">
        <ele>443.0191</ele>
        <time>2026-09-02T12:01:05Z</time>
      </trkpt>
      <trkpt lat="48.40098" lon="7.41135">
        <ele>443.0191</ele>
        <time>2026-09-02T12:01:10Z</time>
      </trkpt>
      <trkpt lat="48.40104" lon="7.41135">
        <ele>443.0191</ele>
        <time>2026-09-02T12:01:14Z</time>
      </trkpt>
      <trkpt lat="48.40109" lon="7.41135">
        <ele>443.0191</ele>
        <time>2026-09-02T12:01:18Z</time>
      </trkpt>
      <trkpt lat="48.40113" lon="7.41134">
        <ele>443.0191</ele>
        <time>2026-09-02T12:01:23Z</time>
      </trkpt>
      <trkpt lat="48.40118" lon="7.41136">
        <ele>443.0191</ele>
        <time>2026-09-02T12:01:29Z</time>
      </trkpt>
      <trkpt lat="48.40124" lon="7.41136">
        <ele>443.0191</ele>
        <time>2026-09-02T12:01:34Z</time>
      </trkpt>
      <trkpt lat="48.40129" lon="7.41137">
        <ele>443.0191</ele>
        <time>2026-09-02T12:01:39Z</time>
      </trkpt>
      <trkpt lat="48.40134" lon="7.41139">
        <ele>443.0191</ele>
        <time>2026-09-02T12:01:45Z</time>
      </trkpt>
      <trkpt lat="48.40137" lon="7.41132">
        <ele>443.0191</ele>
        <time>2026-09-02T12:01:52Z</time>
      </trkpt>
      <trkpt lat="48.40141" lon="7.41125">
        <ele>443.0191</ele>
        <time>2026-09-02T12:01:57Z</time>
      </trkpt>
      <trkpt lat="48.40143" lon="7.4112">
        <ele>443.0191</ele>
        <time>2026-09-02T12:02:03Z</time>
      </trkpt>
      <trkpt lat="48.40146" lon="7.41114">
        <ele>443.0191</ele>
        <time>2026-09-02T12:02:08Z</time>
      </trkpt>
      <trkpt lat="48.40149" lon="7.41108">
        <ele>443.0191</ele>
        <time>2026-09-02T12:02:13Z</time>
      </trkpt>
      <trkpt lat="48.40153" lon="7.41103">
        <ele>443.0191</ele>
        <time>2026-09-02T12:02:18Z</time>
      </trkpt>
      <trkpt lat="48.40156" lon="7.41096">
        <ele>443.0191</ele>
        <time>2026-09-02T12:02:23Z</time>
      </trkpt>
      <trkpt lat="48.40159" lon="7.41091">
        <ele>443.0191</ele>
        <time>2026-09-02T12:02:28Z</time>
      </trkpt>
      <trkpt lat="48.40162" lon="7.41085">
        <ele>443.0191</ele>
        <time>2026-09-02T12:02:33Z</time>
      </trkpt>
      <trkpt lat="48.40165" lon="7.41078">
        <ele>443.0191</ele>
        <time>2026-09-02T12:02:37Z</time>
      </trkpt>
      <trkpt lat="48.40167" lon="7.41071">
        <ele>443.0191</ele>
        <time>2026-09-02T12:02:42Z</time>
      </trkpt>
      <trkpt lat="48.4017" lon="7.41064">
        <ele>443.0191</ele>
        <time>2026-09-02T12:02:47Z</time>
      </trkpt>
      <trkpt lat="48.40171" lon="7.41056">
        <ele>443.0191</ele>
        <time>2026-09-02T12:02:52Z</time>
      </trkpt>
      <trkpt lat="48.40172" lon="7.41049">
        <ele>443.0191</ele>
        <time>2026-09-02T12:02:57Z</time>
      </trkpt>
      <trkpt lat="48.40173" lon="7.41041">
        <ele>443.0191</ele>
        <time>2026-09-02T12:03:02Z</time>
      </trkpt>
      <trkpt lat="48.40175" lon="7.41033">
        <ele>443.0191</ele>
        <time>2026-09-02T12:03:08Z</time>
      </trkpt>
      <trkpt lat="48.40176" lon="7.41026">
        <ele>443.0191</ele>
        <time>2026-09-02T12:03:12Z</time>
      </trkpt>
      <trkpt lat="48.40179" lon="7.41018">
        <ele>443.0191</ele>
        <time>2026-09-02T12:03:17Z</time>
      </trkpt>
      <trkpt lat="48.40182" lon="7.41011">
        <ele>443.0191</ele>
        <time>2026-09-02T12:03:23Z</time>
      </trkpt>
      <trkpt lat="48.40184" lon="7.41005">
        <ele>440.97058</ele>
        <time>2026-09-02T12:03:30Z</time>
      </trkpt>
      <trkpt lat="48.40187" lon="7.40998">
        <ele>438.92206</ele>
        <time>2026-09-02T12:03:36Z</time>
      </trkpt>
      <trkpt lat="48.4019" lon="7.40991">
        <ele>436.8735</ele>
        <time>2026-09-02T12:03:40Z</time>
      </trkpt>
      <trkpt lat="48.40193" lon="7.40984">
        <ele>434.82498</ele>
        <time>2026-09-02T12:03:43Z</time>
      </trkpt>
      <trkpt lat="48.40196" lon="7.4098">
        <ele>432.77646</ele>
        <time>2026-09-02T12:03:46Z</time>
      </trkpt>
      <trkpt lat="48.402" lon="7.40974">
        <ele>432.77646</ele>
        <time>2026-09-02T12:03:50Z</time>
      </trkpt>
      <trkpt lat="48.40204" lon="7.40969">
        <ele>432.77646</ele>
        <time>2026-09-02T12:03:55Z</time>
      </trkpt>
      <trkpt lat="48.40208" lon="7.40964">
        <ele>432.77646</ele>
        <time>2026-09-02T12:03:59Z</time>
      </trkpt>
      <trkpt lat="48.40212" lon="7.40958">
        <ele>432.77646</ele>
        <time>2026-09-02T12:04:03Z</time>
      </trkpt>
      <trkpt lat="48.40216" lon="7.40952">
        <ele>432.77646</ele>
        <time>2026-09-02T12:04:07Z</time>
      </trkpt>
      <trkpt lat="48.4022" lon="7.40947">
        <ele>432.77646</ele>
        <time>2026-09-02T12:04:12Z</time>
      </trkpt>
      <trkpt lat="48.40223" lon="7.40942">
        <ele>432.77646</ele>
        <time>2026-09-02T12:04:17Z</time>
      </trkpt>
      <trkpt lat="48.40228" lon="7.40938">
        <ele>432.77646</ele>
        <time>2026-09-02T12:04:22Z</time>
      </trkpt>
      <trkpt lat="48.40233" lon="7.40935">
        <ele>432.77646</ele>
        <time>2026-09-02T12:04:27Z</time>
      </trkpt>
      <trkpt lat="48.40238" lon="7.40933">
        <ele>432.77646</ele>
        <time>2026-09-02T12:04:32Z</time>
      </trkpt>
      <trkpt lat="48.40243" lon="7.40932">
        <ele>432.77646</ele>
        <time>2026-09-02T12:04:37Z</time>
      </trkpt>
      <trkpt lat="48.40248" lon="7.40929">
        <ele>432.77646</ele>
        <time>2026-09-02T12:04:42Z</time>
      </trkpt>
      <trkpt lat="48.40253" lon="7.40927">
        <ele>432.77646</ele>
        <time>2026-09-02T12:04:47Z</time>
      </trkpt>
      <trkpt lat="48.40258" lon="7.40924">
        <ele>432.77646</ele>
        <time>2026-09-02T12:04:54Z</time>
      </trkpt>
      <trkpt lat="48.40262" lon="7.4092">
        <ele>432.77646</ele>
        <time>2026-09-02T12:04:58Z</time>
      </trkpt>
      <trkpt lat="48.40266" lon="7.40913">
        <ele>432.77646</ele>
        <time>2026-09-02T12:05:03Z</time>
      </trkpt>
      <trkpt lat="48.4027" lon="7.40906">
        <ele>432.77646</ele>
        <time>2026-09-02T12:05:09Z</time>
      </trkpt>
      <trkpt lat="48.40273" lon="7.40901">
        <ele>432.77646</ele>
        <time>2026-09-02T12:05:13Z</time>
      </trkpt>
      <trkpt lat="48.40276" lon="7.40894">
        <ele>432.77646</ele>
        <time>2026-09-02T12:05:18Z</time>
      </trkpt>
      <trkpt lat="48.40279" lon="7.40888">
        <ele>432.77646</ele>
        <time>2026-09-02T12:05:22Z</time>
      </trkpt>
      <trkpt lat="48.40281" lon="7.40881">
        <ele>432.77646</ele>
        <time>2026-09-02T12:05:28Z</time>
      </trkpt>
      <trkpt lat="48.40283" lon="7.40874">
        <ele>432.77646</ele>
        <time>2026-09-02T12:05:34Z</time>
      </trkpt>
      <trkpt lat="48.40286" lon="7.40868">
        <ele>432.77646</ele>
        <time>2026-09-02T12:05:41Z</time>
      </trkpt>
      <trkpt lat="48.40288" lon="7.40862">
        <ele>432.77646</ele>
        <time>2026-09-02T12:05:47Z</time>
      </trkpt>
      <trkpt lat="48.4029" lon="7.40855">
        <ele>432.77646</ele>
        <time>2026-09-02T12:05:53Z</time>
      </trkpt>
      <trkpt lat="48.40292" lon="7.40848">
        <ele>432.77646</ele>
        <time>2026-09-02T12:05:58Z</time>
      </trkpt>
      <trkpt lat="48.40294" lon="7.4084">
        <ele>432.77646</ele>
        <time>2026-09-02T12:06:03Z</time>
      </trkpt>
      <trkpt lat="48.40295" lon="7.40833">
        <ele>432.77646</ele>
        <time>2026-09-02T12:06:08Z</time>
      </trkpt>
      <trkpt lat="48.40297" lon="7.40825">
        <ele>432.77646</ele>
        <time>2026-09-02T12:06:13Z</time>
      </trkpt>
      <trkpt lat="48.40298" lon="7.40817">
        <ele>432.77646</ele>
        <time>2026-09-02T12:06:19Z</time>
      </trkpt>
      <trkpt lat="48.403" lon="7.4081">
        <ele>432.77646</ele>
        <time>2026-09-02T12:06:24Z</time>
      </trkpt>
      <trkpt lat="48.40301" lon="7.40804">
        <ele>432.77646</ele>
        <time>2026-09-02T12:06:29Z</time>
      </trkpt>
      <trkpt lat="48.40302" lon="7.40796">
        <ele>432.77646</ele>
        <time>2026-09-02T12:06:34Z</time>
      </trkpt>
      <trkpt lat="48.40304" lon="7.40789">
        <ele>432.77646</ele>
        <time>2026-09-02T12:06:38Z</time>
      </trkpt>
      <trkpt lat="48.40305" lon="7.40781">
        <ele>432.77646</ele>
        <time>2026-09-02T12:06:43Z</time>
      </trkpt>
      <trkpt lat="48.40307" lon="7.40774">
        <ele>432.77646</ele>
        <time>2026-09-02T12:06:48Z</time>
      </trkpt>
      <trkpt lat="48.40307" lon="7.40766">
        <ele>432.77646</ele>
        <time>2026-09-02T12:06:52Z</time>
      </trkpt>
      <trkpt lat="48.40307" lon="7.40758">
        <ele>432.77646</ele>
        <time>2026-09-02T12:06:56Z</time>
      </trkpt>
      <trkpt lat="48.40308" lon="7.4075">
        <ele>432.77646</ele>
        <time>2026-09-02T12:07:01Z</time>
      </trkpt>
      <trkpt lat="48.40308" lon="7.40743">
        <ele>432.77646</ele>
        <time>2026-09-02T12:07:05Z</time>
      </trkpt>
      <trkpt lat="48.40309" lon="7.40735">
        <ele>432.77646</ele>
        <time>2026-09-02T12:07:10Z</time>
      </trkpt>
      <trkpt lat="48.4031" lon="7.40727">
        <ele>432.77646</ele>
        <time>2026-09-02T12:07:15Z</time>
      </trkpt>
      <trkpt lat="48.40311" lon="7.4072">
        <ele>432.77646</ele>
        <time>2026-09-02T12:07:18Z</time>
      </trkpt>
      <trkpt lat="48.40312" lon="7.40714">
        <ele>432.77646</ele>
        <time>2026-09-02T12:07:22Z</time>
      </trkpt>
      <trkpt lat="48.40313" lon="7.40706">
        <ele>434.88354</ele>
        <time>2026-09-02T12:07:26Z</time>
      </trkpt>
      <trkpt lat="48.40314" lon="7.40699">
        <ele>436.99063</ele>
        <time>2026-09-02T12:07:30Z</time>
      </trkpt>
      <trkpt lat="48.40316" lon="7.40692">
        <ele>439.0977</ele>
        <time>2026-09-02T12:07:34Z</time>
      </trkpt>
      <trkpt lat="48.40317" lon="7.40686">
        <ele>441.20477</ele>
        <time>2026-09-02T12:07:38Z</time>
      </trkpt>
      <trkpt lat="48.40319" lon="7.40679">
        <ele>443.31186</ele>
        <time>2026-09-02T12:07:44Z</time>
      </trkpt>
      <trkpt lat="48.40321" lon="7.40672">
        <ele>443.31186</ele>
        <time>2026-09-02T12:07:49Z</time>
      </trkpt>
      <trkpt lat="48.40323" lon="7.40665">
        <ele>443.31186</ele>
        <time>2026-09-02T12:07:54Z</time>
      </trkpt>
      <trkpt lat="48.40325" lon="7.40658">
        <ele>443.31186</ele>
        <time>2026-09-02T12:07:59Z</time>
      </trkpt>
      <trkpt lat="48.40327" lon="7.40651">
        <ele>443.31186</ele>
        <time>2026-09-02T12:08:04Z</time>
      </trkpt>
      <trkpt lat="48.4033" lon="7.40645">
        <ele>443.31186</ele>
        <time>2026-09-02T12:08:08Z</time>
      </trkpt>
      <trkpt lat="48.40332" lon="7.40638">
        <ele>443.31186</ele>
        <time>2026-09-02T12:08:14Z</time>
      </trkpt>
      <trkpt lat="48.40335" lon="7.40632">
        <ele>443.31186</ele>
        <time>2026-09-02T12:08:19Z</time>
      </trkpt>
      <trkpt lat="48.40337" lon="7.40625">
        <ele>443.31186</ele>
        <time>2026-09-02T12:08:23Z</time>
      </trkpt>
      <trkpt lat="48.4034" lon="7.40619">
        <ele>443.31186</ele>
        <time>2026-09-02T12:08:27Z</time>
      </trkpt>
      <trkpt lat="48.40344" lon="7.40612">
        <ele>443.31186</ele>
        <time>2026-09-02T12:08:32Z</time>
      </trkpt>
      <trkpt lat="48.40347" lon="7.40606">
        <ele>443.31186</ele>
        <time>2026-09-02T12:08:38Z</time>
      </trkpt>
      <trkpt lat="48.4035" lon="7.40601">
        <ele>443.31186</ele>
        <time>2026-09-02T12:08:42Z</time>
      </trkpt>
      <trkpt lat="48.40353" lon="7.40596">
        <ele>443.31186</ele>
        <time>2026-09-02T12:08:46Z</time>
      </trkpt>
      <trkpt lat="48.40356" lon="7.40591">
        <ele>443.31186</ele>
        <time>2026-09-02T12:08:50Z</time>
      </trkpt>
      <trkpt lat="48.40361" lon="7.40587">
        <ele>443.31186</ele>
        <time>2026-09-02T12:08:56Z</time>
      </trkpt>
      <trkpt lat="48.40365" lon="7.40583">
        <ele>443.31186</ele>
        <time>2026-09-02T12:09:02Z</time>
      </trkpt>
      <trkpt lat="48.4037" lon="7.40579">
        <ele>443.31186</ele>
        <time>2026-09-02T12:09:07Z</time>
      </trkpt>
      <trkpt lat="48.40374" lon="7.40576">
        <ele>443.31186</ele>
        <time>2026-09-02T12:09:12Z</time>
      </trkpt>
      <trkpt lat="48.40379" lon="7.40573">
        <ele>443.31186</ele>
        <time>2026-09-02T12:09:17Z</time>
      </trkpt>
      <trkpt lat="48.40383" lon="7.4057">
        <ele>443.31186</ele>
        <time>2026-09-02T12:09:22Z</time>
      </trkpt>
      <trkpt lat="48.40387" lon="7.40567">
        <ele>443.31186</ele>
        <time>2026-09-02T12:09:26Z</time>
      </trkpt>
      <trkpt lat="48.40392" lon="7.40564">
        <ele>443.31186</ele>
        <time>2026-09-02T12:09:32Z</time>
      </trkpt>
      <trkpt lat="48.40397" lon="7.40561">
        <ele>443.31186</ele>
        <time>2026-09-02T12:09:38Z</time>
      </trkpt>
      <trkpt lat="48.40401" lon="7.40559">
        <ele>443.31186</ele>
        <time>2026-09-02T12:09:44Z</time>
      </trkpt>
      <trkpt lat="48.40406" lon="7.40556">
        <ele>443.31186</ele>
        <time>2026-09-02T12:09:48Z</time>
      </trkpt>
      <trkpt lat="48.40411" lon="7.40553">
        <ele>443.31186</ele>
        <time>2026-09-02T12:09:53Z</time>
      </trkpt>
      <trkpt lat="48.40415" lon="7.40551">
        <ele>443.31186</ele>
        <time>2026-09-02T12:09:58Z</time>
      </trkpt>
      <trkpt lat="48.4042" lon="7.40549">
        <ele>445.51108</ele>
        <time>2026-09-02T12:10:04Z</time>
      </trkpt>
      <trkpt lat="48.40425" lon="7.40547">
        <ele>447.7103</ele>
        <time>2026-09-02T12:10:11Z</time>
      </trkpt>
      <trkpt lat="48.4043" lon="7.40545">
        <ele>449.90952</ele>
        <time>2026-09-02T12:10:17Z</time>
      </trkpt>
      <trkpt lat="48.40435" lon="7.40543">
        <ele>452.10873</ele>
        <time>2026-09-02T12:10:23Z</time>
      </trkpt>
      <trkpt lat="48.4044" lon="7.40542">
        <ele>454.30795</ele>
        <time>2026-09-02T12:10:29Z</time>
      </trkpt>
      <trkpt lat="48.40445" lon="7.40541">
        <ele>454.30795</ele>
        <time>2026-09-02T12:10:36Z</time>
      </trkpt>
      <trkpt lat="48.40447" lon="7.40535">
        <ele>454.30795</ele>
        <time>2026-09-02T12:10:41Z</time>
      </trkpt>
      <trkpt lat="48.40448" lon="7.40527">
        <ele>454.30795</ele>
        <time>2026-09-02T12:10:44Z</time>
      </trkpt>
      <trkpt lat="48.40448" lon="7.4052">
        <ele>454.30795</ele>
        <time>2026-09-02T12:10:46Z</time>
      </trkpt>
      <trkpt lat="48.40448" lon="7.40513">
        <ele>454.30795</ele>
        <time>2026-09-02T12:10:48Z</time>
      </trkpt>
      <trkpt lat="48.40448" lon="7.40504">
        <ele>454.30795</ele>
        <time>2026-09-02T12:10:53Z</time>
      </trkpt>
      <trkpt lat="48.40448" lon="7.40497">
        <ele>454.30795</ele>
        <time>2026-09-02T12:10:58Z</time>
      </trkpt>
      <trkpt lat="48.4045" lon="7.40491">
        <ele>454.30795</ele>
        <time>2026-09-02T12:11:04Z</time>
      </trkpt>
      <trkpt lat="48.40453" lon="7.40484">
        <ele>454.30795</ele>
        <time>2026-09-02T12:11:09Z</time>
      </trkpt>
      <trkpt lat="48.40455" lon="7.40477">
        <ele>456.40555</ele>
        <time>2026-09-02T12:11:16Z</time>
      </trkpt>
      <trkpt lat="48.40456" lon="7.4047">
        <ele>458.50317</ele>
        <time>2026-09-02T12:11:21Z</time>
      </trkpt>
      <trkpt lat="48.40457" lon="7.40463">
        <ele>460.60077</ele>
        <time>2026-09-02T12:11:26Z</time>
      </trkpt>
      <trkpt lat="48.40458" lon="7.40456">
        <ele>462.6984</ele>
        <time>2026-09-02T12:11:32Z</time>
      </trkpt>
      <trkpt lat="48.40458" lon="7.40447">
        <ele>464.796</ele>
        <time>2026-09-02T12:11:37Z</time>
      </trkpt>
      <trkpt lat="48.40456" lon="7.40439">
        <ele>464.796</ele>
        <time>2026-09-02T12:11:42Z</time>
      </trkpt>
      <trkpt lat="48.40454" lon="7.40433">
        <ele>464.796</ele>
        <time>2026-09-02T12:11:47Z</time>
      </trkpt>
      <trkpt lat="48.4045" lon="7.40427">
        <ele>464.796</ele>
        <time>2026-09-02T12:11:53Z</time>
      </trkpt>
      <trkpt lat="48.40447" lon="7.40423">
        <ele>464.796</ele>
        <time>2026-09-02T12:12:00Z</time>
      </trkpt>
      <trkpt lat="48.40442" lon="7.40419">
        <ele>464.796</ele>
        <time>2026-09-02T12:12:07Z</time>
      </trkpt>
      <trkpt lat="48.40438" lon="7.40415">
        <ele>466.86108</ele>
        <time>2026-09-02T12:12:13Z</time>
      </trkpt>
      <trkpt lat="48.40435" lon="7.40409">
        <ele>468.9262</ele>
        <time>2026-09-02T12:12:17Z</time>
      </trkpt>
      <trkpt lat="48.40429" lon="7.40406">
        <ele>470.9913</ele>
        <time>2026-09-02T12:12:21Z</time>
      </trkpt>
      <trkpt lat="48.40426" lon="7.40399">
        <ele>473.05643</ele>
        <time>2026-09-02T12:12:24Z</time>
      </trkpt>
      <trkpt lat="48.40424" lon="7.40392">
        <ele>475.12152</ele>
        <time>2026-09-02T12:12:29Z</time>
      </trkpt>
      <trkpt lat="48.40422" lon="7.40384">
        <ele>475.12152</ele>
        <time>2026-09-02T12:12:34Z</time>
      </trkpt>
      <trkpt lat="48.4042" lon="7.40378">
        <ele>475.12152</ele>
        <time>2026-09-02T12:12:39Z</time>
      </trkpt>
      <trkpt lat="48.40418" lon="7.40372">
        <ele>475.12152</ele>
        <time>2026-09-02T12:12:45Z</time>
      </trkpt>
      <trkpt lat="48.40416" lon="7.40365">
        <ele>475.12152</ele>
        <time>2026-09-02T12:12:50Z</time>
      </trkpt>
      <trkpt lat="48.40417" lon="7.40356">
        <ele>475.12152</ele>
        <time>2026-09-02T12:12:53Z</time>
      </trkpt>
      <trkpt lat="48.40418" lon="7.40348">
        <ele>475.12152</ele>
        <time>2026-09-02T12:13:00Z</time>
      </trkpt>
      <trkpt lat="48.40419" lon="7.4034">
        <ele>475.12152</ele>
        <time>2026-09-02T12:13:07Z</time>
      </trkpt>
      <trkpt lat="48.40421" lon="7.40333">
        <ele>475.12152</ele>
        <time>2026-09-02T12:13:11Z</time>
      </trkpt>
      <trkpt lat="48.40422" lon="7.40326">
        <ele>475.12152</ele>
        <time>2026-09-02T12:13:16Z</time>
      </trkpt>
      <trkpt lat="48.40425" lon="7.4032">
        <ele>475.12152</ele>
        <time>2026-09-02T12:13:21Z</time>
      </trkpt>
      <trkpt lat="48.40429" lon="7.40314">
        <ele>475.12152</ele>
        <time>2026-09-02T12:13:28Z</time>
      </trkpt>
      <trkpt lat="48.40432" lon="7.40309">
        <ele>475.12152</ele>
        <time>2026-09-02T12:13:32Z</time>
      </trkpt>
      <trkpt lat="48.40436" lon="7.40305">
        <ele>475.12152</ele>
        <time>2026-09-02T12:13:38Z</time>
      </trkpt>
      <trkpt lat="48.4044" lon="7.40302">
        <ele>475.12152</ele>
        <time>2026-09-02T12:13:44Z</time>
      </trkpt>
      <trkpt lat="48.40445" lon="7.40297">
        <ele>475.12152</ele>
        <time>2026-09-02T12:13:50Z</time>
      </trkpt>
      <trkpt lat="48.40449" lon="7.40294">
        <ele>475.12152</ele>
        <time>2026-09-02T12:13:54Z</time>
      </trkpt>
      <trkpt lat="48.40453" lon="7.40289">
        <ele>475.12152</ele>
        <time>2026-09-02T12:14:00Z</time>
      </trkpt>
      <trkpt lat="48.40456" lon="7.40285">
        <ele>475.12152</ele>
        <time>2026-09-02T12:14:05Z</time>
      </trkpt>
      <trkpt lat="48.40461" lon="7.40279">
        <ele>475.12152</ele>
        <time>2026-09-02T12:14:11Z</time>
      </trkpt>
      <trkpt lat="48.40465" lon="7.40273">
        <ele>475.12152</ele>
        <time>2026-09-02T12:14:16Z</time>
      </trkpt>
      <trkpt lat="48.40469" lon="7.40268">
        <ele>475.12152</ele>
        <time>2026-09-02T12:14:20Z</time>
      </trkpt>
      <trkpt lat="48.40472" lon="7.40262">
        <ele>475.12152</ele>
        <time>2026-09-02T12:14:25Z</time>
      </trkpt>
      <trkpt lat="48.40475" lon="7.40256">
        <ele>475.12152</ele>
        <time>2026-09-02T12:14:30Z</time>
      </trkpt>
      <trkpt lat="48.40478" lon="7.40251">
        <ele>475.12152</ele>
        <time>2026-09-02T12:14:34Z</time>
      </trkpt>
      <trkpt lat="48.40481" lon="7.40244">
        <ele>475.12152</ele>
        <time>2026-09-02T12:14:40Z</time>
      </trkpt>
      <trkpt lat="48.40484" lon="7.40238">
        <ele>475.12152</ele>
        <time>2026-09-02T12:14:46Z</time>
      </trkpt>
      <trkpt lat="48.40486" lon="7.40232">
        <ele>475.12152</ele>
        <time>2026-09-02T12:14:51Z</time>
      </trkpt>
      <trkpt lat="48.40489" lon="7.40224">
        <ele>475.12152</ele>
        <time>2026-09-02T12:14:56Z</time>
      </trkpt>
      <trkpt lat="48.40492" lon="7.40218">
        <ele>475.12152</ele>
        <time>2026-09-02T12:15:00Z</time>
      </trkpt>
      <trkpt lat="48.40495" lon="7.40211">
        <ele>475.12152</ele>
        <time>2026-09-02T12:15:05Z</time>
      </trkpt>
      <trkpt lat="48.40498" lon="7.40205">
        <ele>475.12152</ele>
        <time>2026-09-02T12:15:10Z</time>
      </trkpt>
      <trkpt lat="48.40501" lon="7.40199">
        <ele>475.12152</ele>
        <time>2026-09-02T12:15:14Z</time>
      </trkpt>
      <trkpt lat="48.40504" lon="7.40193">
        <ele>475.12152</ele>
        <time>2026-09-02T12:15:18Z</time>
      </trkpt>
      <trkpt lat="48.40506" lon="7.40187">
        <ele>475.12152</ele>
        <time>2026-09-02T12:15:23Z</time>
      </trkpt>
      <trkpt lat="48.40509" lon="7.40181">
        <ele>475.12152</ele>
        <time>2026-09-02T12:15:27Z</time>
      </trkpt>
      <trkpt lat="48.40512" lon="7.40174">
        <ele>475.12152</ele>
        <time>2026-09-02T12:15:32Z</time>
      </trkpt>
      <trkpt lat="48.40514" lon="7.40168">
        <ele>475.12152</ele>
        <time>2026-09-02T12:15:37Z</time>
      </trkpt>
      <trkpt lat="48.40517" lon="7.40161">
        <ele>475.12152</ele>
        <time>2026-09-02T12:15:42Z</time>
      </trkpt>
      <trkpt lat="48.40519" lon="7.40155">
        <ele>475.12152</ele>
        <time>2026-09-02T12:15:47Z</time>
      </trkpt>
      <trkpt lat="48.40521" lon="7.40148">
        <ele>475.12152</ele>
        <time>2026-09-02T12:15:51Z</time>
      </trkpt>
      <trkpt lat="48.40523" lon="7.40141">
        <ele>475.12152</ele>
        <time>2026-09-02T12:15:56Z</time>
      </trkpt>
      <trkpt lat="48.40525" lon="7.40133">
        <ele>475.12152</ele>
        <time>2026-09-02T12:16:01Z</time>
      </trkpt>
      <trkpt lat="48.40526" lon="7.40127">
        <ele>475.12152</ele>
        <time>2026-09-02T12:16:05Z</time>
      </trkpt>
      <trkpt lat="48.40528" lon="7.4012">
        <ele>475.12152</ele>
        <time>2026-09-02T12:16:10Z</time>
      </trkpt>
      <trkpt lat="48.40529" lon="7.40113">
        <ele>475.12152</ele>
        <time>2026-09-02T12:16:15Z</time>
      </trkpt>
      <trkpt lat="48.4053" lon="7.40105">
        <ele>475.12152</ele>
        <time>2026-09-02T12:16:20Z</time>
      </trkpt>
      <trkpt lat="48.40531" lon="7.40099">
        <ele>475.12152</ele>
        <time>2026-09-02T12:16:24Z</time>
      </trkpt>
      <trkpt lat="48.40532" lon="7.40091">
        <ele>475.12152</ele>
        <time>2026-09-02T12:16:29Z</time>
      </trkpt>
      <trkpt lat="48.40533" lon="7.40083">
        <ele>475.12152</ele>
        <time>2026-09-02T12:16:34Z</time>
      </trkpt>
      <trkpt lat="48.40533" lon="7.40076">
        <ele>477.1784</ele>
        <time>2026-09-02T12:16:39Z</time>
      </trkpt>
      <trkpt lat="48.40534" lon="7.40069">
        <ele>479.23526</ele>
        <time>2026-09-02T12:16:43Z</time>
      </trkpt>
      <trkpt lat="48.40534" lon="7.40062">
        <ele>481.29214</ele>
        <time>2026-09-02T12:16:47Z</time>
      </trkpt>
      <trkpt lat="48.40534" lon="7.40055">
        <ele>483.349</ele>
        <time>2026-09-02T12:16:52Z</time>
      </trkpt>
      <trkpt lat="48.40535" lon="7.40046">
        <ele>485.40588</ele>
        <time>2026-09-02T12:16:58Z</time>
      </trkpt>
      <trkpt lat="48.40535" lon="7.40038">
        <ele>485.40588</ele>
        <time>2026-09-02T12:17:03Z</time>
      </trkpt>
      <trkpt lat="48.40535" lon="7.4003">
        <ele>485.40588</ele>
        <time>2026-09-02T12:17:09Z</time>
      </trkpt>
      <trkpt lat="48.40536" lon="7.40023">
        <ele>485.40588</ele>
        <time>2026-09-02T12:17:15Z</time>
      </trkpt>
      <trkpt lat="48.40536" lon="7.40016">
        <ele>485.40588</ele>
        <time>2026-09-02T12:17:21Z</time>
      </trkpt>
      <trkpt lat="48.40536" lon="7.40007">
        <ele>485.40588</ele>
        <time>2026-09-02T12:17:27Z</time>
      </trkpt>
      <trkpt lat="48.40536" lon="7.39999">
        <ele>485.40588</ele>
        <time>2026-09-02T12:17:32Z</time>
      </trkpt>
      <trkpt lat="48.40536" lon="7.39992">
        <ele>485.40588</ele>
        <time>2026-09-02T12:17:36Z</time>
      </trkpt>
      <trkpt lat="48.40536" lon="7.39984">
        <ele>485.40588</ele>
        <time>2026-09-02T12:17:41Z</time>
      </trkpt>
      <trkpt lat="48.40536" lon="7.39976">
        <ele>485.40588</ele>
        <time>2026-09-02T12:17:46Z</time>
      </trkpt>
      <trkpt lat="48.40536" lon="7.39969">
        <ele>485.40588</ele>
        <time>2026-09-02T12:17:50Z</time>
      </trkpt>
      <trkpt lat="48.40536" lon="7.39962">
        <ele>485.40588</ele>
        <time>2026-09-02T12:17:55Z</time>
      </trkpt>
      <trkpt lat="48.40537" lon="7.39955">
        <ele>485.40588</ele>
        <time>2026-09-02T12:17:59Z</time>
      </trkpt>
      <trkpt lat="48.40537" lon="7.39947">
        <ele>485.40588</ele>
        <time>2026-09-02T12:18:04Z</time>
      </trkpt>
      <trkpt lat="48.40537" lon="7.3994">
        <ele>485.40588</ele>
        <time>2026-09-02T12:18:08Z</time>
      </trkpt>
      <trkpt lat="48.40538" lon="7.39933">
        <ele>485.40588</ele>
        <time>2026-09-02T12:18:12Z</time>
      </trkpt>
      <trkpt lat="48.40538" lon="7.39926">
        <ele>485.40588</ele>
        <time>2026-09-02T12:18:17Z</time>
      </trkpt>
      <trkpt lat="48.4054" lon="7.39917">
        <ele>485.40588</ele>
        <time>2026-09-02T12:18:39Z</time>
      </trkpt>
      <trkpt lat="48.40542" lon="7.3991">
        <ele>485.40588</ele>
        <time>2026-09-02T12:18:45Z</time>
      </trkpt>
      <trkpt lat="48.40543" lon="7.39904">
        <ele>485.40588</ele>
        <time>2026-09-02T12:18:50Z</time>
      </trkpt>
      <trkpt lat="48.40545" lon="7.39897">
        <ele>485.40588</ele>
        <time>2026-09-02T12:18:55Z</time>
      </trkpt>
      <trkpt lat="48.40548" lon="7.39892">
        <ele>485.40588</ele>
        <time>2026-09-02T12:18:59Z</time>
      </trkpt>
      <trkpt lat="48.4055" lon="7.39885">
        <ele>485.40588</ele>
        <time>2026-09-02T12:19:04Z</time>
      </trkpt>
      <trkpt lat="48.40551" lon="7.39879">
        <ele>485.40588</ele>
        <time>2026-09-02T12:19:09Z</time>
      </trkpt>
      <trkpt lat="48.40553" lon="7.39872">
        <ele>485.40588</ele>
        <time>2026-09-02T12:19:14Z</time>
      </trkpt>
      <trkpt lat="48.40554" lon="7.39864">
        <ele>485.40588</ele>
        <time>2026-09-02T12:19:20Z</time>
      </trkpt>
      <trkpt lat="48.40556" lon="7.39857">
        <ele>485.40588</ele>
        <time>2026-09-02T12:19:25Z</time>
      </trkpt>
      <trkpt lat="48.40558" lon="7.3985">
        <ele>485.40588</ele>
        <time>2026-09-02T12:19:30Z</time>
      </trkpt>
      <trkpt lat="48.40558" lon="7.39843">
        <ele>485.40588</ele>
        <time>2026-09-02T12:19:35Z</time>
      </trkpt>
      <trkpt lat="48.40557" lon="7.39836">
        <ele>485.40588</ele>
        <time>2026-09-02T12:19:41Z</time>
      </trkpt>
      <trkpt lat="48.40551" lon="7.39835">
        <ele>485.40588</ele>
        <time>2026-09-02T12:19:55Z</time>
      </trkpt>
      <trkpt lat="48.40547" lon="7.3983">
        <ele>485.40588</ele>
        <time>2026-09-02T12:19:58Z</time>
      </trkpt>
      <trkpt lat="48.40543" lon="7.39826">
        <ele>485.40588</ele>
        <time>2026-09-02T12:19:59Z</time>
      </trkpt>
      <trkpt lat="48.40537" lon="7.39824">
        <ele>485.40588</ele>
        <time>2026-09-02T12:20:04Z</time>
      </trkpt>
      <trkpt lat="48.40533" lon="7.3982">
        <ele>485.40588</ele>
        <time>2026-09-02T12:20:15Z</time>
      </trkpt>
      <trkpt lat="48.40529" lon="7.39816">
        <ele>485.40588</ele>
        <time>2026-09-02T12:20:19Z</time>
      </trkpt>
      <trkpt lat="48.40525" lon="7.39813">
        <ele>485.40588</ele>
        <time>2026-09-02T12:20:24Z</time>
      </trkpt>
      <trkpt lat="48.40521" lon="7.39808">
        <ele>485.40588</ele>
        <time>2026-09-02T12:20:29Z</time>
      </trkpt>
      <trkpt lat="48.40517" lon="7.39804">
        <ele>485.40588</ele>
        <time>2026-09-02T12:20:33Z</time>
      </trkpt>
      <trkpt lat="48.40513" lon="7.39799">
        <ele>487.5061</ele>
        <time>2026-09-02T12:20:37Z</time>
      </trkpt>
      <trkpt lat="48.40509" lon="7.39795">
        <ele>489.60632</ele>
        <time>2026-09-02T12:20:42Z</time>
      </trkpt>
      <trkpt lat="48.40506" lon="7.39791">
        <ele>491.7065</ele>
        <time>2026-09-02T12:20:48Z</time>
      </trkpt>
      <trkpt lat="48.40501" lon="7.39787">
        <ele>493.80673</ele>
        <time>2026-09-02T12:20:52Z</time>
      </trkpt>
      <trkpt lat="48.40497" lon="7.39783">
        <ele>495.90695</ele>
        <time>2026-09-02T12:20:56Z</time>
      </trkpt>
      <trkpt lat="48.40492" lon="7.3978">
        <ele>495.90695</ele>
        <time>2026-09-02T12:21:00Z</time>
      </trkpt>
      <trkpt lat="48.40488" lon="7.39775">
        <ele>495.90695</ele>
        <time>2026-09-02T12:21:04Z</time>
      </trkpt>
      <trkpt lat="48.40484" lon="7.39772">
        <ele>495.90695</ele>
        <time>2026-09-02T12:21:08Z</time>
      </trkpt>
      <trkpt lat="48.40479" lon="7.39768">
        <ele>495.90695</ele>
        <time>2026-09-02T12:21:13Z</time>
      </trkpt>
      <trkpt lat="48.40475" lon="7.39764">
        <ele>495.90695</ele>
        <time>2026-09-02T12:21:17Z</time>
      </trkpt>
      <trkpt lat="48.4047" lon="7.3976">
        <ele>495.90695</ele>
        <time>2026-09-02T12:21:22Z</time>
      </trkpt>
      <trkpt lat="48.40465" lon="7.39756">
        <ele>495.90695</ele>
        <time>2026-09-02T12:21:26Z</time>
      </trkpt>
      <trkpt lat="48.40461" lon="7.39751">
        <ele>495.90695</ele>
        <time>2026-09-02T12:21:31Z</time>
      </trkpt>
      <trkpt lat="48.40457" lon="7.39747">
        <ele>495.90695</ele>
        <time>2026-09-02T12:21:36Z</time>
      </trkpt>
      <trkpt lat="48.40453" lon="7.39743">
        <ele>495.90695</ele>
        <time>2026-09-02T12:21:40Z</time>
      </trkpt>
      <trkpt lat="48.40448" lon="7.39737">
        <ele>495.90695</ele>
        <time>2026-09-02T12:21:46Z</time>
      </trkpt>
      <trkpt lat="48.40444" lon="7.39733">
        <ele>495.90695</ele>
        <time>2026-09-02T12:21:50Z</time>
      </trkpt>
      <trkpt lat="48.40439" lon="7.3973">
        <ele>495.90695</ele>
        <time>2026-09-02T12:21:54Z</time>
      </trkpt>
      <trkpt lat="48.40435" lon="7.39726">
        <ele>495.90695</ele>
        <time>2026-09-02T12:21:58Z</time>
      </trkpt>
      <trkpt lat="48.40432" lon="7.39722">
        <ele>495.90695</ele>
        <time>2026-09-02T12:22:02Z</time>
      </trkpt>
      <trkpt lat="48.40428" lon="7.39716">
        <ele>495.90695</ele>
        <time>2026-09-02T12:22:06Z</time>
      </trkpt>
      <trkpt lat="48.40425" lon="7.39712">
        <ele>495.90695</ele>
        <time>2026-09-02T12:22:10Z</time>
      </trkpt>
      <trkpt lat="48.4042" lon="7.39708">
        <ele>495.90695</ele>
        <time>2026-09-02T12:22:14Z</time>
      </trkpt>
      <trkpt lat="48.40415" lon="7.39708">
        <ele>495.90695</ele>
        <time>2026-09-02T12:22:20Z</time>
      </trkpt>
      <trkpt lat="48.40411" lon="7.39704">
        <ele>495.90695</ele>
        <time>2026-09-02T12:22:25Z</time>
      </trkpt>
      <trkpt lat="48.40406" lon="7.39703">
        <ele>495.90695</ele>
        <time>2026-09-02T12:22:32Z</time>
      </trkpt>
      <trkpt lat="48.40402" lon="7.397">
        <ele>495.90695</ele>
        <time>2026-09-02T12:22:38Z</time>
      </trkpt>
      <trkpt lat="48.40398" lon="7.39694">
        <ele>495.90695</ele>
        <time>2026-09-02T12:22:44Z</time>
      </trkpt>
      <trkpt lat="48.40395" lon="7.39688">
        <ele>495.90695</ele>
        <time>2026-09-02T12:22:50Z</time>
      </trkpt>
      <trkpt lat="48.40392" lon="7.39681">
        <ele>495.90695</ele>
        <time>2026-09-02T12:22:59Z</time>
      </trkpt>
      <trkpt lat="48.40387" lon="7.39683">
        <ele>495.90695</ele>
        <time>2026-09-02T12:23:03Z</time>
      </trkpt>
      <trkpt lat="48.40381" lon="7.3968">
        <ele>493.73257</ele>
        <time>2026-09-02T12:23:06Z</time>
      </trkpt>
      <trkpt lat="48.40376" lon="7.39679">
        <ele>491.55817</ele>
        <time>2026-09-02T12:23:09Z</time>
      </trkpt>
      <trkpt lat="48.40372" lon="7.39674">
        <ele>489.3838</ele>
        <time>2026-09-02T12:23:12Z</time>
      </trkpt>
      <trkpt lat="48.40368" lon="7.3967">
        <ele>487.20938</ele>
        <time>2026-09-02T12:23:16Z</time>
      </trkpt>
      <trkpt lat="48.40363" lon="7.39669">
        <ele>485.035</ele>
        <time>2026-09-02T12:23:20Z</time>
      </trkpt>
      <trkpt lat="48.40358" lon="7.3967">
        <ele>485.035</ele>
        <time>2026-09-02T12:23:24Z</time>
      </trkpt>
      <trkpt lat="48.40353" lon="7.39671">
        <ele>485.035</ele>
        <time>2026-09-02T12:23:28Z</time>
      </trkpt>
      <trkpt lat="48.40348" lon="7.39671">
        <ele>485.035</ele>
        <time>2026-09-02T12:23:32Z</time>
      </trkpt>
      <trkpt lat="48.40343" lon="7.39673">
        <ele>485.035</ele>
        <time>2026-09-02T12:23:36Z</time>
      </trkpt>
      <trkpt lat="48.40339" lon="7.39674">
        <ele>485.035</ele>
        <time>2026-09-02T12:23:40Z</time>
      </trkpt>
      <trkpt lat="48.40334" lon="7.39676">
        <ele>485.035</ele>
        <time>2026-09-02T12:23:44Z</time>
      </trkpt>
      <trkpt lat="48.40328" lon="7.39678">
        <ele>485.035</ele>
        <time>2026-09-02T12:23:49Z</time>
      </trkpt>
      <trkpt lat="48.40324" lon="7.3968">
        <ele>485.035</ele>
        <time>2026-09-02T12:23:53Z</time>
      </trkpt>
      <trkpt lat="48.40319" lon="7.39682">
        <ele>485.035</ele>
        <time>2026-09-02T12:23:57Z</time>
      </trkpt>
      <trkpt lat="48.40314" lon="7.39685">
        <ele>485.035</ele>
        <time>2026-09-02T12:24:02Z</time>
      </trkpt>
      <trkpt lat="48.40309" lon="7.39688">
        <ele>485.035</ele>
        <time>2026-09-02T12:24:07Z</time>
      </trkpt>
      <trkpt lat="48.40304" lon="7.39691">
        <ele>485.035</ele>
        <time>2026-09-02T12:24:12Z</time>
      </trkpt>
      <trkpt lat="48.403" lon="7.39694">
        <ele>485.035</ele>
        <time>2026-09-02T12:24:17Z</time>
      </trkpt>
      <trkpt lat="48.40295" lon="7.39698">
        <ele>485.035</ele>
        <time>2026-09-02T12:24:22Z</time>
      </trkpt>
      <trkpt lat="48.40291" lon="7.39702">
        <ele>485.035</ele>
        <time>2026-09-02T12:24:28Z</time>
      </trkpt>
      <trkpt lat="48.40286" lon="7.39706">
        <ele>485.035</ele>
        <time>2026-09-02T12:24:33Z</time>
      </trkpt>
      <trkpt lat="48.40282" lon="7.3971">
        <ele>485.035</ele>
        <time>2026-09-02T12:24:38Z</time>
      </trkpt>
      <trkpt lat="48.40277" lon="7.39715">
        <ele>485.035</ele>
        <time>2026-09-02T12:24:43Z</time>
      </trkpt>
      <trkpt lat="48.40273" lon="7.39719">
        <ele>485.035</ele>
        <time>2026-09-02T12:24:48Z</time>
      </trkpt>
      <trkpt lat="48.4027" lon="7.39723">
        <ele>485.035</ele>
        <time>2026-09-02T12:24:53Z</time>
      </trkpt>
      <trkpt lat="48.40265" lon="7.39728">
        <ele>485.035</ele>
        <time>2026-09-02T12:24:58Z</time>
      </trkpt>
      <trkpt lat="48.40261" lon="7.39732">
        <ele>485.035</ele>
        <time>2026-09-02T12:25:03Z</time>
      </trkpt>
      <trkpt lat="48.40257" lon="7.39737">
        <ele>485.035</ele>
        <time>2026-09-02T12:25:09Z</time>
      </trkpt>
      <trkpt lat="48.40254" lon="7.39742">
        <ele>485.035</ele>
        <time>2026-09-02T12:25:13Z</time>
      </trkpt>
      <trkpt lat="48.4025" lon="7.39747">
        <ele>482.72006</ele>
        <time>2026-09-02T12:25:18Z</time>
      </trkpt>
      <trkpt lat="48.40246" lon="7.39752">
        <ele>480.40512</ele>
        <time>2026-09-02T12:25:23Z</time>
      </trkpt>
      <trkpt lat="48.40241" lon="7.39757">
        <ele>478.09018</ele>
        <time>2026-09-02T12:25:28Z</time>
      </trkpt>
      <trkpt lat="48.40238" lon="7.39761">
        <ele>475.77524</ele>
        <time>2026-09-02T12:25:32Z</time>
      </trkpt>
      <trkpt lat="48.40234" lon="7.39765">
        <ele>473.4603</ele>
        <time>2026-09-02T12:25:38Z</time>
      </trkpt>
      <trkpt lat="48.40229" lon="7.39768">
        <ele>473.4603</ele>
        <time>2026-09-02T12:25:44Z</time>
      </trkpt>
      <trkpt lat="48.40224" lon="7.3977">
        <ele>473.4603</ele>
        <time>2026-09-02T12:26:02Z</time>
      </trkpt>
      <trkpt lat="48.40219" lon="7.39771">
        <ele>473.4603</ele>
        <time>2026-09-02T12:26:22Z</time>
      </trkpt>
      <trkpt lat="48.40214" lon="7.39772">
        <ele>473.4603</ele>
        <time>2026-09-02T12:26:27Z</time>
      </trkpt>
      <trkpt lat="48.40209" lon="7.39771">
        <ele>473.4603</ele>
        <time>2026-09-02T12:26:31Z</time>
      </trkpt>
      <trkpt lat="48.40205" lon="7.3977">
        <ele>473.4603</ele>
        <time>2026-09-02T12:26:36Z</time>
      </trkpt>
      <trkpt lat="48.40199" lon="7.39768">
        <ele>473.4603</ele>
        <time>2026-09-02T12:26:43Z</time>
      </trkpt>
      <trkpt lat="48.40194" lon="7.39766">
        <ele>473.4603</ele>
        <time>2026-09-02T12:26:50Z</time>
      </trkpt>
      <trkpt lat="48.4019" lon="7.39764">
        <ele>473.4603</ele>
        <time>2026-09-02T12:26:56Z</time>
      </trkpt>
      <trkpt lat="48.40186" lon="7.39762">
        <ele>473.4603</ele>
        <time>2026-09-02T12:27:02Z</time>
      </trkpt>
      <trkpt lat="48.40182" lon="7.39758">
        <ele>473.4603</ele>
        <time>2026-09-02T12:27:08Z</time>
      </trkpt>
      <trkpt lat="48.40177" lon="7.3976">
        <ele>473.4603</ele>
        <time>2026-09-02T12:27:30Z</time>
      </trkpt>
      <trkpt lat="48.40173" lon="7.39766">
        <ele>473.4603</ele>
        <time>2026-09-02T12:27:36Z</time>
      </trkpt>
      <trkpt lat="48.40173" lon="7.39758">
        <ele>473.4603</ele>
        <time>2026-09-02T12:27:42Z</time>
      </trkpt>
      <trkpt lat="48.40174" lon="7.39751">
        <ele>473.4603</ele>
        <time>2026-09-02T12:27:47Z</time>
      </trkpt>
      <trkpt lat="48.4017" lon="7.39748">
        <ele>473.4603</ele>
        <time>2026-09-02T12:27:52Z</time>
      </trkpt>
      <trkpt lat="48.40168" lon="7.39741">
        <ele>473.4603</ele>
        <time>2026-09-02T12:27:58Z</time>
      </trkpt>
      <trkpt lat="48.40166" lon="7.39734">
        <ele>473.4603</ele>
        <time>2026-09-02T12:28:04Z</time>
      </trkpt>
      <trkpt lat="48.40162" lon="7.39731">
        <ele>473.4603</ele>
        <time>2026-09-02T12:28:11Z</time>
      </trkpt>
      <trkpt lat="48.40157" lon="7.3973">
        <ele>473.4603</ele>
        <time>2026-09-02T12:29:40Z</time>
      </trkpt>
      <trkpt lat="48.40162" lon="7.39732">
        <ele>473.4603</ele>
        <time>2026-09-02T12:33:24Z</time>
      </trkpt>
      <trkpt lat="48.40167" lon="7.3973">
        <ele>473.4603</ele>
        <time>2026-09-02T12:33:33Z</time>
      </trkpt>
      <trkpt lat="48.40171" lon="7.39734">
        <ele>473.4603</ele>
        <time>2026-09-02T12:33:42Z</time>
      </trkpt>
      <trkpt lat="48.40175" lon="7.39737">
        <ele>473.4603</ele>
        <time>2026-09-02T12:34:07Z</time>
      </trkpt>
      <trkpt lat="48.40179" lon="7.39741">
        <ele>473.4603</ele>
        <time>2026-09-02T12:34:17Z</time>
      </trkpt>
      <trkpt lat="48.40183" lon="7.39736">
        <ele>473.4603</ele>
        <time>2026-09-02T12:34:33Z</time>
      </trkpt>
      <trkpt lat="48.40183" lon="7.3973">
        <ele>473.4603</ele>
        <time>2026-09-02T12:38:37Z</time>
      </trkpt>
      <trkpt lat="48.40181" lon="7.39723">
        <ele>473.4603</ele>
        <time>2026-09-02T12:38:43Z</time>
      </trkpt>
      <trkpt lat="48.40182" lon="7.39716">
        <ele>473.4603</ele>
        <time>2026-09-02T12:39:47Z</time>
      </trkpt>
      <trkpt lat="48.40179" lon="7.39709">
        <ele>476.40613</ele>
        <time>2026-09-02T12:40:08Z</time>
      </trkpt>
      <trkpt lat="48.40181" lon="7.39716">
        <ele>479.35193</ele>
        <time>2026-09-02T12:40:23Z</time>
      </trkpt>
      <trkpt lat="48.40176" lon="7.39713">
        <ele>479.84235</ele>
        <time>2026-09-02T12:40:54Z</time>
      </trkpt>
      <trkpt lat="48.40182" lon="7.39726">
        <ele>480.33276</ele>
        <time>2026-09-02T12:41:02Z</time>
      </trkpt>
      <trkpt lat="48.4019" lon="7.39726">
        <ele>480.82318</ele>
        <time>2026-09-02T12:41:12Z</time>
      </trkpt>
      <trkpt lat="48.40197" lon="7.39725">
        <ele>478.3678</ele>
        <time>2026-09-02T12:41:21Z</time>
      </trkpt>
      <trkpt lat="48.40202" lon="7.39723">
        <ele>475.91238</ele>
        <time>2026-09-02T12:41:23Z</time>
      </trkpt>
      <trkpt lat="48.40199" lon="7.39717">
        <ele>475.91238</ele>
        <time>2026-09-02T12:41:33Z</time>
      </trkpt>
      <trkpt lat="48.40203" lon="7.39709">
        <ele>475.91238</ele>
        <time>2026-09-02T12:42:10Z</time>
      </trkpt>
      <trkpt lat="48.40199" lon="7.39714">
        <ele>475.91238</ele>
        <time>2026-09-02T12:42:34Z</time>
      </trkpt>
      <trkpt lat="48.40194" lon="7.39714">
        <ele>475.91238</ele>
        <time>2026-09-02T12:42:39Z</time>
      </trkpt>
      <trkpt lat="48.40197" lon="7.39709">
        <ele>475.91238</ele>
        <time>2026-09-02T12:42:53Z</time>
      </trkpt>
      <trkpt lat="48.40202" lon="7.39704">
        <ele>475.91238</ele>
        <time>2026-09-02T12:43:10Z</time>
      </trkpt>
      <trkpt lat="48.40197" lon="7.39705">
        <ele>475.91238</ele>
        <time>2026-09-02T12:43:16Z</time>
      </trkpt>
      <trkpt lat="48.40192" lon="7.39713">
        <ele>475.91238</ele>
        <time>2026-09-02T12:43:21Z</time>
      </trkpt>
      <trkpt lat="48.40188" lon="7.39717">
        <ele>475.91238</ele>
        <time>2026-09-02T12:43:23Z</time>
      </trkpt>
      <trkpt lat="48.40186" lon="7.3971">
        <ele>475.91238</ele>
        <time>2026-09-02T12:43:26Z</time>
      </trkpt>
      <trkpt lat="48.40198" lon="7.39721">
        <ele>475.91238</ele>
        <time>2026-09-02T12:43:27Z</time>
      </trkpt>
      <trkpt lat="48.40188" lon="7.39721">
        <ele>475.91238</ele>
        <time>2026-09-02T12:43:29Z</time>
      </trkpt>
      <trkpt lat="48.40186" lon="7.39728">
        <ele>475.91238</ele>
        <time>2026-09-02T12:43:30Z</time>
      </trkpt>
      <trkpt lat="48.40184" lon="7.39737">
        <ele>475.91238</ele>
        <time>2026-09-02T12:43:32Z</time>
      </trkpt>
      <trkpt lat="48.40179" lon="7.3974">
        <ele>475.91238</ele>
        <time>2026-09-02T12:43:41Z</time>
      </trkpt>
      <trkpt lat="48.40175" lon="7.39736">
        <ele>475.91238</ele>
        <time>2026-09-02T12:43:48Z</time>
      </trkpt>
      <trkpt lat="48.40179" lon="7.39741">
        <ele>475.91238</ele>
        <time>2026-09-02T12:44:14Z</time>
      </trkpt>
      <trkpt lat="48.40183" lon="7.39736">
        <ele>475.91238</ele>
        <time>2026-09-02T12:44:19Z</time>
      </trkpt>
      <trkpt lat="48.40181" lon="7.39742">
        <ele>475.91238</ele>
        <time>2026-09-02T12:44:24Z</time>
      </trkpt>
      <trkpt lat="48.40181" lon="7.39751">
        <ele>475.91238</ele>
        <time>2026-09-02T12:44:27Z</time>
      </trkpt>
      <trkpt lat="48.40184" lon="7.39756">
        <ele>475.91238</ele>
        <time>2026-09-02T12:44:36Z</time>
      </trkpt>
      <trkpt lat="48.40188" lon="7.39761">
        <ele>475.91238</ele>
        <time>2026-09-02T12:44:53Z</time>
      </trkpt>
      <trkpt lat="48.40192" lon="7.39765">
        <ele>475.91238</ele>
        <time>2026-09-02T12:44:59Z</time>
      </trkpt>
      <trkpt lat="48.40198" lon="7.39769">
        <ele>473.51154</ele>
        <time>2026-09-02T12:45:05Z</time>
      </trkpt>
      <trkpt lat="48.40203" lon="7.3977">
        <ele>471.1107</ele>
        <time>2026-09-02T12:45:12Z</time>
      </trkpt>
      <trkpt lat="48.40208" lon="7.39771">
        <ele>468.70984</ele>
        <time>2026-09-02T12:45:16Z</time>
      </trkpt>
      <trkpt lat="48.40213" lon="7.39772">
        <ele>466.309</ele>
        <time>2026-09-02T12:45:20Z</time>
      </trkpt>
      <trkpt lat="48.40218" lon="7.39772">
        <ele>463.90814</ele>
        <time>2026-09-02T12:45:25Z</time>
      </trkpt>
      <trkpt lat="48.40223" lon="7.39771">
        <ele>463.90814</ele>
        <time>2026-09-02T12:45:32Z</time>
      </trkpt>
      <trkpt lat="48.40228" lon="7.39769">
        <ele>463.90814</ele>
        <time>2026-09-02T12:45:36Z</time>
      </trkpt>
      <trkpt lat="48.40234" lon="7.39765">
        <ele>463.90814</ele>
        <time>2026-09-02T12:45:43Z</time>
      </trkpt>
      <trkpt lat="48.40238" lon="7.39761">
        <ele>463.90814</ele>
        <time>2026-09-02T12:45:50Z</time>
      </trkpt>
      <trkpt lat="48.40242" lon="7.39756">
        <ele>463.90814</ele>
        <time>2026-09-02T12:45:54Z</time>
      </trkpt>
      <trkpt lat="48.40247" lon="7.39753">
        <ele>463.90814</ele>
        <time>2026-09-02T12:46:03Z</time>
      </trkpt>
      <trkpt lat="48.40252" lon="7.39753">
        <ele>463.90814</ele>
        <time>2026-09-02T12:46:07Z</time>
      </trkpt>
      <trkpt lat="48.40258" lon="7.39754">
        <ele>463.90814</ele>
        <time>2026-09-02T12:46:11Z</time>
      </trkpt>
      <trkpt lat="48.40262" lon="7.39755">
        <ele>463.90814</ele>
        <time>2026-09-02T12:46:15Z</time>
      </trkpt>
      <trkpt lat="48.4027" lon="7.39756">
        <ele>463.90814</ele>
        <time>2026-09-02T12:46:21Z</time>
      </trkpt>
      <trkpt lat="48.40276" lon="7.39756">
        <ele>463.90814</ele>
        <time>2026-09-02T12:46:25Z</time>
      </trkpt>
      <trkpt lat="48.40281" lon="7.39757">
        <ele>463.90814</ele>
        <time>2026-09-02T12:46:37Z</time>
      </trkpt>
      <trkpt lat="48.40286" lon="7.39759">
        <ele>463.90814</ele>
        <time>2026-09-02T12:46:39Z</time>
      </trkpt>
      <trkpt lat="48.40292" lon="7.39761">
        <ele>463.90814</ele>
        <time>2026-09-02T12:46:43Z</time>
      </trkpt>
      <trkpt lat="48.40297" lon="7.39763">
        <ele>463.90814</ele>
        <time>2026-09-02T12:46:48Z</time>
      </trkpt>
      <trkpt lat="48.40302" lon="7.39765">
        <ele>463.90814</ele>
        <time>2026-09-02T12:46:58Z</time>
      </trkpt>
      <trkpt lat="48.40308" lon="7.39769">
        <ele>463.90814</ele>
        <time>2026-09-02T12:47:03Z</time>
      </trkpt>
      <trkpt lat="48.40313" lon="7.39774">
        <ele>463.90814</ele>
        <time>2026-09-02T12:47:08Z</time>
      </trkpt>
      <trkpt lat="48.40317" lon="7.39778">
        <ele>463.90814</ele>
        <time>2026-09-02T12:47:10Z</time>
      </trkpt>
      <trkpt lat="48.40321" lon="7.39783">
        <ele>463.90814</ele>
        <time>2026-09-02T12:47:18Z</time>
      </trkpt>
      <trkpt lat="48.40324" lon="7.39788">
        <ele>463.90814</ele>
        <time>2026-09-02T12:47:35Z</time>
      </trkpt>
      <trkpt lat="48.40326" lon="7.39794">
        <ele>463.90814</ele>
        <time>2026-09-02T12:47:40Z</time>
      </trkpt>
      <trkpt lat="48.40331" lon="7.39799">
        <ele>463.90814</ele>
        <time>2026-09-02T12:47:43Z</time>
      </trkpt>
      <trkpt lat="48.40334" lon="7.39805">
        <ele>463.90814</ele>
        <time>2026-09-02T12:47:45Z</time>
      </trkpt>
      <trkpt lat="48.40337" lon="7.39811">
        <ele>463.90814</ele>
        <time>2026-09-02T12:47:47Z</time>
      </trkpt>
      <trkpt lat="48.4034" lon="7.39818">
        <ele>463.90814</ele>
        <time>2026-09-02T12:47:50Z</time>
      </trkpt>
      <trkpt lat="48.40343" lon="7.39825">
        <ele>463.90814</ele>
        <time>2026-09-02T12:47:53Z</time>
      </trkpt>
      <trkpt lat="48.40347" lon="7.39834">
        <ele>463.90814</ele>
        <time>2026-09-02T12:47:58Z</time>
      </trkpt>
      <trkpt lat="48.4035" lon="7.39841">
        <ele>463.90814</ele>
        <time>2026-09-02T12:48:06Z</time>
      </trkpt>
      <trkpt lat="48.40347" lon="7.39833">
        <ele>463.90814</ele>
        <time>2026-09-02T12:48:08Z</time>
      </trkpt>
      <trkpt lat="48.40348" lon="7.39839">
        <ele>463.90814</ele>
        <time>2026-09-02T12:48:20Z</time>
      </trkpt>
      <trkpt lat="48.40352" lon="7.39845">
        <ele>463.90814</ele>
        <time>2026-09-02T12:48:22Z</time>
      </trkpt>
      <trkpt lat="48.40354" lon="7.39852">
        <ele>463.90814</ele>
        <time>2026-09-02T12:48:26Z</time>
      </trkpt>
      <trkpt lat="48.40357" lon="7.39858">
        <ele>463.90814</ele>
        <time>2026-09-02T12:48:29Z</time>
      </trkpt>
      <trkpt lat="48.40359" lon="7.39864">
        <ele>461.84564</ele>
        <time>2026-09-02T12:48:31Z</time>
      </trkpt>
      <trkpt lat="48.4036" lon="7.39874">
        <ele>459.78317</ele>
        <time>2026-09-02T12:48:40Z</time>
      </trkpt>
      <trkpt lat="48.40362" lon="7.3988">
        <ele>457.72067</ele>
        <time>2026-09-02T12:48:41Z</time>
      </trkpt>
      <trkpt lat="48.40368" lon="7.39884">
        <ele>455.6582</ele>
        <time>2026-09-02T12:48:45Z</time>
      </trkpt>
      <trkpt lat="48.40371" lon="7.39888">
        <ele>453.5957</ele>
        <time>2026-09-02T12:48:48Z</time>
      </trkpt>
      <trkpt lat="48.40374" lon="7.39893">
        <ele>453.5957</ele>
        <time>2026-09-02T12:48:53Z</time>
      </trkpt>
      <trkpt lat="48.40378" lon="7.39899">
        <ele>453.5957</ele>
        <time>2026-09-02T12:48:57Z</time>
      </trkpt>
      <trkpt lat="48.40382" lon="7.39906">
        <ele>453.5957</ele>
        <time>2026-09-02T12:49:04Z</time>
      </trkpt>
      <trkpt lat="48.40385" lon="7.39913">
        <ele>453.5957</ele>
        <time>2026-09-02T12:49:10Z</time>
      </trkpt>
      <trkpt lat="48.40387" lon="7.39919">
        <ele>453.5957</ele>
        <time>2026-09-02T12:49:17Z</time>
      </trkpt>
      <trkpt lat="48.4039" lon="7.39928">
        <ele>453.5957</ele>
        <time>2026-09-02T12:49:19Z</time>
      </trkpt>
      <trkpt lat="48.4039" lon="7.39936">
        <ele>453.5957</ele>
        <time>2026-09-02T12:49:22Z</time>
      </trkpt>
      <trkpt lat="48.40389" lon="7.39943">
        <ele>453.5957</ele>
        <time>2026-09-02T12:49:25Z</time>
      </trkpt>
      <trkpt lat="48.40388" lon="7.39951">
        <ele>453.5957</ele>
        <time>2026-09-02T12:49:29Z</time>
      </trkpt>
      <trkpt lat="48.40387" lon="7.39959">
        <ele>453.5957</ele>
        <time>2026-09-02T12:49:34Z</time>
      </trkpt>
      <trkpt lat="48.40385" lon="7.39965">
        <ele>453.5957</ele>
        <time>2026-09-02T12:49:38Z</time>
      </trkpt>
      <trkpt lat="48.40384" lon="7.39974">
        <ele>453.5957</ele>
        <time>2026-09-02T12:49:43Z</time>
      </trkpt>
      <trkpt lat="48.40381" lon="7.39981">
        <ele>453.5957</ele>
        <time>2026-09-02T12:49:47Z</time>
      </trkpt>
      <trkpt lat="48.40379" lon="7.39988">
        <ele>453.5957</ele>
        <time>2026-09-02T12:49:50Z</time>
      </trkpt>
      <trkpt lat="48.40376" lon="7.39996">
        <ele>453.5957</ele>
        <time>2026-09-02T12:49:54Z</time>
      </trkpt>
      <trkpt lat="48.40374" lon="7.40002">
        <ele>453.5957</ele>
        <time>2026-09-02T12:50:05Z</time>
      </trkpt>
      <trkpt lat="48.40373" lon="7.40009">
        <ele>453.5957</ele>
        <time>2026-09-02T12:50:07Z</time>
      </trkpt>
      <trkpt lat="48.40371" lon="7.40016">
        <ele>453.5957</ele>
        <time>2026-09-02T12:50:12Z</time>
      </trkpt>
      <trkpt lat="48.40368" lon="7.40023">
        <ele>453.5957</ele>
        <time>2026-09-02T12:50:18Z</time>
      </trkpt>
      <trkpt lat="48.40366" lon="7.4003">
        <ele>453.5957</ele>
        <time>2026-09-02T12:50:21Z</time>
      </trkpt>
      <trkpt lat="48.40363" lon="7.40036">
        <ele>453.5957</ele>
        <time>2026-09-02T12:50:26Z</time>
      </trkpt>
      <trkpt lat="48.40361" lon="7.40042">
        <ele>453.5957</ele>
        <time>2026-09-02T12:50:31Z</time>
      </trkpt>
      <trkpt lat="48.40359" lon="7.40049">
        <ele>453.5957</ele>
        <time>2026-09-02T12:50:37Z</time>
      </trkpt>
      <trkpt lat="48.40356" lon="7.40056">
        <ele>453.5957</ele>
        <time>2026-09-02T12:50:41Z</time>
      </trkpt>
      <trkpt lat="48.40353" lon="7.40063">
        <ele>453.5957</ele>
        <time>2026-09-02T12:50:47Z</time>
      </trkpt>
      <trkpt lat="48.4035" lon="7.40069">
        <ele>453.5957</ele>
        <time>2026-09-02T12:50:50Z</time>
      </trkpt>
      <trkpt lat="48.40347" lon="7.40075">
        <ele>453.5957</ele>
        <time>2026-09-02T12:50:54Z</time>
      </trkpt>
      <trkpt lat="48.40344" lon="7.40082">
        <ele>453.5957</ele>
        <time>2026-09-02T12:51:00Z</time>
      </trkpt>
      <trkpt lat="48.40342" lon="7.40088">
        <ele>453.5957</ele>
        <time>2026-09-02T12:51:03Z</time>
      </trkpt>
      <trkpt lat="48.40339" lon="7.40094">
        <ele>453.5957</ele>
        <time>2026-09-02T12:51:07Z</time>
      </trkpt>
      <trkpt lat="48.40334" lon="7.40103">
        <ele>453.5957</ele>
        <time>2026-09-02T12:51:13Z</time>
      </trkpt>
      <trkpt lat="48.40332" lon="7.40109">
        <ele>451.45636</ele>
        <time>2026-09-02T12:51:20Z</time>
      </trkpt>
      <trkpt lat="48.4033" lon="7.40116">
        <ele>449.31705</ele>
        <time>2026-09-02T12:51:22Z</time>
      </trkpt>
      <trkpt lat="48.40328" lon="7.40123">
        <ele>447.1777</ele>
        <time>2026-09-02T12:51:27Z</time>
      </trkpt>
      <trkpt lat="48.40327" lon="7.4013">
        <ele>445.0384</ele>
        <time>2026-09-02T12:51:32Z</time>
      </trkpt>
      <trkpt lat="48.40326" lon="7.40137">
        <ele>442.89905</ele>
        <time>2026-09-02T12:51:38Z</time>
      </trkpt>
      <trkpt lat="48.40325" lon="7.40146">
        <ele>442.89905</ele>
        <time>2026-09-02T12:51:44Z</time>
      </trkpt>
      <trkpt lat="48.40324" lon="7.40152">
        <ele>442.89905</ele>
        <time>2026-09-02T12:51:48Z</time>
      </trkpt>
      <trkpt lat="48.40324" lon="7.4016">
        <ele>442.89905</ele>
        <time>2026-09-02T12:51:56Z</time>
      </trkpt>
      <trkpt lat="48.40323" lon="7.40167">
        <ele>442.89905</ele>
        <time>2026-09-02T12:52:02Z</time>
      </trkpt>
      <trkpt lat="48.40322" lon="7.40173">
        <ele>442.89905</ele>
        <time>2026-09-02T12:52:06Z</time>
      </trkpt>
      <trkpt lat="48.40321" lon="7.4018">
        <ele>442.89905</ele>
        <time>2026-09-02T12:52:10Z</time>
      </trkpt>
      <trkpt lat="48.40321" lon="7.40188">
        <ele>442.89905</ele>
        <time>2026-09-02T12:52:16Z</time>
      </trkpt>
      <trkpt lat="48.40319" lon="7.40197">
        <ele>442.89905</ele>
        <time>2026-09-02T12:52:21Z</time>
      </trkpt>
      <trkpt lat="48.40318" lon="7.40204">
        <ele>442.89905</ele>
        <time>2026-09-02T12:52:25Z</time>
      </trkpt>
      <trkpt lat="48.40316" lon="7.40211">
        <ele>442.89905</ele>
        <time>2026-09-02T12:52:33Z</time>
      </trkpt>
      <trkpt lat="48.40313" lon="7.40216">
        <ele>442.89905</ele>
        <time>2026-09-02T12:52:36Z</time>
      </trkpt>
      <trkpt lat="48.40308" lon="7.40224">
        <ele>442.89905</ele>
        <time>2026-09-02T12:52:39Z</time>
      </trkpt>
      <trkpt lat="48.40305" lon="7.40231">
        <ele>442.89905</ele>
        <time>2026-09-02T12:52:44Z</time>
      </trkpt>
      <trkpt lat="48.40303" lon="7.40239">
        <ele>442.89905</ele>
        <time>2026-09-02T12:52:49Z</time>
      </trkpt>
      <trkpt lat="48.40301" lon="7.40246">
        <ele>442.89905</ele>
        <time>2026-09-02T12:52:55Z</time>
      </trkpt>
      <trkpt lat="48.40299" lon="7.40254">
        <ele>442.89905</ele>
        <time>2026-09-02T12:53:07Z</time>
      </trkpt>
      <trkpt lat="48.40298" lon="7.40261">
        <ele>442.89905</ele>
        <time>2026-09-02T12:53:14Z</time>
      </trkpt>
      <trkpt lat="48.40299" lon="7.40269">
        <ele>442.89905</ele>
        <time>2026-09-02T12:53:19Z</time>
      </trkpt>
      <trkpt lat="48.40295" lon="7.40273">
        <ele>442.89905</ele>
        <time>2026-09-02T12:53:26Z</time>
      </trkpt>
      <trkpt lat="48.40295" lon="7.40281">
        <ele>442.89905</ele>
        <time>2026-09-02T12:53:29Z</time>
      </trkpt>
      <trkpt lat="48.40295" lon="7.40291">
        <ele>442.89905</ele>
        <time>2026-09-02T12:53:35Z</time>
      </trkpt>
      <trkpt lat="48.40293" lon="7.40297">
        <ele>442.89905</ele>
        <time>2026-09-02T12:53:38Z</time>
      </trkpt>
      <trkpt lat="48.40291" lon="7.40304">
        <ele>442.89905</ele>
        <time>2026-09-02T12:53:46Z</time>
      </trkpt>
      <trkpt lat="48.40291" lon="7.40311">
        <ele>440.69028</ele>
        <time>2026-09-02T12:53:51Z</time>
      </trkpt>
      <trkpt lat="48.40291" lon="7.40318">
        <ele>438.48148</ele>
        <time>2026-09-02T12:53:54Z</time>
      </trkpt>
      <trkpt lat="48.40289" lon="7.40324">
        <ele>436.2727</ele>
        <time>2026-09-02T12:53:57Z</time>
      </trkpt>
      <trkpt lat="48.40282" lon="7.40321">
        <ele>434.0639</ele>
        <time>2026-09-02T12:54:01Z</time>
      </trkpt>
      <trkpt lat="48.40278" lon="7.40327">
        <ele>431.85513</ele>
        <time>2026-09-02T12:54:03Z</time>
      </trkpt>
      <trkpt lat="48.40275" lon="7.40334">
        <ele>431.85513</ele>
        <time>2026-09-02T12:54:09Z</time>
      </trkpt>
      <trkpt lat="48.40271" lon="7.40343">
        <ele>431.85513</ele>
        <time>2026-09-02T12:54:13Z</time>
      </trkpt>
      <trkpt lat="48.40268" lon="7.40348">
        <ele>431.85513</ele>
        <time>2026-09-02T12:54:18Z</time>
      </trkpt>
      <trkpt lat="48.40265" lon="7.40354">
        <ele>431.85513</ele>
        <time>2026-09-02T12:54:23Z</time>
      </trkpt>
      <trkpt lat="48.40262" lon="7.4036">
        <ele>431.85513</ele>
        <time>2026-09-02T12:54:28Z</time>
      </trkpt>
      <trkpt lat="48.40259" lon="7.40365">
        <ele>431.85513</ele>
        <time>2026-09-02T12:54:35Z</time>
      </trkpt>
      <trkpt lat="48.40255" lon="7.40372">
        <ele>429.82022</ele>
        <time>2026-09-02T12:54:40Z</time>
      </trkpt>
      <trkpt lat="48.40252" lon="7.40378">
        <ele>427.78528</ele>
        <time>2026-09-02T12:54:45Z</time>
      </trkpt>
      <trkpt lat="48.40249" lon="7.40384">
        <ele>425.75037</ele>
        <time>2026-09-02T12:54:49Z</time>
      </trkpt>
      <trkpt lat="48.40245" lon="7.40391">
        <ele>423.71542</ele>
        <time>2026-09-02T12:54:54Z</time>
      </trkpt>
      <trkpt lat="48.40242" lon="7.40398">
        <ele>421.6805</ele>
        <time>2026-09-02T12:54:58Z</time>
      </trkpt>
      <trkpt lat="48.40238" lon="7.40404">
        <ele>421.6805</ele>
        <time>2026-09-02T12:55:04Z</time>
      </trkpt>
      <trkpt lat="48.40235" lon="7.40408">
        <ele>421.6805</ele>
        <time>2026-09-02T12:55:07Z</time>
      </trkpt>
      <trkpt lat="48.40231" lon="7.40414">
        <ele>421.6805</ele>
        <time>2026-09-02T12:55:11Z</time>
      </trkpt>
      <trkpt lat="48.40229" lon="7.4042">
        <ele>421.6805</ele>
        <time>2026-09-02T12:55:14Z</time>
      </trkpt>
      <trkpt lat="48.40225" lon="7.40426">
        <ele>421.6805</ele>
        <time>2026-09-02T12:55:21Z</time>
      </trkpt>
      <trkpt lat="48.40221" lon="7.40435">
        <ele>421.6805</ele>
        <time>2026-09-02T12:55:27Z</time>
      </trkpt>
      <trkpt lat="48.40218" lon="7.40441">
        <ele>421.6805</ele>
        <time>2026-09-02T12:55:39Z</time>
      </trkpt>
      <trkpt lat="48.40215" lon="7.40447">
        <ele>421.6805</ele>
        <time>2026-09-02T12:55:43Z</time>
      </trkpt>
      <trkpt lat="48.40212" lon="7.40454">
        <ele>421.6805</ele>
        <time>2026-09-02T12:55:47Z</time>
      </trkpt>
      <trkpt lat="48.40207" lon="7.40456">
        <ele>421.6805</ele>
        <time>2026-09-02T12:55:53Z</time>
      </trkpt>
      <trkpt lat="48.402" lon="7.40455">
        <ele>421.6805</ele>
        <time>2026-09-02T12:55:56Z</time>
      </trkpt>
      <trkpt lat="48.40195" lon="7.40451">
        <ele>421.6805</ele>
        <time>2026-09-02T12:55:58Z</time>
      </trkpt>
      <trkpt lat="48.4019" lon="7.40447">
        <ele>421.6805</ele>
        <time>2026-09-02T12:56:00Z</time>
      </trkpt>
      <trkpt lat="48.40184" lon="7.40448">
        <ele>421.6805</ele>
        <time>2026-09-02T12:56:08Z</time>
      </trkpt>
      <trkpt lat="48.40179" lon="7.40448">
        <ele>421.6805</ele>
        <time>2026-09-02T12:56:10Z</time>
      </trkpt>
      <trkpt lat="48.40172" lon="7.40448">
        <ele>421.6805</ele>
        <time>2026-09-02T12:56:15Z</time>
      </trkpt>
      <trkpt lat="48.40167" lon="7.4045">
        <ele>421.6805</ele>
        <time>2026-09-02T12:56:20Z</time>
      </trkpt>
      <trkpt lat="48.40163" lon="7.40454">
        <ele>421.6805</ele>
        <time>2026-09-02T12:56:25Z</time>
      </trkpt>
      <trkpt lat="48.40157" lon="7.40454">
        <ele>419.523</ele>
        <time>2026-09-02T12:56:29Z</time>
      </trkpt>
      <trkpt lat="48.40152" lon="7.40456">
        <ele>417.36554</ele>
        <time>2026-09-02T12:56:36Z</time>
      </trkpt>
      <trkpt lat="48.40147" lon="7.40458">
        <ele>415.20804</ele>
        <time>2026-09-02T12:56:39Z</time>
      </trkpt>
      <trkpt lat="48.40141" lon="7.40459">
        <ele>413.05057</ele>
        <time>2026-09-02T12:56:45Z</time>
      </trkpt>
      <trkpt lat="48.40136" lon="7.40459">
        <ele>410.89307</ele>
        <time>2026-09-02T12:56:51Z</time>
      </trkpt>
      <trkpt lat="48.4013" lon="7.4046">
        <ele>410.89307</ele>
        <time>2026-09-02T12:56:56Z</time>
      </trkpt>
      <trkpt lat="48.40126" lon="7.40464">
        <ele>410.89307</ele>
        <time>2026-09-02T12:57:02Z</time>
      </trkpt>
      <trkpt lat="48.40123" lon="7.40459">
        <ele>410.89307</ele>
        <time>2026-09-02T12:57:05Z</time>
      </trkpt>
      <trkpt lat="48.40119" lon="7.40464">
        <ele>410.89307</ele>
        <time>2026-09-02T12:57:10Z</time>
      </trkpt>
      <trkpt lat="48.40117" lon="7.40472">
        <ele>408.8573</ele>
        <time>2026-09-02T12:57:13Z</time>
      </trkpt>
      <trkpt lat="48.40114" lon="7.40478">
        <ele>406.82153</ele>
        <time>2026-09-02T12:57:15Z</time>
      </trkpt>
      <trkpt lat="48.40111" lon="7.40484">
        <ele>404.7858</ele>
        <time>2026-09-02T12:57:17Z</time>
      </trkpt>
      <trkpt lat="48.40105" lon="7.40485">
        <ele>402.75003</ele>
        <time>2026-09-02T12:57:22Z</time>
      </trkpt>
      <trkpt lat="48.401" lon="7.40488">
        <ele>400.71426</ele>
        <time>2026-09-02T12:57:26Z</time>
      </trkpt>
      <trkpt lat="48.40097" lon="7.40494">
        <ele>400.71426</ele>
        <time>2026-09-02T12:57:37Z</time>
      </trkpt>
      <trkpt lat="48.40095" lon="7.40501">
        <ele>400.71426</ele>
        <time>2026-09-02T12:57:43Z</time>
      </trkpt>
      <trkpt lat="48.40093" lon="7.40508">
        <ele>400.71426</ele>
        <time>2026-09-02T12:57:46Z</time>
      </trkpt>
      <trkpt lat="48.40091" lon="7.40516">
        <ele>400.71426</ele>
        <time>2026-09-02T12:57:51Z</time>
      </trkpt>
      <trkpt lat="48.4009" lon="7.40522">
        <ele>400.71426</ele>
        <time>2026-09-02T12:57:57Z</time>
      </trkpt>
      <trkpt lat="48.40089" lon="7.40531">
        <ele>400.71426</ele>
        <time>2026-09-02T12:58:01Z</time>
      </trkpt>
      <trkpt lat="48.40089" lon="7.40538">
        <ele>400.71426</ele>
        <time>2026-09-02T12:58:05Z</time>
      </trkpt>
      <trkpt lat="48.40089" lon="7.40545">
        <ele>400.71426</ele>
        <time>2026-09-02T12:58:09Z</time>
      </trkpt>
      <trkpt lat="48.4009" lon="7.40554">
        <ele>400.71426</ele>
        <time>2026-09-02T12:58:17Z</time>
      </trkpt>
      <trkpt lat="48.40091" lon="7.40562">
        <ele>400.71426</ele>
        <time>2026-09-02T12:58:22Z</time>
      </trkpt>
      <trkpt lat="48.40091" lon="7.4057">
        <ele>400.71426</ele>
        <time>2026-09-02T12:58:27Z</time>
      </trkpt>
      <trkpt lat="48.40092" lon="7.40577">
        <ele>400.71426</ele>
        <time>2026-09-02T12:58:30Z</time>
      </trkpt>
      <trkpt lat="48.40093" lon="7.40585">
        <ele>400.71426</ele>
        <time>2026-09-02T12:58:37Z</time>
      </trkpt>
      <trkpt lat="48.40094" lon="7.40593">
        <ele>400.71426</ele>
        <time>2026-09-02T12:58:41Z</time>
      </trkpt>
      <trkpt lat="48.40095" lon="7.40601">
        <ele>400.71426</ele>
        <time>2026-09-02T12:58:45Z</time>
      </trkpt>
      <trkpt lat="48.40097" lon="7.40611">
        <ele>400.71426</ele>
        <time>2026-09-02T12:58:53Z</time>
      </trkpt>
      <trkpt lat="48.40099" lon="7.40619">
        <ele>400.71426</ele>
        <time>2026-09-02T12:58:57Z</time>
      </trkpt>
      <trkpt lat="48.401" lon="7.40627">
        <ele>400.71426</ele>
        <time>2026-09-02T12:59:02Z</time>
      </trkpt>
      <trkpt lat="48.40102" lon="7.40633">
        <ele>400.71426</ele>
        <time>2026-09-02T12:59:06Z</time>
      </trkpt>
      <trkpt lat="48.40104" lon="7.4064">
        <ele>400.71426</ele>
        <time>2026-09-02T12:59:10Z</time>
      </trkpt>
      <trkpt lat="48.40106" lon="7.40648">
        <ele>400.71426</ele>
        <time>2026-09-02T12:59:14Z</time>
      </trkpt>
      <trkpt lat="48.40109" lon="7.40656">
        <ele>400.71426</ele>
        <time>2026-09-02T12:59:21Z</time>
      </trkpt>
      <trkpt lat="48.40113" lon="7.40663">
        <ele>400.71426</ele>
        <time>2026-09-02T12:59:29Z</time>
      </trkpt>
      <trkpt lat="48.40118" lon="7.40669">
        <ele>400.71426</ele>
        <time>2026-09-02T12:59:34Z</time>
      </trkpt>
      <trkpt lat="48.40122" lon="7.40672">
        <ele>400.71426</ele>
        <time>2026-09-02T12:59:38Z</time>
      </trkpt>
      <trkpt lat="48.40128" lon="7.40674">
        <ele>400.71426</ele>
        <time>2026-09-02T12:59:42Z</time>
      </trkpt>
      <trkpt lat="48.40133" lon="7.40674">
        <ele>400.71426</ele>
        <time>2026-09-02T12:59:47Z</time>
      </trkpt>
      <trkpt lat="48.40141" lon="7.40675">
        <ele>400.71426</ele>
        <time>2026-09-02T12:59:51Z</time>
      </trkpt>
      <trkpt lat="48.40146" lon="7.40675">
        <ele>400.71426</ele>
        <time>2026-09-02T12:59:57Z</time>
      </trkpt>
      <trkpt lat="48.4015" lon="7.40676">
        <ele>400.71426</ele>
        <time>2026-09-02T13:00:02Z</time>
      </trkpt>
      <trkpt lat="48.40155" lon="7.40678">
        <ele>400.71426</ele>
        <time>2026-09-02T13:00:06Z</time>
      </trkpt>
      <trkpt lat="48.4016" lon="7.40683">
        <ele>400.71426</ele>
        <time>2026-09-02T13:00:12Z</time>
      </trkpt>
      <trkpt lat="48.40163" lon="7.4069">
        <ele>400.71426</ele>
        <time>2026-09-02T13:00:16Z</time>
      </trkpt>
      <trkpt lat="48.40164" lon="7.407">
        <ele>400.71426</ele>
        <time>2026-09-02T13:00:18Z</time>
      </trkpt>
      <trkpt lat="48.40163" lon="7.40707">
        <ele>400.71426</ele>
        <time>2026-09-02T13:00:23Z</time>
      </trkpt>
      <trkpt lat="48.40163" lon="7.40716">
        <ele>400.71426</ele>
        <time>2026-09-02T13:00:28Z</time>
      </trkpt>
      <trkpt lat="48.40161" lon="7.40723">
        <ele>400.71426</ele>
        <time>2026-09-02T13:00:33Z</time>
      </trkpt>
      <trkpt lat="48.40158" lon="7.40729">
        <ele>400.71426</ele>
        <time>2026-09-02T13:00:36Z</time>
      </trkpt>
      <trkpt lat="48.40155" lon="7.40735">
        <ele>400.71426</ele>
        <time>2026-09-02T13:00:39Z</time>
      </trkpt>
      <trkpt lat="48.40152" lon="7.4074">
        <ele>400.71426</ele>
        <time>2026-09-02T13:00:46Z</time>
      </trkpt>
      <trkpt lat="48.40149" lon="7.40747">
        <ele>400.71426</ele>
        <time>2026-09-02T13:00:51Z</time>
      </trkpt>
      <trkpt lat="48.40147" lon="7.40754">
        <ele>400.71426</ele>
        <time>2026-09-02T13:00:54Z</time>
      </trkpt>
      <trkpt lat="48.40146" lon="7.40761">
        <ele>400.71426</ele>
        <time>2026-09-02T13:01:00Z</time>
      </trkpt>
      <trkpt lat="48.40146" lon="7.40768">
        <ele>400.71426</ele>
        <time>2026-09-02T13:01:05Z</time>
      </trkpt>
      <trkpt lat="48.40146" lon="7.40777">
        <ele>400.71426</ele>
        <time>2026-09-02T13:01:10Z</time>
      </trkpt>
      <trkpt lat="48.40146" lon="7.40785">
        <ele>400.71426</ele>
        <time>2026-09-02T13:01:13Z</time>
      </trkpt>
      <trkpt lat="48.40147" lon="7.40795">
        <ele>400.71426</ele>
        <time>2026-09-02T13:01:17Z</time>
      </trkpt>
      <trkpt lat="48.40144" lon="7.40802">
        <ele>400.71426</ele>
        <time>2026-09-02T13:01:21Z</time>
      </trkpt>
      <trkpt lat="48.4014" lon="7.40807">
        <ele>400.71426</ele>
        <time>2026-09-02T13:01:24Z</time>
      </trkpt>
      <trkpt lat="48.40135" lon="7.40811">
        <ele>400.71426</ele>
        <time>2026-09-02T13:01:28Z</time>
      </trkpt>
      <trkpt lat="48.40131" lon="7.40814">
        <ele>400.71426</ele>
        <time>2026-09-02T13:01:31Z</time>
      </trkpt>
      <trkpt lat="48.40127" lon="7.40817">
        <ele>400.71426</ele>
        <time>2026-09-02T13:01:34Z</time>
      </trkpt>
      <trkpt lat="48.40121" lon="7.40823">
        <ele>400.71426</ele>
        <time>2026-09-02T13:01:42Z</time>
      </trkpt>
      <trkpt lat="48.40115" lon="7.4083">
        <ele>400.71426</ele>
        <time>2026-09-02T13:01:48Z</time>
      </trkpt>
      <trkpt lat="48.40111" lon="7.40836">
        <ele>400.71426</ele>
        <time>2026-09-02T13:01:51Z</time>
      </trkpt>
      <trkpt lat="48.40108" lon="7.40841">
        <ele>400.71426</ele>
        <time>2026-09-02T13:01:55Z</time>
      </trkpt>
      <trkpt lat="48.40103" lon="7.40846">
        <ele>400.71426</ele>
        <time>2026-09-02T13:02:02Z</time>
      </trkpt>
      <trkpt lat="48.401" lon="7.40851">
        <ele>400.71426</ele>
        <time>2026-09-02T13:02:09Z</time>
      </trkpt>
      <trkpt lat="48.40097" lon="7.40858">
        <ele>400.71426</ele>
        <time>2026-09-02T13:02:16Z</time>
      </trkpt>
      <trkpt lat="48.40094" lon="7.40866">
        <ele>400.71426</ele>
        <time>2026-09-02T13:02:23Z</time>
      </trkpt>
      <trkpt lat="48.40091" lon="7.40873">
        <ele>400.71426</ele>
        <time>2026-09-02T13:02:27Z</time>
      </trkpt>
      <trkpt lat="48.40088" lon="7.40879">
        <ele>400.71426</ele>
        <time>2026-09-02T13:02:30Z</time>
      </trkpt>
      <trkpt lat="48.40085" lon="7.40885">
        <ele>400.71426</ele>
        <time>2026-09-02T13:02:35Z</time>
      </trkpt>
      <trkpt lat="48.40082" lon="7.40892">
        <ele>400.71426</ele>
        <time>2026-09-02T13:02:42Z</time>
      </trkpt>
      <trkpt lat="48.40079" lon="7.40898">
        <ele>400.71426</ele>
        <time>2026-09-02T13:02:46Z</time>
      </trkpt>
      <trkpt lat="48.40076" lon="7.40904">
        <ele>400.71426</ele>
        <time>2026-09-02T13:02:51Z</time>
      </trkpt>
      <trkpt lat="48.40073" lon="7.40911">
        <ele>400.71426</ele>
        <time>2026-09-02T13:02:56Z</time>
      </trkpt>
      <trkpt lat="48.4007" lon="7.40917">
        <ele>400.71426</ele>
        <time>2026-09-02T13:03:01Z</time>
      </trkpt>
      <trkpt lat="48.40068" lon="7.40923">
        <ele>400.71426</ele>
        <time>2026-09-02T13:03:05Z</time>
      </trkpt>
      <trkpt lat="48.40065" lon="7.40928">
        <ele>400.71426</ele>
        <time>2026-09-02T13:03:09Z</time>
      </trkpt>
      <trkpt lat="48.40061" lon="7.40935">
        <ele>400.71426</ele>
        <time>2026-09-02T13:03:14Z</time>
      </trkpt>
      <trkpt lat="48.40057" lon="7.4094">
        <ele>400.71426</ele>
        <time>2026-09-02T13:03:17Z</time>
      </trkpt>
      <trkpt lat="48.40052" lon="7.40946">
        <ele>400.71426</ele>
        <time>2026-09-02T13:03:22Z</time>
      </trkpt>
      <trkpt lat="48.40048" lon="7.4095">
        <ele>400.71426</ele>
        <time>2026-09-02T13:03:26Z</time>
      </trkpt>
      <trkpt lat="48.40043" lon="7.40952">
        <ele>402.89688</ele>
        <time>2026-09-02T13:03:32Z</time>
      </trkpt>
      <trkpt lat="48.40038" lon="7.40954">
        <ele>405.07947</ele>
        <time>2026-09-02T13:03:36Z</time>
      </trkpt>
      <trkpt lat="48.40033" lon="7.40955">
        <ele>407.2621</ele>
        <time>2026-09-02T13:03:38Z</time>
      </trkpt>
      <trkpt lat="48.40028" lon="7.40958">
        <ele>409.44467</ele>
        <time>2026-09-02T13:03:46Z</time>
      </trkpt>
      <trkpt lat="48.40021" lon="7.40961">
        <ele>411.6273</ele>
        <time>2026-09-02T13:03:48Z</time>
      </trkpt>
      <trkpt lat="48.40016" lon="7.40964">
        <ele>411.6273</ele>
        <time>2026-09-02T13:03:55Z</time>
      </trkpt>
      <trkpt lat="48.40011" lon="7.40967">
        <ele>411.6273</ele>
        <time>2026-09-02T13:04:00Z</time>
      </trkpt>
      <trkpt lat="48.40006" lon="7.40971">
        <ele>411.6273</ele>
        <time>2026-09-02T13:04:06Z</time>
      </trkpt>
      <trkpt lat="48.40001" lon="7.40974">
        <ele>411.6273</ele>
        <time>2026-09-02T13:04:08Z</time>
      </trkpt>
      <trkpt lat="48.39995" lon="7.40978">
        <ele>411.6273</ele>
        <time>2026-09-02T13:04:15Z</time>
      </trkpt>
      <trkpt lat="48.39991" lon="7.40981">
        <ele>411.6273</ele>
        <time>2026-09-02T13:04:17Z</time>
      </trkpt>
      <trkpt lat="48.39986" lon="7.40984">
        <ele>411.6273</ele>
        <time>2026-09-02T13:04:23Z</time>
      </trkpt>
      <trkpt lat="48.39981" lon="7.40989">
        <ele>411.6273</ele>
        <time>2026-09-02T13:04:28Z</time>
      </trkpt>
      <trkpt lat="48.39976" lon="7.40991">
        <ele>411.6273</ele>
        <time>2026-09-02T13:04:32Z</time>
      </trkpt>
      <trkpt lat="48.39973" lon="7.40997">
        <ele>411.6273</ele>
        <time>2026-09-02T13:04:36Z</time>
      </trkpt>
      <trkpt lat="48.39968" lon="7.40999">
        <ele>411.6273</ele>
        <time>2026-09-02T13:04:40Z</time>
      </trkpt>
      <trkpt lat="48.39964" lon="7.41005">
        <ele>411.6273</ele>
        <time>2026-09-02T13:04:50Z</time>
      </trkpt>
      <trkpt lat="48.39964" lon="7.41012">
        <ele>411.6273</ele>
        <time>2026-09-02T13:04:55Z</time>
      </trkpt>
      <trkpt lat="48.39964" lon="7.41019">
        <ele>411.6273</ele>
        <time>2026-09-02T13:05:00Z</time>
      </trkpt>
      <trkpt lat="48.3996" lon="7.41025">
        <ele>411.6273</ele>
        <time>2026-09-02T13:05:04Z</time>
      </trkpt>
      <trkpt lat="48.39957" lon="7.41031">
        <ele>411.6273</ele>
        <time>2026-09-02T13:05:09Z</time>
      </trkpt>
      <trkpt lat="48.39953" lon="7.41036">
        <ele>411.6273</ele>
        <time>2026-09-02T13:05:14Z</time>
      </trkpt>
      <trkpt lat="48.39949" lon="7.41042">
        <ele>411.6273</ele>
        <time>2026-09-02T13:05:18Z</time>
      </trkpt>
      <trkpt lat="48.39945" lon="7.41047">
        <ele>411.6273</ele>
        <time>2026-09-02T13:05:21Z</time>
      </trkpt>
      <trkpt lat="48.39941" lon="7.4105">
        <ele>411.6273</ele>
        <time>2026-09-02T13:05:24Z</time>
      </trkpt>
      <trkpt lat="48.39936" lon="7.41058">
        <ele>411.6273</ele>
        <time>2026-09-02T13:05:31Z</time>
      </trkpt>
      <trkpt lat="48.39931" lon="7.41063">
        <ele>411.6273</ele>
        <time>2026-09-02T13:05:35Z</time>
      </trkpt>
      <trkpt lat="48.39925" lon="7.41066">
        <ele>411.6273</ele>
        <time>2026-09-02T13:05:39Z</time>
      </trkpt>
      <trkpt lat="48.3992" lon="7.41068">
        <ele>411.6273</ele>
        <time>2026-09-02T13:05:45Z</time>
      </trkpt>
      <trkpt lat="48.39914" lon="7.4107">
        <ele>411.6273</ele>
        <time>2026-09-02T13:05:48Z</time>
      </trkpt>
      <trkpt lat="48.39909" lon="7.41071">
        <ele>411.6273</ele>
        <time>2026-09-02T13:05:52Z</time>
      </trkpt>
      <trkpt lat="48.39903" lon="7.41073">
        <ele>413.745</ele>
        <time>2026-09-02T13:05:56Z</time>
      </trkpt>
      <trkpt lat="48.39898" lon="7.41074">
        <ele>415.8627</ele>
        <time>2026-09-02T13:06:00Z</time>
      </trkpt>
      <trkpt lat="48.39893" lon="7.41077">
        <ele>417.9804</ele>
        <time>2026-09-02T13:06:07Z</time>
      </trkpt>
      <trkpt lat="48.39888" lon="7.41078">
        <ele>420.0981</ele>
        <time>2026-09-02T13:06:10Z</time>
      </trkpt>
      <trkpt lat="48.39883" lon="7.41079">
        <ele>422.21582</ele>
        <time>2026-09-02T13:06:19Z</time>
      </trkpt>
      <trkpt lat="48.39878" lon="7.41081">
        <ele>422.21582</ele>
        <time>2026-09-02T13:06:21Z</time>
      </trkpt>
      <trkpt lat="48.39873" lon="7.41083">
        <ele>422.21582</ele>
        <time>2026-09-02T13:06:26Z</time>
      </trkpt>
      <trkpt lat="48.39866" lon="7.41085">
        <ele>422.21582</ele>
        <time>2026-09-02T13:06:29Z</time>
      </trkpt>
      <trkpt lat="48.3986" lon="7.41084">
        <ele>422.21582</ele>
        <time>2026-09-02T13:06:34Z</time>
      </trkpt>
      <trkpt lat="48.39855" lon="7.41082">
        <ele>422.21582</ele>
        <time>2026-09-02T13:06:39Z</time>
      </trkpt>
      <trkpt lat="48.3985" lon="7.41082">
        <ele>422.21582</ele>
        <time>2026-09-02T13:06:44Z</time>
      </trkpt>
      <trkpt lat="48.39843" lon="7.41082">
        <ele>422.21582</ele>
        <time>2026-09-02T13:06:49Z</time>
      </trkpt>
      <trkpt lat="48.39839" lon="7.41081">
        <ele>422.21582</ele>
        <time>2026-09-02T13:06:53Z</time>
      </trkpt>
      <trkpt lat="48.39833" lon="7.41081">
        <ele>422.21582</ele>
        <time>2026-09-02T13:06:57Z</time>
      </trkpt>
      <trkpt lat="48.39829" lon="7.41084">
        <ele>422.21582</ele>
        <time>2026-09-02T13:07:04Z</time>
      </trkpt>
      <trkpt lat="48.39825" lon="7.41091">
        <ele>422.21582</ele>
        <time>2026-09-02T13:07:11Z</time>
      </trkpt>
      <trkpt lat="48.39821" lon="7.41096">
        <ele>422.21582</ele>
        <time>2026-09-02T13:07:15Z</time>
      </trkpt>
      <trkpt lat="48.39817" lon="7.41099">
        <ele>422.21582</ele>
        <time>2026-09-02T13:07:21Z</time>
      </trkpt>
      <trkpt lat="48.39812" lon="7.41101">
        <ele>422.21582</ele>
        <time>2026-09-02T13:07:25Z</time>
      </trkpt>
      <trkpt lat="48.3981" lon="7.41109">
        <ele>422.21582</ele>
        <time>2026-09-02T13:07:32Z</time>
      </trkpt>
      <trkpt lat="48.3981" lon="7.41117">
        <ele>422.21582</ele>
        <time>2026-09-02T13:07:36Z</time>
      </trkpt>
      <trkpt lat="48.39809" lon="7.41124">
        <ele>422.21582</ele>
        <time>2026-09-02T13:07:40Z</time>
      </trkpt>
      <trkpt lat="48.39806" lon="7.41132">
        <ele>422.21582</ele>
        <time>2026-09-02T13:07:47Z</time>
      </trkpt>
      <trkpt lat="48.39807" lon="7.4114">
        <ele>422.21582</ele>
        <time>2026-09-02T13:07:51Z</time>
      </trkpt>
      <trkpt lat="48.39806" lon="7.41146">
        <ele>422.21582</ele>
        <time>2026-09-02T13:07:55Z</time>
      </trkpt>
      <trkpt lat="48.39806" lon="7.41154">
        <ele>422.21582</ele>
        <time>2026-09-02T13:08:01Z</time>
      </trkpt>
      <trkpt lat="48.3981" lon="7.41164">
        <ele>422.21582</ele>
        <time>2026-09-02T13:08:08Z</time>
      </trkpt>
      <trkpt lat="48.39813" lon="7.4117">
        <ele>422.21582</ele>
        <time>2026-09-02T13:08:11Z</time>
      </trkpt>
      <trkpt lat="48.39817" lon="7.41174">
        <ele>422.21582</ele>
        <time>2026-09-02T13:08:17Z</time>
      </trkpt>
      <trkpt lat="48.39821" lon="7.41179">
        <ele>422.21582</ele>
        <time>2026-09-02T13:08:22Z</time>
      </trkpt>
      <trkpt lat="48.39825" lon="7.41185">
        <ele>422.21582</ele>
        <time>2026-09-02T13:08:26Z</time>
      </trkpt>
      <trkpt lat="48.3983" lon="7.41191">
        <ele>422.21582</ele>
        <time>2026-09-02T13:08:30Z</time>
      </trkpt>
      <trkpt lat="48.39833" lon="7.41197">
        <ele>422.21582</ele>
        <time>2026-09-02T13:08:37Z</time>
      </trkpt>
      <trkpt lat="48.39834" lon="7.41207">
        <ele>422.21582</ele>
        <time>2026-09-02T13:08:41Z</time>
      </trkpt>
      <trkpt lat="48.39829" lon="7.41206">
        <ele>422.21582</ele>
        <time>2026-09-02T13:08:47Z</time>
      </trkpt>
      <trkpt lat="48.39832" lon="7.41213">
        <ele>422.21582</ele>
        <time>2026-09-02T13:08:48Z</time>
      </trkpt>
      <trkpt lat="48.39837" lon="7.41218">
        <ele>422.21582</ele>
        <time>2026-09-02T13:08:52Z</time>
      </trkpt>
      <trkpt lat="48.39835" lon="7.41225">
        <ele>422.21582</ele>
        <time>2026-09-02T13:08:54Z</time>
      </trkpt>
      <trkpt lat="48.39831" lon="7.41225">
        <ele>422.21582</ele>
        <time>2026-09-02T13:08:58Z</time>
      </trkpt>
      <trkpt lat="48.39826" lon="7.41224">
        <ele>422.21582</ele>
        <time>2026-09-02T13:09:01Z</time>
      </trkpt>
      <trkpt lat="48.39822" lon="7.41222">
        <ele>422.21582</ele>
        <time>2026-09-02T13:09:03Z</time>
      </trkpt>
      <trkpt lat="48.39817" lon="7.41223">
        <ele>422.21582</ele>
        <time>2026-09-02T13:09:07Z</time>
      </trkpt>
      <trkpt lat="48.39813" lon="7.41219">
        <ele>422.21582</ele>
        <time>2026-09-02T13:09:13Z</time>
      </trkpt>
      <trkpt lat="48.39808" lon="7.41222">
        <ele>422.21582</ele>
        <time>2026-09-02T13:09:15Z</time>
      </trkpt>
      <trkpt lat="48.39802" lon="7.41218">
        <ele>422.21582</ele>
        <time>2026-09-02T13:09:32Z</time>
      </trkpt>
      <trkpt lat="48.39796" lon="7.41219">
        <ele>422.21582</ele>
        <time>2026-09-02T13:10:02Z</time>
      </trkpt>
      <trkpt lat="48.39791" lon="7.41223">
        <ele>422.21582</ele>
        <time>2026-09-02T13:10:08Z</time>
      </trkpt>
      <trkpt lat="48.39787" lon="7.41227">
        <ele>422.21582</ele>
        <time>2026-09-02T13:10:15Z</time>
      </trkpt>
      <trkpt lat="48.39782" lon="7.4123">
        <ele>422.21582</ele>
        <time>2026-09-02T13:10:17Z</time>
      </trkpt>
      <trkpt lat="48.39776" lon="7.41233">
        <ele>422.21582</ele>
        <time>2026-09-02T13:10:21Z</time>
      </trkpt>
      <trkpt lat="48.39771" lon="7.41231">
        <ele>422.21582</ele>
        <time>2026-09-02T13:10:28Z</time>
      </trkpt>
      <trkpt lat="48.39766" lon="7.41234">
        <ele>422.21582</ele>
        <time>2026-09-02T13:10:32Z</time>
      </trkpt>
      <trkpt lat="48.39761" lon="7.41236">
        <ele>422.21582</ele>
        <time>2026-09-02T13:10:36Z</time>
      </trkpt>
      <trkpt lat="48.39757" lon="7.4124">
        <ele>422.21582</ele>
        <time>2026-09-02T13:10:41Z</time>
      </trkpt>
      <trkpt lat="48.39753" lon="7.41244">
        <ele>422.21582</ele>
        <time>2026-09-02T13:10:48Z</time>
      </trkpt>
      <trkpt lat="48.3975" lon="7.41249">
        <ele>422.21582</ele>
        <time>2026-09-02T13:10:54Z</time>
      </trkpt>
      <trkpt lat="48.39751" lon="7.41257">
        <ele>422.21582</ele>
        <time>2026-09-02T13:10:58Z</time>
      </trkpt>
      <trkpt lat="48.3975" lon="7.41264">
        <ele>422.21582</ele>
        <time>2026-09-02T13:11:02Z</time>
      </trkpt>
      <trkpt lat="48.39748" lon="7.41271">
        <ele>422.21582</ele>
        <time>2026-09-02T13:11:07Z</time>
      </trkpt>
      <trkpt lat="48.39745" lon="7.41277">
        <ele>422.21582</ele>
        <time>2026-09-02T13:11:12Z</time>
      </trkpt>
      <trkpt lat="48.39742" lon="7.41283">
        <ele>422.21582</ele>
        <time>2026-09-02T13:11:15Z</time>
      </trkpt>
      <trkpt lat="48.39739" lon="7.41289">
        <ele>422.21582</ele>
        <time>2026-09-02T13:11:19Z</time>
      </trkpt>
      <trkpt lat="48.39734" lon="7.41294">
        <ele>422.21582</ele>
        <time>2026-09-02T13:11:22Z</time>
      </trkpt>
      <trkpt lat="48.39729" lon="7.41297">
        <ele>422.21582</ele>
        <time>2026-09-02T13:11:26Z</time>
      </trkpt>
      <trkpt lat="48.39724" lon="7.41299">
        <ele>422.21582</ele>
        <time>2026-09-02T13:11:29Z</time>
      </trkpt>
      <trkpt lat="48.3972" lon="7.41302">
        <ele>422.21582</ele>
        <time>2026-09-02T13:11:33Z</time>
      </trkpt>
      <trkpt lat="48.39714" lon="7.41306">
        <ele>422.21582</ele>
        <time>2026-09-02T13:11:39Z</time>
      </trkpt>
      <trkpt lat="48.3971" lon="7.41309">
        <ele>422.21582</ele>
        <time>2026-09-02T13:11:44Z</time>
      </trkpt>
      <trkpt lat="48.39707" lon="7.41314">
        <ele>422.21582</ele>
        <time>2026-09-02T13:11:49Z</time>
      </trkpt>
      <trkpt lat="48.39703" lon="7.41321">
        <ele>422.21582</ele>
        <time>2026-09-02T13:11:55Z</time>
      </trkpt>
      <trkpt lat="48.39701" lon="7.41328">
        <ele>422.21582</ele>
        <time>2026-09-02T13:11:59Z</time>
      </trkpt>
      <trkpt lat="48.39701" lon="7.41335">
        <ele>422.21582</ele>
        <time>2026-09-02T13:12:03Z</time>
      </trkpt>
      <trkpt lat="48.39702" lon="7.41342">
        <ele>422.21582</ele>
        <time>2026-09-02T13:12:07Z</time>
      </trkpt>
      <trkpt lat="48.39699" lon="7.41349">
        <ele>422.21582</ele>
        <time>2026-09-02T13:12:13Z</time>
      </trkpt>
      <trkpt lat="48.397" lon="7.41357">
        <ele>422.21582</ele>
        <time>2026-09-02T13:12:16Z</time>
      </trkpt>
      <trkpt lat="48.397" lon="7.41366">
        <ele>422.21582</ele>
        <time>2026-09-02T13:12:22Z</time>
      </trkpt>
      <trkpt lat="48.39696" lon="7.41371">
        <ele>422.21582</ele>
        <time>2026-09-02T13:12:25Z</time>
      </trkpt>
      <trkpt lat="48.3969" lon="7.41376">
        <ele>422.21582</ele>
        <time>2026-09-02T13:12:29Z</time>
      </trkpt>
      <trkpt lat="48.39685" lon="7.41377">
        <ele>422.21582</ele>
        <time>2026-09-02T13:12:31Z</time>
      </trkpt>
      <trkpt lat="48.39681" lon="7.4138">
        <ele>422.21582</ele>
        <time>2026-09-02T13:12:36Z</time>
      </trkpt>
      <trkpt lat="48.39678" lon="7.41385">
        <ele>422.21582</ele>
        <time>2026-09-02T13:12:40Z</time>
      </trkpt>
      <trkpt lat="48.39673" lon="7.41389">
        <ele>422.21582</ele>
        <time>2026-09-02T13:12:43Z</time>
      </trkpt>
      <trkpt lat="48.39671" lon="7.41395">
        <ele>422.21582</ele>
        <time>2026-09-02T13:12:48Z</time>
      </trkpt>
      <trkpt lat="48.39667" lon="7.414">
        <ele>422.21582</ele>
        <time>2026-09-02T13:12:52Z</time>
      </trkpt>
      <trkpt lat="48.39665" lon="7.41406">
        <ele>422.21582</ele>
        <time>2026-09-02T13:12:57Z</time>
      </trkpt>
      <trkpt lat="48.39662" lon="7.41412">
        <ele>422.21582</ele>
        <time>2026-09-02T13:13:00Z</time>
      </trkpt>
      <trkpt lat="48.39658" lon="7.41417">
        <ele>422.21582</ele>
        <time>2026-09-02T13:13:04Z</time>
      </trkpt>
      <trkpt lat="48.39652" lon="7.41422">
        <ele>422.21582</ele>
        <time>2026-09-02T13:13:08Z</time>
      </trkpt>
      <trkpt lat="48.39647" lon="7.41423">
        <ele>422.21582</ele>
        <time>2026-09-02T13:13:13Z</time>
      </trkpt>
      <trkpt lat="48.39642" lon="7.41426">
        <ele>422.21582</ele>
        <time>2026-09-02T13:13:18Z</time>
      </trkpt>
      <trkpt lat="48.39638" lon="7.4143">
        <ele>422.21582</ele>
        <time>2026-09-02T13:13:24Z</time>
      </trkpt>
      <trkpt lat="48.39634" lon="7.41435">
        <ele>422.21582</ele>
        <time>2026-09-02T13:13:28Z</time>
      </trkpt>
      <trkpt lat="48.39629" lon="7.41445">
        <ele>422.21582</ele>
        <time>2026-09-02T13:13:32Z</time>
      </trkpt>
      <trkpt lat="48.39623" lon="7.41445">
        <ele>422.21582</ele>
        <time>2026-09-02T13:13:38Z</time>
      </trkpt>
      <trkpt lat="48.39619" lon="7.41441">
        <ele>422.21582</ele>
        <time>2026-09-02T13:13:44Z</time>
      </trkpt>
      <trkpt lat="48.39613" lon="7.4144">
        <ele>422.21582</ele>
        <time>2026-09-02T13:13:46Z</time>
      </trkpt>
      <trkpt lat="48.39608" lon="7.41438">
        <ele>422.21582</ele>
        <time>2026-09-02T13:13:50Z</time>
      </trkpt>
      <trkpt lat="48.39605" lon="7.41431">
        <ele>422.21582</ele>
        <time>2026-09-02T13:13:54Z</time>
      </trkpt>
      <trkpt lat="48.396" lon="7.41428">
        <ele>422.21582</ele>
        <time>2026-09-02T13:14:00Z</time>
      </trkpt>
      <trkpt lat="48.39597" lon="7.41423">
        <ele>422.21582</ele>
        <time>2026-09-02T13:14:04Z</time>
      </trkpt>
      <trkpt lat="48.39592" lon="7.41421">
        <ele>422.21582</ele>
        <time>2026-09-02T13:14:20Z</time>
      </trkpt>
      <trkpt lat="48.39595" lon="7.41427">
        <ele>422.21582</ele>
        <time>2026-09-02T13:15:02Z</time>
      </trkpt>
      <trkpt lat="48.39594" lon="7.41434">
        <ele>422.21582</ele>
        <time>2026-09-02T13:15:08Z</time>
      </trkpt>
      <trkpt lat="48.39592" lon="7.41441">
        <ele>422.21582</ele>
        <time>2026-09-02T13:15:13Z</time>
      </trkpt>
      <trkpt lat="48.39589" lon="7.41447">
        <ele>422.21582</ele>
        <time>2026-09-02T13:15:17Z</time>
      </trkpt>
      <trkpt lat="48.39587" lon="7.41453">
        <ele>422.21582</ele>
        <time>2026-09-02T13:15:20Z</time>
      </trkpt>
      <trkpt lat="48.39586" lon="7.41461">
        <ele>422.21582</ele>
        <time>2026-09-02T13:15:24Z</time>
      </trkpt>
      <trkpt lat="48.39587" lon="7.41469">
        <ele>422.21582</ele>
        <time>2026-09-02T13:15:30Z</time>
      </trkpt>
      <trkpt lat="48.39589" lon="7.41476">
        <ele>422.21582</ele>
        <time>2026-09-02T13:15:33Z</time>
      </trkpt>
      <trkpt lat="48.39592" lon="7.41482">
        <ele>422.21582</ele>
        <time>2026-09-02T13:15:37Z</time>
      </trkpt>
      <trkpt lat="48.39592" lon="7.4149">
        <ele>422.21582</ele>
        <time>2026-09-02T13:15:40Z</time>
      </trkpt>
      <trkpt lat="48.3959" lon="7.41497">
        <ele>422.21582</ele>
        <time>2026-09-02T13:15:45Z</time>
      </trkpt>
      <trkpt lat="48.3959" lon="7.41507">
        <ele>422.21582</ele>
        <time>2026-09-02T13:15:49Z</time>
      </trkpt>
      <trkpt lat="48.39589" lon="7.41515">
        <ele>422.21582</ele>
        <time>2026-09-02T13:15:53Z</time>
      </trkpt>
      <trkpt lat="48.39587" lon="7.41521">
        <ele>422.21582</ele>
        <time>2026-09-02T13:15:56Z</time>
      </trkpt>
      <trkpt lat="48.39586" lon="7.41528">
        <ele>422.21582</ele>
        <time>2026-09-02T13:16:01Z</time>
      </trkpt>
      <trkpt lat="48.39589" lon="7.41535">
        <ele>422.21582</ele>
        <time>2026-09-02T13:16:06Z</time>
      </trkpt>
      <trkpt lat="48.39592" lon="7.4154">
        <ele>422.21582</ele>
        <time>2026-09-02T13:16:11Z</time>
      </trkpt>
      <trkpt lat="48.39596" lon="7.41548">
        <ele>422.21582</ele>
        <time>2026-09-02T13:16:16Z</time>
      </trkpt>
      <trkpt lat="48.396" lon="7.41555">
        <ele>422.21582</ele>
        <time>2026-09-02T13:16:19Z</time>
      </trkpt>
      <trkpt lat="48.39604" lon="7.41562">
        <ele>422.21582</ele>
        <time>2026-09-02T13:16:22Z</time>
      </trkpt>
      <trkpt lat="48.39605" lon="7.4157">
        <ele>422.21582</ele>
        <time>2026-09-02T13:16:28Z</time>
      </trkpt>
      <trkpt lat="48.39609" lon="7.41577">
        <ele>422.21582</ele>
        <time>2026-09-02T13:16:32Z</time>
      </trkpt>
      <trkpt lat="48.39612" lon="7.41584">
        <ele>422.21582</ele>
        <time>2026-09-02T13:16:37Z</time>
      </trkpt>
      <trkpt lat="48.39613" lon="7.41593">
        <ele>422.21582</ele>
        <time>2026-09-02T13:16:47Z</time>
      </trkpt>
      <trkpt lat="48.39616" lon="7.41601">
        <ele>422.21582</ele>
        <time>2026-09-02T13:16:52Z</time>
      </trkpt>
      <trkpt lat="48.39619" lon="7.41607">
        <ele>422.21582</ele>
        <time>2026-09-02T13:16:56Z</time>
      </trkpt>
      <trkpt lat="48.39619" lon="7.41614">
        <ele>422.21582</ele>
        <time>2026-09-02T13:17:01Z</time>
      </trkpt>
      <trkpt lat="48.39622" lon="7.41621">
        <ele>422.21582</ele>
        <time>2026-09-02T13:17:04Z</time>
      </trkpt>
      <trkpt lat="48.39626" lon="7.41629">
        <ele>422.21582</ele>
        <time>2026-09-02T13:17:07Z</time>
      </trkpt>
      <trkpt lat="48.39626" lon="7.41636">
        <ele>422.21582</ele>
        <time>2026-09-02T13:17:11Z</time>
      </trkpt>
      <trkpt lat="48.39628" lon="7.41644">
        <ele>422.21582</ele>
        <time>2026-09-02T13:17:16Z</time>
      </trkpt>
      <trkpt lat="48.3963" lon="7.41654">
        <ele>422.21582</ele>
        <time>2026-09-02T13:17:20Z</time>
      </trkpt>
      <trkpt lat="48.3963" lon="7.41661">
        <ele>422.21582</ele>
        <time>2026-09-02T13:17:24Z</time>
      </trkpt>
      <trkpt lat="48.3963" lon="7.41668">
        <ele>420.02737</ele>
        <time>2026-09-02T13:17:28Z</time>
      </trkpt>
      <trkpt lat="48.39631" lon="7.41675">
        <ele>417.8389</ele>
        <time>2026-09-02T13:17:33Z</time>
      </trkpt>
      <trkpt lat="48.39632" lon="7.41684">
        <ele>415.65045</ele>
        <time>2026-09-02T13:17:36Z</time>
      </trkpt>
      <trkpt lat="48.39631" lon="7.41691">
        <ele>413.46198</ele>
        <time>2026-09-02T13:17:41Z</time>
      </trkpt>
      <trkpt lat="48.39636" lon="7.41698">
        <ele>411.27353</ele>
        <time>2026-09-02T13:17:45Z</time>
      </trkpt>
      <trkpt lat="48.39638" lon="7.41704">
        <ele>411.27353</ele>
        <time>2026-09-02T13:17:48Z</time>
      </trkpt>
      <trkpt lat="48.39638" lon="7.41714">
        <ele>411.27353</ele>
        <time>2026-09-02T13:17:53Z</time>
      </trkpt>
      <trkpt lat="48.3964" lon="7.41721">
        <ele>411.27353</ele>
        <time>2026-09-02T13:18:02Z</time>
      </trkpt>
      <trkpt lat="48.39642" lon="7.41728">
        <ele>411.27353</ele>
        <time>2026-09-02T13:18:07Z</time>
      </trkpt>
      <trkpt lat="48.39643" lon="7.41736">
        <ele>411.27353</ele>
        <time>2026-09-02T13:18:12Z</time>
      </trkpt>
      <trkpt lat="48.39646" lon="7.41743">
        <ele>411.27353</ele>
        <time>2026-09-02T13:18:15Z</time>
      </trkpt>
      <trkpt lat="48.39644" lon="7.4175">
        <ele>408.97897</ele>
        <time>2026-09-02T13:18:19Z</time>
      </trkpt>
      <trkpt lat="48.39645" lon="7.41758">
        <ele>406.68445</ele>
        <time>2026-09-02T13:18:23Z</time>
      </trkpt>
      <trkpt lat="48.39647" lon="7.41764">
        <ele>404.3899</ele>
        <time>2026-09-02T13:18:28Z</time>
      </trkpt>
      <trkpt lat="48.39652" lon="7.41772">
        <ele>402.09537</ele>
        <time>2026-09-02T13:18:33Z</time>
      </trkpt>
      <trkpt lat="48.39648" lon="7.41779">
        <ele>399.8008</ele>
        <time>2026-09-02T13:18:37Z</time>
      </trkpt>
      <trkpt lat="48.39648" lon="7.41787">
        <ele>399.8008</ele>
        <time>2026-09-02T13:18:41Z</time>
      </trkpt>
      <trkpt lat="48.39645" lon="7.41791">
        <ele>399.8008</ele>
        <time>2026-09-02T13:18:45Z</time>
      </trkpt>
      <trkpt lat="48.39644" lon="7.41798">
        <ele>399.8008</ele>
        <time>2026-09-02T13:18:48Z</time>
      </trkpt>
      <trkpt lat="48.39644" lon="7.41807">
        <ele>399.8008</ele>
        <time>2026-09-02T13:18:54Z</time>
      </trkpt>
      <trkpt lat="48.39646" lon="7.41815">
        <ele>399.8008</ele>
        <time>2026-09-02T13:19:00Z</time>
      </trkpt>
      <trkpt lat="48.39644" lon="7.41822">
        <ele>397.73383</ele>
        <time>2026-09-02T13:19:04Z</time>
      </trkpt>
      <trkpt lat="48.39644" lon="7.4183">
        <ele>395.66684</ele>
        <time>2026-09-02T13:19:08Z</time>
      </trkpt>
      <trkpt lat="48.39645" lon="7.41839">
        <ele>393.59985</ele>
        <time>2026-09-02T13:19:13Z</time>
      </trkpt>
      <trkpt lat="48.39648" lon="7.41847">
        <ele>391.53287</ele>
        <time>2026-09-02T13:19:17Z</time>
      </trkpt>
      <trkpt lat="48.39647" lon="7.41854">
        <ele>389.46588</ele>
        <time>2026-09-02T13:19:23Z</time>
      </trkpt>
      <trkpt lat="48.3965" lon="7.41862">
        <ele>389.46588</ele>
        <time>2026-09-02T13:19:27Z</time>
      </trkpt>
      <trkpt lat="48.39652" lon="7.41869">
        <ele>389.46588</ele>
        <time>2026-09-02T13:19:31Z</time>
      </trkpt>
      <trkpt lat="48.3965" lon="7.41876">
        <ele>389.46588</ele>
        <time>2026-09-02T13:19:36Z</time>
      </trkpt>
      <trkpt lat="48.39651" lon="7.41884">
        <ele>389.46588</ele>
        <time>2026-09-02T13:19:42Z</time>
      </trkpt>
      <trkpt lat="48.39652" lon="7.41891">
        <ele>389.46588</ele>
        <time>2026-09-02T13:19:48Z</time>
      </trkpt>
      <trkpt lat="48.39654" lon="7.41899">
        <ele>389.46588</ele>
        <time>2026-09-02T13:19:51Z</time>
      </trkpt>
      <trkpt lat="48.39656" lon="7.41905">
        <ele>389.46588</ele>
        <time>2026-09-02T13:19:54Z</time>
      </trkpt>
      <trkpt lat="48.39661" lon="7.41912">
        <ele>389.46588</ele>
        <time>2026-09-02T13:19:58Z</time>
      </trkpt>
      <trkpt lat="48.39666" lon="7.41915">
        <ele>389.46588</ele>
        <time>2026-09-02T13:20:03Z</time>
      </trkpt>
      <trkpt lat="48.39668" lon="7.41922">
        <ele>389.46588</ele>
        <time>2026-09-02T13:20:31Z</time>
      </trkpt>
      <trkpt lat="48.39672" lon="7.41926">
        <ele>389.46588</ele>
        <time>2026-09-02T13:20:35Z</time>
      </trkpt>
      <trkpt lat="48.39679" lon="7.41923">
        <ele>389.46588</ele>
        <time>2026-09-02T13:20:43Z</time>
      </trkpt>
      <trkpt lat="48.39683" lon="7.41927">
        <ele>389.46588</ele>
        <time>2026-09-02T13:20:48Z</time>
      </trkpt>
      <trkpt lat="48.39687" lon="7.4193">
        <ele>389.46588</ele>
        <time>2026-09-02T13:20:53Z</time>
      </trkpt>
      <trkpt lat="48.39692" lon="7.41933">
        <ele>389.46588</ele>
        <time>2026-09-02T13:20:56Z</time>
      </trkpt>
      <trkpt lat="48.39697" lon="7.41934">
        <ele>389.46588</ele>
        <time>2026-09-02T13:21:01Z</time>
      </trkpt>
      <trkpt lat="48.39701" lon="7.41941">
        <ele>389.46588</ele>
        <time>2026-09-02T13:21:05Z</time>
      </trkpt>
      <trkpt lat="48.39706" lon="7.41946">
        <ele>389.46588</ele>
        <time>2026-09-02T13:21:08Z</time>
      </trkpt>
      <trkpt lat="48.3971" lon="7.4195">
        <ele>389.46588</ele>
        <time>2026-09-02T13:21:13Z</time>
      </trkpt>
      <trkpt lat="48.39713" lon="7.41954">
        <ele>389.46588</ele>
        <time>2026-09-02T13:21:18Z</time>
      </trkpt>
      <trkpt lat="48.39717" lon="7.41958">
        <ele>389.46588</ele>
        <time>2026-09-02T13:21:22Z</time>
      </trkpt>
      <trkpt lat="48.39722" lon="7.41961">
        <ele>389.46588</ele>
        <time>2026-09-02T13:21:28Z</time>
      </trkpt>
      <trkpt lat="48.39725" lon="7.41967">
        <ele>389.46588</ele>
        <time>2026-09-02T13:21:32Z</time>
      </trkpt>
      <trkpt lat="48.39729" lon="7.41972">
        <ele>389.46588</ele>
        <time>2026-09-02T13:21:37Z</time>
      </trkpt>
      <trkpt lat="48.39733" lon="7.41976">
        <ele>389.46588</ele>
        <time>2026-09-02T13:21:42Z</time>
      </trkpt>
      <trkpt lat="48.39738" lon="7.4198">
        <ele>389.46588</ele>
        <time>2026-09-02T13:21:50Z</time>
      </trkpt>
      <trkpt lat="48.39742" lon="7.41985">
        <ele>389.46588</ele>
        <time>2026-09-02T13:21:54Z</time>
      </trkpt>
      <trkpt lat="48.39746" lon="7.41992">
        <ele>389.46588</ele>
        <time>2026-09-02T13:21:58Z</time>
      </trkpt>
      <trkpt lat="48.39748" lon="7.41999">
        <ele>389.46588</ele>
        <time>2026-09-02T13:22:03Z</time>
      </trkpt>
      <trkpt lat="48.39753" lon="7.42002">
        <ele>389.46588</ele>
        <time>2026-09-02T13:22:07Z</time>
      </trkpt>
      <trkpt lat="48.39757" lon="7.42006">
        <ele>389.46588</ele>
        <time>2026-09-02T13:22:12Z</time>
      </trkpt>
      <trkpt lat="48.3976" lon="7.42013">
        <ele>389.46588</ele>
        <time>2026-09-02T13:22:18Z</time>
      </trkpt>
      <trkpt lat="48.39763" lon="7.4202">
        <ele>389.46588</ele>
        <time>2026-09-02T13:22:22Z</time>
      </trkpt>
      <trkpt lat="48.39767" lon="7.42024">
        <ele>389.46588</ele>
        <time>2026-09-02T13:22:26Z</time>
      </trkpt>
      <trkpt lat="48.39771" lon="7.42028">
        <ele>389.46588</ele>
        <time>2026-09-02T13:22:29Z</time>
      </trkpt>
      <trkpt lat="48.39776" lon="7.42034">
        <ele>389.46588</ele>
        <time>2026-09-02T13:22:40Z</time>
      </trkpt>
      <trkpt lat="48.3978" lon="7.42038">
        <ele>389.46588</ele>
        <time>2026-09-02T13:22:42Z</time>
      </trkpt>
      <trkpt lat="48.39786" lon="7.42044">
        <ele>389.46588</ele>
        <time>2026-09-02T13:22:48Z</time>
      </trkpt>
      <trkpt lat="48.39787" lon="7.42053">
        <ele>389.46588</ele>
        <time>2026-09-02T13:22:57Z</time>
      </trkpt>
      <trkpt lat="48.39793" lon="7.42052">
        <ele>389.46588</ele>
        <time>2026-09-02T13:23:00Z</time>
      </trkpt>
      <trkpt lat="48.39794" lon="7.4206">
        <ele>389.46588</ele>
        <time>2026-09-02T13:23:04Z</time>
      </trkpt>
      <trkpt lat="48.3979" lon="7.42057">
        <ele>389.46588</ele>
        <time>2026-09-02T13:23:16Z</time>
      </trkpt>
      <trkpt lat="48.39798" lon="7.42058">
        <ele>389.46588</ele>
        <time>2026-09-02T13:23:20Z</time>
      </trkpt>
      <trkpt lat="48.39802" lon="7.42064">
        <ele>389.46588</ele>
        <time>2026-09-02T13:23:27Z</time>
      </trkpt>
      <trkpt lat="48.39808" lon="7.42066">
        <ele>389.46588</ele>
        <time>2026-09-02T13:23:30Z</time>
      </trkpt>
      <trkpt lat="48.39814" lon="7.42067">
        <ele>389.46588</ele>
        <time>2026-09-02T13:23:35Z</time>
      </trkpt>
      <trkpt lat="48.39817" lon="7.4207">
        <ele>389.46588</ele>
        <time>2026-09-02T13:23:42Z</time>
      </trkpt>
      <trkpt lat="48.39823" lon="7.42071">
        <ele>387.43695</ele>
        <time>2026-09-02T13:23:48Z</time>
      </trkpt>
      <trkpt lat="48.39829" lon="7.42076">
        <ele>385.40802</ele>
        <time>2026-09-02T13:23:51Z</time>
      </trkpt>
      <trkpt lat="48.39829" lon="7.42069">
        <ele>383.37912</ele>
        <time>2026-09-02T13:24:00Z</time>
      </trkpt>
      <trkpt lat="48.39834" lon="7.42076">
        <ele>381.3502</ele>
        <time>2026-09-02T13:24:05Z</time>
      </trkpt>
      <trkpt lat="48.39839" lon="7.42079">
        <ele>379.32126</ele>
        <time>2026-09-02T13:24:08Z</time>
      </trkpt>
      <trkpt lat="48.39843" lon="7.42084">
        <ele>379.32126</ele>
        <time>2026-09-02T13:24:11Z</time>
      </trkpt>
      <trkpt lat="48.39845" lon="7.4209">
        <ele>379.32126</ele>
        <time>2026-09-02T13:24:19Z</time>
      </trkpt>
      <trkpt lat="48.39851" lon="7.42091">
        <ele>379.32126</ele>
        <time>2026-09-02T13:24:29Z</time>
      </trkpt>
      <trkpt lat="48.39856" lon="7.42093">
        <ele>379.32126</ele>
        <time>2026-09-02T13:24:38Z</time>
      </trkpt>
      <trkpt lat="48.39861" lon="7.42097">
        <ele>379.32126</ele>
        <time>2026-09-02T13:24:41Z</time>
      </trkpt>
      <trkpt lat="48.39864" lon="7.42103">
        <ele>379.32126</ele>
        <time>2026-09-02T13:24:45Z</time>
      </trkpt>
      <trkpt lat="48.39869" lon="7.42107">
        <ele>377.28857</ele>
        <time>2026-09-02T13:24:49Z</time>
      </trkpt>
      <trkpt lat="48.39873" lon="7.42112">
        <ele>375.2559</ele>
        <time>2026-09-02T13:24:56Z</time>
      </trkpt>
      <trkpt lat="48.39877" lon="7.42117">
        <ele>373.22318</ele>
        <time>2026-09-02T13:24:58Z</time>
      </trkpt>
      <trkpt lat="48.39877" lon="7.42126">
        <ele>371.1905</ele>
        <time>2026-09-02T13:25:03Z</time>
      </trkpt>
      <trkpt lat="48.39881" lon="7.42128">
        <ele>369.1578</ele>
        <time>2026-09-02T13:25:18Z</time>
      </trkpt>
      <trkpt lat="48.39885" lon="7.42134">
        <ele>369.1578</ele>
        <time>2026-09-02T13:25:20Z</time>
      </trkpt>
      <trkpt lat="48.39889" lon="7.42139">
        <ele>369.1578</ele>
        <time>2026-09-02T13:25:25Z</time>
      </trkpt>
      <trkpt lat="48.3989" lon="7.42145">
        <ele>369.1578</ele>
        <time>2026-09-02T13:25:35Z</time>
      </trkpt>
      <trkpt lat="48.39894" lon="7.42154">
        <ele>369.1578</ele>
        <time>2026-09-02T13:25:41Z</time>
      </trkpt>
      <trkpt lat="48.39895" lon="7.42164">
        <ele>369.1578</ele>
        <time>2026-09-02T13:25:48Z</time>
      </trkpt>
      <trkpt lat="48.39898" lon="7.4217">
        <ele>369.1578</ele>
        <time>2026-09-02T13:25:56Z</time>
      </trkpt>
      <trkpt lat="48.39899" lon="7.42177">
        <ele>369.1578</ele>
        <time>2026-09-02T13:26:02Z</time>
      </trkpt>
      <trkpt lat="48.39903" lon="7.4218">
        <ele>369.1578</ele>
        <time>2026-09-02T13:26:03Z</time>
      </trkpt>
      <trkpt lat="48.399" lon="7.42187">
        <ele>369.1578</ele>
        <time>2026-09-02T13:26:12Z</time>
      </trkpt>
      <trkpt lat="48.39905" lon="7.42189">
        <ele>367.14575</ele>
        <time>2026-09-02T13:26:26Z</time>
      </trkpt>
      <trkpt lat="48.39899" lon="7.42191">
        <ele>365.1337</ele>
        <time>2026-09-02T13:26:33Z</time>
      </trkpt>
      <trkpt lat="48.39905" lon="7.42191">
        <ele>363.12167</ele>
        <time>2026-09-02T13:26:39Z</time>
      </trkpt>
      <trkpt lat="48.39909" lon="7.42197">
        <ele>361.10962</ele>
        <time>2026-09-02T13:26:46Z</time>
      </trkpt>
      <trkpt lat="48.39912" lon="7.42203">
        <ele>359.09756</ele>
        <time>2026-09-02T13:26:55Z</time>
      </trkpt>
      <trkpt lat="48.39916" lon="7.4221">
        <ele>359.09756</ele>
        <time>2026-09-02T13:26:59Z</time>
      </trkpt>
      <trkpt lat="48.39915" lon="7.42218">
        <ele>359.09756</ele>
        <time>2026-09-02T13:27:05Z</time>
      </trkpt>
      <trkpt lat="48.39918" lon="7.42226">
        <ele>359.09756</ele>
        <time>2026-09-02T13:27:09Z</time>
      </trkpt>
      <trkpt lat="48.39916" lon="7.42233">
        <ele>359.09756</ele>
        <time>2026-09-02T13:27:14Z</time>
      </trkpt>
      <trkpt lat="48.39917" lon="7.4224">
        <ele>359.09756</ele>
        <time>2026-09-02T13:27:18Z</time>
      </trkpt>
      <trkpt lat="48.39916" lon="7.42247">
        <ele>359.09756</ele>
        <time>2026-09-02T13:27:22Z</time>
      </trkpt>
      <trkpt lat="48.39918" lon="7.42254">
        <ele>359.09756</ele>
        <time>2026-09-02T13:27:26Z</time>
      </trkpt>
      <trkpt lat="48.39919" lon="7.42263">
        <ele>357.03696</ele>
        <time>2026-09-02T13:27:30Z</time>
      </trkpt>
      <trkpt lat="48.3992" lon="7.42271">
        <ele>354.97632</ele>
        <time>2026-09-02T13:27:36Z</time>
      </trkpt>
      <trkpt lat="48.39917" lon="7.42278">
        <ele>352.9157</ele>
        <time>2026-09-02T13:27:39Z</time>
      </trkpt>
      <trkpt lat="48.39915" lon="7.42285">
        <ele>350.85507</ele>
        <time>2026-09-02T13:27:45Z</time>
      </trkpt>
      <trkpt lat="48.39912" lon="7.42291">
        <ele>348.79446</ele>
        <time>2026-09-02T13:27:49Z</time>
      </trkpt>
      <trkpt lat="48.3991" lon="7.42298">
        <ele>348.79446</ele>
        <time>2026-09-02T13:27:53Z</time>
      </trkpt>
      <trkpt lat="48.39912" lon="7.42305">
        <ele>348.79446</ele>
        <time>2026-09-02T13:27:57Z</time>
      </trkpt>
      <trkpt lat="48.39911" lon="7.42311">
        <ele>348.79446</ele>
        <time>2026-09-02T13:28:06Z</time>
      </trkpt>
      <trkpt lat="48.39908" lon="7.42319">
        <ele>348.79446</ele>
        <time>2026-09-02T13:28:15Z</time>
      </trkpt>
      <trkpt lat="48.39904" lon="7.42317">
        <ele>348.79446</ele>
        <time>2026-09-02T13:28:20Z</time>
      </trkpt>
      <trkpt lat="48.39909" lon="7.42316">
        <ele>348.79446</ele>
        <time>2026-09-02T13:28:23Z</time>
      </trkpt>
      <trkpt lat="48.39913" lon="7.42312">
        <ele>348.79446</ele>
        <time>2026-09-02T13:28:28Z</time>
      </trkpt>
      <trkpt lat="48.39918" lon="7.42314">
        <ele>348.79446</ele>
        <time>2026-09-02T13:28:32Z</time>
      </trkpt>
      <trkpt lat="48.39923" lon="7.42314">
        <ele>348.79446</ele>
        <time>2026-09-02T13:28:35Z</time>
      </trkpt>
      <trkpt lat="48.39927" lon="7.42318">
        <ele>346.46735</ele>
        <time>2026-09-02T13:28:40Z</time>
      </trkpt>
      <trkpt lat="48.39935" lon="7.42315">
        <ele>344.14023</ele>
        <time>2026-09-02T13:28:46Z</time>
      </trkpt>
      <trkpt lat="48.3994" lon="7.42311">
        <ele>341.81314</ele>
        <time>2026-09-02T13:28:53Z</time>
      </trkpt>
      <trkpt lat="48.39945" lon="7.42313">
        <ele>339.48602</ele>
        <time>2026-09-02T13:28:58Z</time>
      </trkpt>
      <trkpt lat="48.39949" lon="7.42308">
        <ele>337.1589</ele>
        <time>2026-09-02T13:29:03Z</time>
      </trkpt>
      <trkpt lat="48.39953" lon="7.42303">
        <ele>337.1589</ele>
        <time>2026-09-02T13:29:10Z</time>
      </trkpt>
      <trkpt lat="48.39958" lon="7.42304">
        <ele>337.1589</ele>
        <time>2026-09-02T13:29:12Z</time>
      </trkpt>
      <trkpt lat="48.39955" lon="7.42312">
        <ele>337.1589</ele>
        <time>2026-09-02T13:29:23Z</time>
      </trkpt>
      <trkpt lat="48.39953" lon="7.42319">
        <ele>337.1589</ele>
        <time>2026-09-02T13:29:31Z</time>
      </trkpt>
      <trkpt lat="48.39952" lon="7.42326">
        <ele>337.1589</ele>
        <time>2026-09-02T13:29:38Z</time>
      </trkpt>
      <trkpt lat="48.39949" lon="7.42332">
        <ele>337.1589</ele>
        <time>2026-09-02T13:29:42Z</time>
      </trkpt>
      <trkpt lat="48.39948" lon="7.4234">
        <ele>337.1589</ele>
        <time>2026-09-02T13:29:47Z</time>
      </trkpt>
      <trkpt lat="48.39945" lon="7.42347">
        <ele>337.1589</ele>
        <time>2026-09-02T13:29:49Z</time>
      </trkpt>
      <trkpt lat="48.39941" lon="7.42351">
        <ele>337.1589</ele>
        <time>2026-09-02T13:29:59Z</time>
      </trkpt>
      <trkpt lat="48.3994" lon="7.42359">
        <ele>335.10916</ele>
        <time>2026-09-02T13:30:05Z</time>
      </trkpt>
      <trkpt lat="48.39935" lon="7.42362">
        <ele>333.05942</ele>
        <time>2026-09-02T13:30:09Z</time>
      </trkpt>
      <trkpt lat="48.39931" lon="7.42367">
        <ele>331.00967</ele>
        <time>2026-09-02T13:30:15Z</time>
      </trkpt>
      <trkpt lat="48.39927" lon="7.42372">
        <ele>328.95993</ele>
        <time>2026-09-02T13:30:19Z</time>
      </trkpt>
      <trkpt lat="48.39925" lon="7.42378">
        <ele>326.9102</ele>
        <time>2026-09-02T13:30:22Z</time>
      </trkpt>
      <trkpt lat="48.3992" lon="7.42382">
        <ele>326.9102</ele>
        <time>2026-09-02T13:30:30Z</time>
      </trkpt>
      <trkpt lat="48.39921" lon="7.4239">
        <ele>326.9102</ele>
        <time>2026-09-02T13:30:32Z</time>
      </trkpt>
      <trkpt lat="48.39919" lon="7.42399">
        <ele>326.9102</ele>
        <time>2026-09-02T13:30:37Z</time>
      </trkpt>
      <trkpt lat="48.39917" lon="7.42406">
        <ele>326.9102</ele>
        <time>2026-09-02T13:30:48Z</time>
      </trkpt>
      <trkpt lat="48.39913" lon="7.42412">
        <ele>326.9102</ele>
        <time>2026-09-02T13:30:50Z</time>
      </trkpt>
      <trkpt lat="48.39909" lon="7.42418">
        <ele>326.9102</ele>
        <time>2026-09-02T13:30:57Z</time>
      </trkpt>
      <trkpt lat="48.39906" lon="7.42426">
        <ele>326.9102</ele>
        <time>2026-09-02T13:31:01Z</time>
      </trkpt>
      <trkpt lat="48.3991" lon="7.42432">
        <ele>326.9102</ele>
        <time>2026-09-02T13:31:05Z</time>
      </trkpt>
      <trkpt lat="48.39906" lon="7.4244">
        <ele>326.9102</ele>
        <time>2026-09-02T13:31:12Z</time>
      </trkpt>
      <trkpt lat="48.39911" lon="7.42445">
        <ele>326.9102</ele>
        <time>2026-09-02T13:31:16Z</time>
      </trkpt>
      <trkpt lat="48.3991" lon="7.42453">
        <ele>326.9102</ele>
        <time>2026-09-02T13:31:22Z</time>
      </trkpt>
      <trkpt lat="48.39914" lon="7.42458">
        <ele>326.9102</ele>
        <time>2026-09-02T13:31:28Z</time>
      </trkpt>
      <trkpt lat="48.39921" lon="7.42463">
        <ele>326.9102</ele>
        <time>2026-09-02T13:31:32Z</time>
      </trkpt>
      <trkpt lat="48.39922" lon="7.42472">
        <ele>326.9102</ele>
        <time>2026-09-02T13:31:40Z</time>
      </trkpt>
      <trkpt lat="48.39926" lon="7.42477">
        <ele>326.9102</ele>
        <time>2026-09-02T13:31:42Z</time>
      </trkpt>
      <trkpt lat="48.39924" lon="7.42485">
        <ele>324.79837</ele>
        <time>2026-09-02T13:31:48Z</time>
      </trkpt>
      <trkpt lat="48.39924" lon="7.42492">
        <ele>322.68655</ele>
        <time>2026-09-02T13:31:52Z</time>
      </trkpt>
      <trkpt lat="48.39925" lon="7.42499">
        <ele>320.57474</ele>
        <time>2026-09-02T13:31:57Z</time>
      </trkpt>
      <trkpt lat="48.39926" lon="7.42509">
        <ele>318.46292</ele>
        <time>2026-09-02T13:32:02Z</time>
      </trkpt>
      <trkpt lat="48.39927" lon="7.42516">
        <ele>316.3511</ele>
        <time>2026-09-02T13:32:07Z</time>
      </trkpt>
      <trkpt lat="48.39928" lon="7.42525">
        <ele>316.3511</ele>
        <time>2026-09-02T13:32:12Z</time>
      </trkpt>
      <trkpt lat="48.39929" lon="7.42531">
        <ele>316.3511</ele>
        <time>2026-09-02T13:32:15Z</time>
      </trkpt>
      <trkpt lat="48.39929" lon="7.42538">
        <ele>316.3511</ele>
        <time>2026-09-02T13:32:23Z</time>
      </trkpt>
      <trkpt lat="48.39931" lon="7.42546">
        <ele>316.3511</ele>
        <time>2026-09-02T13:32:28Z</time>
      </trkpt>
      <trkpt lat="48.39934" lon="7.42552">
        <ele>316.3511</ele>
        <time>2026-09-02T13:32:33Z</time>
      </trkpt>
      <trkpt lat="48.39937" lon="7.42559">
        <ele>316.3511</ele>
        <time>2026-09-02T13:32:38Z</time>
      </trkpt>
      <trkpt lat="48.39942" lon="7.42565">
        <ele>316.3511</ele>
        <time>2026-09-02T13:32:43Z</time>
      </trkpt>
      <trkpt lat="48.39941" lon="7.42573">
        <ele>316.3511</ele>
        <time>2026-09-02T13:32:50Z</time>
      </trkpt>
      <trkpt lat="48.39947" lon="7.42575">
        <ele>316.3511</ele>
        <time>2026-09-02T13:32:52Z</time>
      </trkpt>
      <trkpt lat="48.39951" lon="7.42582">
        <ele>314.33322</ele>
        <time>2026-09-02T13:32:55Z</time>
      </trkpt>
      <trkpt lat="48.39948" lon="7.42588">
        <ele>312.3153</ele>
        <time>2026-09-02T13:32:59Z</time>
      </trkpt>
      <trkpt lat="48.39952" lon="7.42593">
        <ele>310.29742</ele>
        <time>2026-09-02T13:33:04Z</time>
      </trkpt>
      <trkpt lat="48.39956" lon="7.42597">
        <ele>308.2795</ele>
        <time>2026-09-02T13:33:06Z</time>
      </trkpt>
      <trkpt lat="48.39959" lon="7.42603">
        <ele>306.26163</ele>
        <time>2026-09-02T13:33:12Z</time>
      </trkpt>
      <trkpt lat="48.39963" lon="7.42606">
        <ele>306.26163</ele>
        <time>2026-09-02T13:33:16Z</time>
      </trkpt>
      <trkpt lat="48.39967" lon="7.42606">
        <ele>306.26163</ele>
        <time>2026-09-02T13:33:23Z</time>
      </trkpt>
      <trkpt lat="48.39972" lon="7.42612">
        <ele>306.26163</ele>
        <time>2026-09-02T13:33:25Z</time>
      </trkpt>
      <trkpt lat="48.39977" lon="7.42615">
        <ele>306.26163</ele>
        <time>2026-09-02T13:33:30Z</time>
      </trkpt>
      <trkpt lat="48.39982" lon="7.42616">
        <ele>306.26163</ele>
        <time>2026-09-02T13:33:37Z</time>
      </trkpt>
      <trkpt lat="48.39986" lon="7.42621">
        <ele>306.26163</ele>
        <time>2026-09-02T13:33:40Z</time>
      </trkpt>
      <trkpt lat="48.39993" lon="7.42624">
        <ele>306.26163</ele>
        <time>2026-09-02T13:33:43Z</time>
      </trkpt>
      <trkpt lat="48.39996" lon="7.4263">
        <ele>306.26163</ele>
        <time>2026-09-02T13:33:46Z</time>
      </trkpt>
      <trkpt lat="48.39997" lon="7.42638">
        <ele>306.26163</ele>
        <time>2026-09-02T13:33:53Z</time>
      </trkpt>
      <trkpt lat="48.40002" lon="7.42639">
        <ele>306.26163</ele>
        <time>2026-09-02T13:34:03Z</time>
      </trkpt>
      <trkpt lat="48.40008" lon="7.42642">
        <ele>306.26163</ele>
        <time>2026-09-02T13:34:12Z</time>
      </trkpt>
      <trkpt lat="48.40014" lon="7.42646">
        <ele>306.26163</ele>
        <time>2026-09-02T13:34:22Z</time>
      </trkpt>
      <trkpt lat="48.40013" lon="7.42658">
        <ele>306.26163</ele>
        <time>2026-09-02T13:34:26Z</time>
      </trkpt>
      <trkpt lat="48.40014" lon="7.42665">
        <ele>306.26163</ele>
        <time>2026-09-02T13:34:28Z</time>
      </trkpt>
      <trkpt lat="48.40012" lon="7.42672">
        <ele>306.26163</ele>
        <time>2026-09-02T13:34:33Z</time>
      </trkpt>
      <trkpt lat="48.40008" lon="7.42677">
        <ele>304.24802</ele>
        <time>2026-09-02T13:34:37Z</time>
      </trkpt>
      <trkpt lat="48.40009" lon="7.42684">
        <ele>302.23444</ele>
        <time>2026-09-02T13:34:46Z</time>
      </trkpt>
      <trkpt lat="48.40012" lon="7.42691">
        <ele>300.22083</ele>
        <time>2026-09-02T13:34:49Z</time>
      </trkpt>
      <trkpt lat="48.4001" lon="7.42699">
        <ele>298.20724</ele>
        <time>2026-09-02T13:34:53Z</time>
      </trkpt>
      <trkpt lat="48.40006" lon="7.42703">
        <ele>296.19363</ele>
        <time>2026-09-02T13:34:58Z</time>
      </trkpt>
      <trkpt lat="48.40006" lon="7.42711">
        <ele>296.19363</ele>
        <time>2026-09-02T13:35:02Z</time>
      </trkpt>
      <trkpt lat="48.40004" lon="7.42718">
        <ele>296.19363</ele>
        <time>2026-09-02T13:35:05Z</time>
      </trkpt>
      <trkpt lat="48.40002" lon="7.42725">
        <ele>296.19363</ele>
        <time>2026-09-02T13:35:10Z</time>
      </trkpt>
      <trkpt lat="48.39998" lon="7.4273">
        <ele>296.19363</ele>
        <time>2026-09-02T13:35:17Z</time>
      </trkpt>
      <trkpt lat="48.40004" lon="7.42733">
        <ele>296.19363</ele>
        <time>2026-09-02T13:35:26Z</time>
      </trkpt>
      <trkpt lat="48.40009" lon="7.42733">
        <ele>296.19363</ele>
        <time>2026-09-02T13:35:29Z</time>
      </trkpt>
      <trkpt lat="48.40014" lon="7.42728">
        <ele>296.19363</ele>
        <time>2026-09-02T13:35:37Z</time>
      </trkpt>
      <trkpt lat="48.40018" lon="7.42726">
        <ele>296.19363</ele>
        <time>2026-09-02T13:35:41Z</time>
      </trkpt>
      <trkpt lat="48.40023" lon="7.42725">
        <ele>296.19363</ele>
        <time>2026-09-02T13:35:49Z</time>
      </trkpt>
      <trkpt lat="48.40028" lon="7.42724">
        <ele>296.19363</ele>
        <time>2026-09-02T13:35:55Z</time>
      </trkpt>
      <trkpt lat="48.40033" lon="7.42727">
        <ele>296.19363</ele>
        <time>2026-09-02T13:35:58Z</time>
      </trkpt>
      <trkpt lat="48.40038" lon="7.42729">
        <ele>296.19363</ele>
        <time>2026-09-02T13:36:02Z</time>
      </trkpt>
      <trkpt lat="48.40043" lon="7.42729">
        <ele>296.19363</ele>
        <time>2026-09-02T13:36:07Z</time>
      </trkpt>
      <trkpt lat="48.40048" lon="7.42728">
        <ele>296.19363</ele>
        <time>2026-09-02T13:36:11Z</time>
      </trkpt>
      <trkpt lat="48.40052" lon="7.42727">
        <ele>296.19363</ele>
        <time>2026-09-02T13:36:15Z</time>
      </trkpt>
      <trkpt lat="48.40057" lon="7.42724">
        <ele>296.19363</ele>
        <time>2026-09-02T13:36:20Z</time>
      </trkpt>
      <trkpt lat="48.40062" lon="7.42722">
        <ele>296.19363</ele>
        <time>2026-09-02T13:36:25Z</time>
      </trkpt>
      <trkpt lat="48.40067" lon="7.4272">
        <ele>296.19363</ele>
        <time>2026-09-02T13:36:30Z</time>
      </trkpt>
      <trkpt lat="48.40072" lon="7.4272">
        <ele>296.19363</ele>
        <time>2026-09-02T13:36:36Z</time>
      </trkpt>
      <trkpt lat="48.40076" lon="7.42722">
        <ele>296.19363</ele>
        <time>2026-09-02T13:36:40Z</time>
      </trkpt>
      <trkpt lat="48.40081" lon="7.42725">
        <ele>296.19363</ele>
        <time>2026-09-02T13:36:44Z</time>
      </trkpt>
      <trkpt lat="48.40085" lon="7.42728">
        <ele>296.19363</ele>
        <time>2026-09-02T13:36:48Z</time>
      </trkpt>
      <trkpt lat="48.40088" lon="7.42733">
        <ele>296.19363</ele>
        <time>2026-09-02T13:36:52Z</time>
      </trkpt>
      <trkpt lat="48.40093" lon="7.42738">
        <ele>296.19363</ele>
        <time>2026-09-02T13:36:56Z</time>
      </trkpt>
      <trkpt lat="48.40096" lon="7.42742">
        <ele>296.19363</ele>
        <time>2026-09-02T13:37:00Z</time>
      </trkpt>
      <trkpt lat="48.401" lon="7.42747">
        <ele>296.19363</ele>
        <time>2026-09-02T13:37:04Z</time>
      </trkpt>
      <trkpt lat="48.40104" lon="7.42751">
        <ele>296.19363</ele>
        <time>2026-09-02T13:37:08Z</time>
      </trkpt>
      <trkpt lat="48.40108" lon="7.42756">
        <ele>296.19363</ele>
        <time>2026-09-02T13:37:12Z</time>
      </trkpt>
      <trkpt lat="48.40111" lon="7.42762">
        <ele>296.19363</ele>
        <time>2026-09-02T13:37:16Z</time>
      </trkpt>
      <trkpt lat="48.40114" lon="7.42767">
        <ele>296.19363</ele>
        <time>2026-09-02T13:37:20Z</time>
      </trkpt>
      <trkpt lat="48.40116" lon="7.42773">
        <ele>296.19363</ele>
        <time>2026-09-02T13:37:24Z</time>
      </trkpt>
      <trkpt lat="48.40117" lon="7.42781">
        <ele>296.19363</ele>
        <time>2026-09-02T13:37:29Z</time>
      </trkpt>
      <trkpt lat="48.40119" lon="7.42787">
        <ele>296.19363</ele>
        <time>2026-09-02T13:37:34Z</time>
      </trkpt>
      <trkpt lat="48.4012" lon="7.42796">
        <ele>296.19363</ele>
        <time>2026-09-02T13:37:38Z</time>
      </trkpt>
      <trkpt lat="48.40119" lon="7.42803">
        <ele>296.19363</ele>
        <time>2026-09-02T13:37:45Z</time>
      </trkpt>
      <trkpt lat="48.4012" lon="7.42811">
        <ele>296.19363</ele>
        <time>2026-09-02T13:37:50Z</time>
      </trkpt>
      <trkpt lat="48.40119" lon="7.4282">
        <ele>296.19363</ele>
        <time>2026-09-02T13:37:55Z</time>
      </trkpt>
      <trkpt lat="48.40119" lon="7.42827">
        <ele>296.19363</ele>
        <time>2026-09-02T13:38:00Z</time>
      </trkpt>
      <trkpt lat="48.40119" lon="7.42835">
        <ele>296.19363</ele>
        <time>2026-09-02T13:38:04Z</time>
      </trkpt>
      <trkpt lat="48.40119" lon="7.42842">
        <ele>296.19363</ele>
        <time>2026-09-02T13:38:08Z</time>
      </trkpt>
      <trkpt lat="48.40119" lon="7.42849">
        <ele>296.19363</ele>
        <time>2026-09-02T13:38:12Z</time>
      </trkpt>
      <trkpt lat="48.40119" lon="7.42856">
        <ele>296.19363</ele>
        <time>2026-09-02T13:38:16Z</time>
      </trkpt>
      <trkpt lat="48.40118" lon="7.42864">
        <ele>296.19363</ele>
        <time>2026-09-02T13:38:21Z</time>
      </trkpt>
      <trkpt lat="48.40119" lon="7.42872">
        <ele>296.19363</ele>
        <time>2026-09-02T13:38:25Z</time>
      </trkpt>
      <trkpt lat="48.40118" lon="7.42879">
        <ele>296.19363</ele>
        <time>2026-09-02T13:38:29Z</time>
      </trkpt>
      <trkpt lat="48.40118" lon="7.42887">
        <ele>296.19363</ele>
        <time>2026-09-02T13:38:33Z</time>
      </trkpt>
      <trkpt lat="48.40117" lon="7.42894">
        <ele>296.19363</ele>
        <time>2026-09-02T13:38:37Z</time>
      </trkpt>
      <trkpt lat="48.40117" lon="7.42901">
        <ele>296.19363</ele>
        <time>2026-09-02T13:38:41Z</time>
      </trkpt>
      <trkpt lat="48.40117" lon="7.42909">
        <ele>296.19363</ele>
        <time>2026-09-02T13:38:45Z</time>
      </trkpt>
      <trkpt lat="48.40116" lon="7.42916">
        <ele>296.19363</ele>
        <time>2026-09-02T13:38:49Z</time>
      </trkpt>
      <trkpt lat="48.40116" lon="7.42923">
        <ele>296.19363</ele>
        <time>2026-09-02T13:38:56Z</time>
      </trkpt>
      <trkpt lat="48.40116" lon="7.42931">
        <ele>296.19363</ele>
        <time>2026-09-02T13:39:01Z</time>
      </trkpt>
      <trkpt lat="48.40116" lon="7.42939">
        <ele>296.19363</ele>
        <time>2026-09-02T13:39:05Z</time>
      </trkpt>
      <trkpt lat="48.40116" lon="7.42946">
        <ele>296.19363</ele>
        <time>2026-09-02T13:39:09Z</time>
      </trkpt>
      <trkpt lat="48.40116" lon="7.42953">
        <ele>296.19363</ele>
        <time>2026-09-02T13:39:17Z</time>
      </trkpt>
      <trkpt lat="48.40116" lon="7.42962">
        <ele>296.19363</ele>
        <time>2026-09-02T13:39:20Z</time>
      </trkpt>
      <trkpt lat="48.40116" lon="7.42971">
        <ele>296.19363</ele>
        <time>2026-09-02T13:39:29Z</time>
      </trkpt>
      <trkpt lat="48.40116" lon="7.42978">
        <ele>296.19363</ele>
        <time>2026-09-02T13:39:32Z</time>
      </trkpt>
      <trkpt lat="48.40117" lon="7.42985">
        <ele>296.19363</ele>
        <time>2026-09-02T13:39:35Z</time>
      </trkpt>
      <trkpt lat="48.40117" lon="7.42993">
        <ele>296.19363</ele>
        <time>2026-09-02T13:39:38Z</time>
      </trkpt>
      <trkpt lat="48.40118" lon="7.43">
        <ele>296.19363</ele>
        <time>2026-09-02T13:39:41Z</time>
      </trkpt>
      <trkpt lat="48.40118" lon="7.43008">
        <ele>296.19363</ele>
        <time>2026-09-02T13:39:46Z</time>
      </trkpt>
      <trkpt lat="48.40119" lon="7.43016">
        <ele>296.19363</ele>
        <time>2026-09-02T13:39:50Z</time>
      </trkpt>
      <trkpt lat="48.40119" lon="7.43023">
        <ele>296.19363</ele>
        <time>2026-09-02T13:39:53Z</time>
      </trkpt>
      <trkpt lat="48.40119" lon="7.43031">
        <ele>296.19363</ele>
        <time>2026-09-02T13:39:57Z</time>
      </trkpt>
      <trkpt lat="48.40119" lon="7.43039">
        <ele>296.19363</ele>
        <time>2026-09-02T13:40:01Z</time>
      </trkpt>
      <trkpt lat="48.40119" lon="7.43047">
        <ele>296.19363</ele>
        <time>2026-09-02T13:40:05Z</time>
      </trkpt>
      <trkpt lat="48.40119" lon="7.43055">
        <ele>296.19363</ele>
        <time>2026-09-02T13:40:09Z</time>
      </trkpt>
      <trkpt lat="48.40119" lon="7.43063">
        <ele>296.19363</ele>
        <time>2026-09-02T13:40:13Z</time>
      </trkpt>
      <trkpt lat="48.40119" lon="7.43071">
        <ele>296.19363</ele>
        <time>2026-09-02T13:40:18Z</time>
      </trkpt>
      <trkpt lat="48.40119" lon="7.43077">
        <ele>296.19363</ele>
        <time>2026-09-02T13:40:22Z</time>
      </trkpt>
      <trkpt lat="48.40119" lon="7.43085">
        <ele>296.19363</ele>
        <time>2026-09-02T13:40:26Z</time>
      </trkpt>
      <trkpt lat="48.40119" lon="7.43094">
        <ele>296.19363</ele>
        <time>2026-09-02T13:40:31Z</time>
      </trkpt>
      <trkpt lat="48.40119" lon="7.43101">
        <ele>296.19363</ele>
        <time>2026-09-02T13:40:35Z</time>
      </trkpt>
      <trkpt lat="48.40119" lon="7.43109">
        <ele>296.19363</ele>
        <time>2026-09-02T13:40:40Z</time>
      </trkpt>
      <trkpt lat="48.40119" lon="7.43117">
        <ele>296.19363</ele>
        <time>2026-09-02T13:40:44Z</time>
      </trkpt>
      <trkpt lat="48.4012" lon="7.43125">
        <ele>296.19363</ele>
        <time>2026-09-02T13:40:48Z</time>
      </trkpt>
      <trkpt lat="48.40119" lon="7.43133">
        <ele>296.19363</ele>
        <time>2026-09-02T13:40:52Z</time>
      </trkpt>
      <trkpt lat="48.40119" lon="7.4314">
        <ele>296.19363</ele>
        <time>2026-09-02T13:40:56Z</time>
      </trkpt>
      <trkpt lat="48.40119" lon="7.43147">
        <ele>296.19363</ele>
        <time>2026-09-02T13:41:00Z</time>
      </trkpt>
      <trkpt lat="48.4012" lon="7.43156">
        <ele>296.19363</ele>
        <time>2026-09-02T13:41:04Z</time>
      </trkpt>
      <trkpt lat="48.4012" lon="7.43163">
        <ele>296.19363</ele>
        <time>2026-09-02T13:41:09Z</time>
      </trkpt>
      <trkpt lat="48.4012" lon="7.43171">
        <ele>296.19363</ele>
        <time>2026-09-02T13:41:13Z</time>
      </trkpt>
      <trkpt lat="48.4012" lon="7.43179">
        <ele>296.19363</ele>
        <time>2026-09-02T13:41:17Z</time>
      </trkpt>
      <trkpt lat="48.4012" lon="7.43186">
        <ele>296.19363</ele>
        <time>2026-09-02T13:41:28Z</time>
      </trkpt>
      <trkpt lat="48.40121" lon="7.43193">
        <ele>296.19363</ele>
        <time>2026-09-02T13:41:45Z</time>
      </trkpt>
      <trkpt lat="48.40122" lon="7.43202">
        <ele>296.19363</ele>
        <time>2026-09-02T13:41:50Z</time>
      </trkpt>
      <trkpt lat="48.40122" lon="7.43209">
        <ele>296.19363</ele>
        <time>2026-09-02T13:41:54Z</time>
      </trkpt>
      <trkpt lat="48.40123" lon="7.43217">
        <ele>296.19363</ele>
        <time>2026-09-02T13:41:59Z</time>
      </trkpt>
      <trkpt lat="48.40123" lon="7.43225">
        <ele>296.19363</ele>
        <time>2026-09-02T13:42:04Z</time>
      </trkpt>
      <trkpt lat="48.40123" lon="7.43233">
        <ele>296.19363</ele>
        <time>2026-09-02T13:42:08Z</time>
      </trkpt>
      <trkpt lat="48.40124" lon="7.43241">
        <ele>296.19363</ele>
        <time>2026-09-02T13:42:12Z</time>
      </trkpt>
      <trkpt lat="48.40125" lon="7.43248">
        <ele>296.19363</ele>
        <time>2026-09-02T13:42:15Z</time>
      </trkpt>
      <trkpt lat="48.40129" lon="7.43253">
        <ele>296.19363</ele>
        <time>2026-09-02T13:42:20Z</time>
      </trkpt>
      <trkpt lat="48.4013" lon="7.43261">
        <ele>296.19363</ele>
        <time>2026-09-02T13:42:25Z</time>
      </trkpt>
      <trkpt lat="48.4013" lon="7.43268">
        <ele>296.19363</ele>
        <time>2026-09-02T13:42:29Z</time>
      </trkpt>
      <trkpt lat="48.4013" lon="7.43276">
        <ele>296.19363</ele>
        <time>2026-09-02T13:42:36Z</time>
      </trkpt>
      <trkpt lat="48.40131" lon="7.43283">
        <ele>296.19363</ele>
        <time>2026-09-02T13:42:41Z</time>
      </trkpt>
      <trkpt lat="48.40131" lon="7.4329">
        <ele>296.19363</ele>
        <time>2026-09-02T13:42:45Z</time>
      </trkpt>
      <trkpt lat="48.40132" lon="7.43298">
        <ele>296.19363</ele>
        <time>2026-09-02T13:42:49Z</time>
      </trkpt>
      <trkpt lat="48.40133" lon="7.43306">
        <ele>296.19363</ele>
        <time>2026-09-02T13:42:53Z</time>
      </trkpt>
      <trkpt lat="48.40132" lon="7.43315">
        <ele>296.19363</ele>
        <time>2026-09-02T13:42:58Z</time>
      </trkpt>
      <trkpt lat="48.40133" lon="7.43323">
        <ele>296.19363</ele>
        <time>2026-09-02T13:43:02Z</time>
      </trkpt>
      <trkpt lat="48.40134" lon="7.4333">
        <ele>296.19363</ele>
        <time>2026-09-02T13:43:06Z</time>
      </trkpt>
      <trkpt lat="48.40135" lon="7.43337">
        <ele>296.19363</ele>
        <time>2026-09-02T13:43:10Z</time>
      </trkpt>
      <trkpt lat="48.40136" lon="7.43346">
        <ele>296.19363</ele>
        <time>2026-09-02T13:43:15Z</time>
      </trkpt>
      <trkpt lat="48.40136" lon="7.43354">
        <ele>296.19363</ele>
        <time>2026-09-02T13:43:19Z</time>
      </trkpt>
      <trkpt lat="48.40137" lon="7.43361">
        <ele>296.19363</ele>
        <time>2026-09-02T13:43:23Z</time>
      </trkpt>
      <trkpt lat="48.40138" lon="7.43368">
        <ele>296.19363</ele>
        <time>2026-09-02T13:43:27Z</time>
      </trkpt>
      <trkpt lat="48.40139" lon="7.43375">
        <ele>296.19363</ele>
        <time>2026-09-02T13:43:31Z</time>
      </trkpt>
      <trkpt lat="48.40139" lon="7.43382">
        <ele>296.19363</ele>
        <time>2026-09-02T13:43:35Z</time>
      </trkpt>
      <trkpt lat="48.40141" lon="7.43389">
        <ele>296.19363</ele>
        <time>2026-09-02T13:43:39Z</time>
      </trkpt>
      <trkpt lat="48.40136" lon="7.43395">
        <ele>296.19363</ele>
        <time>2026-09-02T13:43:49Z</time>
      </trkpt>
      <trkpt lat="48.40139" lon="7.43401">
        <ele>296.19363</ele>
        <time>2026-09-02T13:43:56Z</time>
      </trkpt>
      <trkpt lat="48.40141" lon="7.43408">
        <ele>296.19363</ele>
        <time>2026-09-02T13:44:01Z</time>
      </trkpt>
      <trkpt lat="48.40143" lon="7.43414">
        <ele>296.19363</ele>
        <time>2026-09-02T13:44:05Z</time>
      </trkpt>
      <trkpt lat="48.40142" lon="7.43423">
        <ele>296.19363</ele>
        <time>2026-09-02T13:44:10Z</time>
      </trkpt>
      <trkpt lat="48.40142" lon="7.43431">
        <ele>296.19363</ele>
        <time>2026-09-02T13:44:15Z</time>
      </trkpt>
      <trkpt lat="48.40142" lon="7.43438">
        <ele>296.19363</ele>
        <time>2026-09-02T13:44:19Z</time>
      </trkpt>
      <trkpt lat="48.40144" lon="7.43445">
        <ele>296.19363</ele>
        <time>2026-09-02T13:44:23Z</time>
      </trkpt>
      <trkpt lat="48.40145" lon="7.43453">
        <ele>296.19363</ele>
        <time>2026-09-02T13:44:27Z</time>
      </trkpt>
      <trkpt lat="48.40146" lon="7.4346">
        <ele>296.19363</ele>
        <time>2026-09-02T13:44:31Z</time>
      </trkpt>
      <trkpt lat="48.40147" lon="7.43468">
        <ele>296.19363</ele>
        <time>2026-09-02T13:44:35Z</time>
      </trkpt>
      <trkpt lat="48.40147" lon="7.43475">
        <ele>296.19363</ele>
        <time>2026-09-02T13:44:39Z</time>
      </trkpt>
      <trkpt lat="48.40148" lon="7.43484">
        <ele>296.19363</ele>
        <time>2026-09-02T13:44:44Z</time>
      </trkpt>
      <trkpt lat="48.40149" lon="7.43492">
        <ele>296.19363</ele>
        <time>2026-09-02T13:44:48Z</time>
      </trkpt>
      <trkpt lat="48.40149" lon="7.43501">
        <ele>296.19363</ele>
        <time>2026-09-02T13:44:53Z</time>
      </trkpt>
      <trkpt lat="48.40151" lon="7.43509">
        <ele>296.19363</ele>
        <time>2026-09-02T13:44:58Z</time>
      </trkpt>
      <trkpt lat="48.40152" lon="7.43517">
        <ele>296.19363</ele>
        <time>2026-09-02T13:45:02Z</time>
      </trkpt>
      <trkpt lat="48.40153" lon="7.43525">
        <ele>296.19363</ele>
        <time>2026-09-02T13:45:06Z</time>
      </trkpt>
      <trkpt lat="48.40156" lon="7.43531">
        <ele>296.19363</ele>
        <time>2026-09-02T13:45:09Z</time>
      </trkpt>
      <trkpt lat="48.40159" lon="7.43538">
        <ele>296.19363</ele>
        <time>2026-09-02T13:45:13Z</time>
      </trkpt>
      <trkpt lat="48.40159" lon="7.43547">
        <ele>296.19363</ele>
        <time>2026-09-02T13:45:18Z</time>
      </trkpt>
      <trkpt lat="48.40157" lon="7.43555">
        <ele>296.19363</ele>
        <time>2026-09-02T13:45:22Z</time>
      </trkpt>
      <trkpt lat="48.40157" lon="7.43563">
        <ele>296.19363</ele>
        <time>2026-09-02T13:45:26Z</time>
      </trkpt>
      <trkpt lat="48.40157" lon="7.43571">
        <ele>296.19363</ele>
        <time>2026-09-02T13:45:30Z</time>
      </trkpt>
      <trkpt lat="48.40157" lon="7.43579">
        <ele>296.19363</ele>
        <time>2026-09-02T13:45:34Z</time>
      </trkpt>
      <trkpt lat="48.40156" lon="7.43587">
        <ele>296.19363</ele>
        <time>2026-09-02T13:45:39Z</time>
      </trkpt>
      <trkpt lat="48.4016" lon="7.43592">
        <ele>296.19363</ele>
        <time>2026-09-02T13:45:51Z</time>
      </trkpt>
      <trkpt lat="48.40158" lon="7.43598">
        <ele>296.19363</ele>
        <time>2026-09-02T13:45:55Z</time>
      </trkpt>
      <trkpt lat="48.40159" lon="7.43605">
        <ele>296.19363</ele>
        <time>2026-09-02T13:45:59Z</time>
      </trkpt>
      <trkpt lat="48.40163" lon="7.4361">
        <ele>296.19363</ele>
        <time>2026-09-02T13:46:10Z</time>
      </trkpt>
      <trkpt lat="48.4016" lon="7.43616">
        <ele>296.19363</ele>
        <time>2026-09-02T13:46:29Z</time>
      </trkpt>
      <trkpt lat="48.4016" lon="7.43624">
        <ele>296.19363</ele>
        <time>2026-09-02T13:46:34Z</time>
      </trkpt>
      <trkpt lat="48.40161" lon="7.43631">
        <ele>296.19363</ele>
        <time>2026-09-02T13:46:39Z</time>
      </trkpt>
      <trkpt lat="48.40162" lon="7.43639">
        <ele>296.19363</ele>
        <time>2026-09-02T13:46:44Z</time>
      </trkpt>
      <trkpt lat="48.40161" lon="7.43646">
        <ele>296.19363</ele>
        <time>2026-09-02T13:46:48Z</time>
      </trkpt>
      <trkpt lat="48.40165" lon="7.43652">
        <ele>296.19363</ele>
        <time>2026-09-02T13:46:52Z</time>
      </trkpt>
      <trkpt lat="48.40167" lon="7.43659">
        <ele>296.19363</ele>
        <time>2026-09-02T13:46:56Z</time>
      </trkpt>
      <trkpt lat="48.40168" lon="7.43666">
        <ele>296.19363</ele>
        <time>2026-09-02T13:47:00Z</time>
      </trkpt>
      <trkpt lat="48.4017" lon="7.43674">
        <ele>296.19363</ele>
        <time>2026-09-02T13:47:05Z</time>
      </trkpt>
      <trkpt lat="48.40172" lon="7.43682">
        <ele>296.19363</ele>
        <time>2026-09-02T13:47:10Z</time>
      </trkpt>
      <trkpt lat="48.40172" lon="7.4369">
        <ele>296.19363</ele>
        <time>2026-09-02T13:47:16Z</time>
      </trkpt>
      <trkpt lat="48.40175" lon="7.43698">
        <ele>296.19363</ele>
        <time>2026-09-02T13:47:20Z</time>
      </trkpt>
      <trkpt lat="48.40174" lon="7.43704">
        <ele>296.19363</ele>
        <time>2026-09-02T13:47:24Z</time>
      </trkpt>
      <trkpt lat="48.40176" lon="7.43713">
        <ele>296.19363</ele>
        <time>2026-09-02T13:47:28Z</time>
      </trkpt>
      <trkpt lat="48.40178" lon="7.43721">
        <ele>296.19363</ele>
        <time>2026-09-02T13:47:35Z</time>
      </trkpt>
      <trkpt lat="48.40178" lon="7.43728">
        <ele>296.19363</ele>
        <time>2026-09-02T13:47:39Z</time>
      </trkpt>
      <trkpt lat="48.40177" lon="7.43736">
        <ele>296.19363</ele>
        <time>2026-09-02T13:47:44Z</time>
      </trkpt>
      <trkpt lat="48.40178" lon="7.43743">
        <ele>296.19363</ele>
        <time>2026-09-02T13:47:47Z</time>
      </trkpt>
      <trkpt lat="48.40179" lon="7.43751">
        <ele>296.19363</ele>
        <time>2026-09-02T13:47:52Z</time>
      </trkpt>
      <trkpt lat="48.40179" lon="7.43759">
        <ele>296.19363</ele>
        <time>2026-09-02T13:47:56Z</time>
      </trkpt>
      <trkpt lat="48.4018" lon="7.43767">
        <ele>296.19363</ele>
        <time>2026-09-02T13:48:01Z</time>
      </trkpt>
      <trkpt lat="48.40179" lon="7.43774">
        <ele>296.19363</ele>
        <time>2026-09-02T13:48:05Z</time>
      </trkpt>
      <trkpt lat="48.40179" lon="7.43781">
        <ele>296.19363</ele>
        <time>2026-09-02T13:48:09Z</time>
      </trkpt>
      <trkpt lat="48.40178" lon="7.43789">
        <ele>296.19363</ele>
        <time>2026-09-02T13:48:14Z</time>
      </trkpt>
      <trkpt lat="48.40178" lon="7.43796">
        <ele>296.19363</ele>
        <time>2026-09-02T13:48:18Z</time>
      </trkpt>
      <trkpt lat="48.40178" lon="7.43803">
        <ele>296.19363</ele>
        <time>2026-09-02T13:48:22Z</time>
      </trkpt>
      <trkpt lat="48.40178" lon="7.4381">
        <ele>296.19363</ele>
        <time>2026-09-02T13:48:26Z</time>
      </trkpt>
      <trkpt lat="48.40178" lon="7.43819">
        <ele>296.19363</ele>
        <time>2026-09-02T13:48:30Z</time>
      </trkpt>
      <trkpt lat="48.40179" lon="7.43826">
        <ele>296.19363</ele>
        <time>2026-09-02T13:48:34Z</time>
      </trkpt>
      <trkpt lat="48.4018" lon="7.43833">
        <ele>296.19363</ele>
        <time>2026-09-02T13:48:38Z</time>
      </trkpt>
      <trkpt lat="48.4018" lon="7.4384">
        <ele>296.19363</ele>
        <time>2026-09-02T13:48:42Z</time>
      </trkpt>
      <trkpt lat="48.4018" lon="7.43847">
        <ele>296.19363</ele>
        <time>2026-09-02T13:48:46Z</time>
      </trkpt>
      <trkpt lat="48.40181" lon="7.43855">
        <ele>296.19363</ele>
        <time>2026-09-02T13:48:50Z</time>
      </trkpt>
      <trkpt lat="48.4018" lon="7.43863">
        <ele>296.19363</ele>
        <time>2026-09-02T13:48:55Z</time>
      </trkpt>
      <trkpt lat="48.40181" lon="7.4387">
        <ele>296.19363</ele>
        <time>2026-09-02T13:48:59Z</time>
      </trkpt>
      <trkpt lat="48.4018" lon="7.43878">
        <ele>294.16483</ele>
        <time>2026-09-02T13:49:03Z</time>
      </trkpt>
      <trkpt lat="48.4018" lon="7.43885">
        <ele>292.13605</ele>
        <time>2026-09-02T13:49:07Z</time>
      </trkpt>
      <trkpt lat="48.4018" lon="7.43892">
        <ele>290.10724</ele>
        <time>2026-09-02T13:49:11Z</time>
      </trkpt>
      <trkpt lat="48.40179" lon="7.43899">
        <ele>288.07846</ele>
        <time>2026-09-02T13:49:15Z</time>
      </trkpt>
      <trkpt lat="48.4018" lon="7.43906">
        <ele>286.04965</ele>
        <time>2026-09-02T13:49:19Z</time>
      </trkpt>
      <trkpt lat="48.40179" lon="7.43914">
        <ele>286.04965</ele>
        <time>2026-09-02T13:49:24Z</time>
      </trkpt>
      <trkpt lat="48.40179" lon="7.43921">
        <ele>286.04965</ele>
        <time>2026-09-02T13:49:29Z</time>
      </trkpt>
      <trkpt lat="48.40179" lon="7.4393">
        <ele>286.04965</ele>
        <time>2026-09-02T13:49:34Z</time>
      </trkpt>
      <trkpt lat="48.40179" lon="7.43937">
        <ele>286.04965</ele>
        <time>2026-09-02T13:49:39Z</time>
      </trkpt>
      <trkpt lat="48.40178" lon="7.43945">
        <ele>286.04965</ele>
        <time>2026-09-02T13:49:44Z</time>
      </trkpt>
      <trkpt lat="48.40178" lon="7.43953">
        <ele>286.04965</ele>
        <time>2026-09-02T13:49:49Z</time>
      </trkpt>
      <trkpt lat="48.40178" lon="7.43961">
        <ele>286.04965</ele>
        <time>2026-09-02T13:49:54Z</time>
      </trkpt>
      <trkpt lat="48.40178" lon="7.43968">
        <ele>286.04965</ele>
        <time>2026-09-02T13:49:59Z</time>
      </trkpt>
      <trkpt lat="48.40177" lon="7.43975">
        <ele>286.04965</ele>
        <time>2026-09-02T13:50:13Z</time>
      </trkpt>
      <trkpt lat="48.40176" lon="7.43982">
        <ele>286.04965</ele>
        <time>2026-09-02T13:50:20Z</time>
      </trkpt>
      <trkpt lat="48.40176" lon="7.43989">
        <ele>286.04965</ele>
        <time>2026-09-02T13:50:30Z</time>
      </trkpt>
      <trkpt lat="48.40174" lon="7.43995">
        <ele>286.04965</ele>
        <time>2026-09-02T13:53:05Z</time>
      </trkpt>
      <trkpt lat="48.40173" lon="7.44002">
        <ele>286.04965</ele>
        <time>2026-09-02T13:53:09Z</time>
      </trkpt>
      <trkpt lat="48.40171" lon="7.44009">
        <ele>286.04965</ele>
        <time>2026-09-02T13:53:13Z</time>
      </trkpt>
      <trkpt lat="48.40169" lon="7.44017">
        <ele>286.04965</ele>
        <time>2026-09-02T13:53:18Z</time>
      </trkpt>
      <trkpt lat="48.40167" lon="7.44024">
        <ele>286.04965</ele>
        <time>2026-09-02T13:53:24Z</time>
      </trkpt>
      <trkpt lat="48.40163" lon="7.44028">
        <ele>286.04965</ele>
        <time>2026-09-02T13:53:29Z</time>
      </trkpt>
      <trkpt lat="48.40158" lon="7.44029">
        <ele>286.04965</ele>
        <time>2026-09-02T13:53:34Z</time>
      </trkpt>
      <trkpt lat="48.40154" lon="7.4403">
        <ele>286.04965</ele>
        <time>2026-09-02T13:53:38Z</time>
      </trkpt>
      <trkpt lat="48.40148" lon="7.44029">
        <ele>286.04965</ele>
        <time>2026-09-02T13:53:43Z</time>
      </trkpt>
      <trkpt lat="48.40144" lon="7.44027">
        <ele>286.04965</ele>
        <time>2026-09-02T13:53:47Z</time>
      </trkpt>
      <trkpt lat="48.40138" lon="7.44025">
        <ele>286.04965</ele>
        <time>2026-09-02T13:53:52Z</time>
      </trkpt>
      <trkpt lat="48.40134" lon="7.44022">
        <ele>286.04965</ele>
        <time>2026-09-02T13:53:57Z</time>
      </trkpt>
      <trkpt lat="48.40131" lon="7.44017">
        <ele>286.04965</ele>
        <time>2026-09-02T13:54:02Z</time>
      </trkpt>
      <trkpt lat="48.40126" lon="7.44013">
        <ele>286.04965</ele>
        <time>2026-09-02T13:54:07Z</time>
      </trkpt>
      <trkpt lat="48.40121" lon="7.44013">
        <ele>286.04965</ele>
        <time>2026-09-02T13:54:13Z</time>
      </trkpt>
      <trkpt lat="48.40116" lon="7.44009">
        <ele>286.04965</ele>
        <time>2026-09-02T13:54:21Z</time>
      </trkpt>
      <trkpt lat="48.40112" lon="7.44006">
        <ele>286.04965</ele>
        <time>2026-09-02T13:54:24Z</time>
      </trkpt>
      <trkpt lat="48.40107" lon="7.44006">
        <ele>286.04965</ele>
        <time>2026-09-02T13:54:28Z</time>
      </trkpt>
      <trkpt lat="48.40102" lon="7.44007">
        <ele>286.04965</ele>
        <time>2026-09-02T13:54:32Z</time>
      </trkpt>
      <trkpt lat="48.40097" lon="7.44008">
        <ele>286.04965</ele>
        <time>2026-09-02T13:54:36Z</time>
      </trkpt>
      <trkpt lat="48.40093" lon="7.44009">
        <ele>286.04965</ele>
        <time>2026-09-02T13:54:40Z</time>
      </trkpt>
      <trkpt lat="48.40088" lon="7.4401">
        <ele>286.04965</ele>
        <time>2026-09-02T13:54:45Z</time>
      </trkpt>
      <trkpt lat="48.40082" lon="7.44012">
        <ele>286.04965</ele>
        <time>2026-09-02T13:54:50Z</time>
      </trkpt>
      <trkpt lat="48.40077" lon="7.44013">
        <ele>286.04965</ele>
        <time>2026-09-02T13:54:55Z</time>
      </trkpt>
      <trkpt lat="48.40073" lon="7.44013">
        <ele>286.04965</ele>
        <time>2026-09-02T13:54:59Z</time>
      </trkpt>
      <trkpt lat="48.40068" lon="7.44012">
        <ele>286.04965</ele>
        <time>2026-09-02T13:55:03Z</time>
      </trkpt>
      <trkpt lat="48.40064" lon="7.44014">
        <ele>286.04965</ele>
        <time>2026-09-02T13:55:08Z</time>
      </trkpt>
      <trkpt lat="48.4006" lon="7.44019">
        <ele>286.04965</ele>
        <time>2026-09-02T13:55:29Z</time>
      </trkpt>
      <trkpt lat="48.40056" lon="7.4402">
        <ele>286.04965</ele>
        <time>2026-09-02T13:55:38Z</time>
      </trkpt>
      <trkpt lat="48.40053" lon="7.44014">
        <ele>286.04965</ele>
        <time>2026-09-02T13:56:17Z</time>
      </trkpt>
      <trkpt lat="48.40059" lon="7.44014">
        <ele>286.04965</ele>
        <time>2026-09-02T13:56:57Z</time>
      </trkpt>
      <trkpt lat="48.40063" lon="7.44013">
        <ele>286.04965</ele>
        <time>2026-09-02T13:57:01Z</time>
      </trkpt>
      <trkpt lat="48.40068" lon="7.44013">
        <ele>286.04965</ele>
        <time>2026-09-02T13:57:06Z</time>
      </trkpt>
      <trkpt lat="48.40073" lon="7.44011">
        <ele>286.04965</ele>
        <time>2026-09-02T13:57:11Z</time>
      </trkpt>
      <trkpt lat="48.40079" lon="7.44009">
        <ele>286.04965</ele>
        <time>2026-09-02T13:57:16Z</time>
      </trkpt>
      <trkpt lat="48.40083" lon="7.44008">
        <ele>286.04965</ele>
        <time>2026-09-02T13:57:20Z</time>
      </trkpt>
      <trkpt lat="48.40088" lon="7.44005">
        <ele>286.04965</ele>
        <time>2026-09-02T13:57:24Z</time>
      </trkpt>
      <trkpt lat="48.40093" lon="7.44005">
        <ele>286.04965</ele>
        <time>2026-09-02T13:57:28Z</time>
      </trkpt>
      <trkpt lat="48.40098" lon="7.44005">
        <ele>286.04965</ele>
        <time>2026-09-02T13:57:33Z</time>
      </trkpt>
      <trkpt lat="48.40104" lon="7.44005">
        <ele>286.04965</ele>
        <time>2026-09-02T13:57:38Z</time>
      </trkpt>
      <trkpt lat="48.40109" lon="7.44004">
        <ele>286.04965</ele>
        <time>2026-09-02T13:57:42Z</time>
      </trkpt>
      <trkpt lat="48.40113" lon="7.44005">
        <ele>286.04965</ele>
        <time>2026-09-02T13:57:52Z</time>
      </trkpt>
      <trkpt lat="48.40117" lon="7.44009">
        <ele>286.04965</ele>
        <time>2026-09-02T13:57:59Z</time>
      </trkpt>
      <trkpt lat="48.40122" lon="7.44011">
        <ele>286.04965</ele>
        <time>2026-09-02T13:58:04Z</time>
      </trkpt>
      <trkpt lat="48.40126" lon="7.44014">
        <ele>286.04965</ele>
        <time>2026-09-02T13:58:08Z</time>
      </trkpt>
      <trkpt lat="48.40131" lon="7.44017">
        <ele>286.04965</ele>
        <time>2026-09-02T13:58:12Z</time>
      </trkpt>
      <trkpt lat="48.40135" lon="7.44021">
        <ele>286.04965</ele>
        <time>2026-09-02T13:58:17Z</time>
      </trkpt>
      <trkpt lat="48.4014" lon="7.44024">
        <ele>286.04965</ele>
        <time>2026-09-02T13:58:21Z</time>
      </trkpt>
      <trkpt lat="48.40144" lon="7.44027">
        <ele>286.04965</ele>
        <time>2026-09-02T13:58:25Z</time>
      </trkpt>
      <trkpt lat="48.40149" lon="7.44029">
        <ele>286.04965</ele>
        <time>2026-09-02T13:58:29Z</time>
      </trkpt>
      <trkpt lat="48.40154" lon="7.44031">
        <ele>286.04965</ele>
        <time>2026-09-02T13:58:33Z</time>
      </trkpt>
      <trkpt lat="48.40159" lon="7.44033">
        <ele>286.04965</ele>
        <time>2026-09-02T13:58:36Z</time>
      </trkpt>
      <trkpt lat="48.4016" lon="7.4404">
        <ele>286.04965</ele>
        <time>2026-09-02T13:58:44Z</time>
      </trkpt>
      <trkpt lat="48.40158" lon="7.44055">
        <ele>286.04965</ele>
        <time>2026-09-02T13:58:47Z</time>
      </trkpt>
      <trkpt lat="48.40156" lon="7.44063">
        <ele>286.04965</ele>
        <time>2026-09-02T13:58:52Z</time>
      </trkpt>
      <trkpt lat="48.40156" lon="7.44071">
        <ele>286.04965</ele>
        <time>2026-09-02T13:58:56Z</time>
      </trkpt>
      <trkpt lat="48.40154" lon="7.44077">
        <ele>286.04965</ele>
        <time>2026-09-02T13:59:00Z</time>
      </trkpt>
      <trkpt lat="48.40152" lon="7.44085">
        <ele>286.04965</ele>
        <time>2026-09-02T13:59:04Z</time>
      </trkpt>
      <trkpt lat="48.40151" lon="7.44092">
        <ele>286.04965</ele>
        <time>2026-09-02T13:59:08Z</time>
      </trkpt>
      <trkpt lat="48.40148" lon="7.44099">
        <ele>286.04965</ele>
        <time>2026-09-02T13:59:12Z</time>
      </trkpt>
      <trkpt lat="48.40146" lon="7.44106">
        <ele>286.04965</ele>
        <time>2026-09-02T13:59:16Z</time>
      </trkpt>
      <trkpt lat="48.40144" lon="7.44111">
        <ele>286.04965</ele>
        <time>2026-09-02T13:59:19Z</time>
      </trkpt>
      <trkpt lat="48.40141" lon="7.44118">
        <ele>286.04965</ele>
        <time>2026-09-02T13:59:23Z</time>
      </trkpt>
      <trkpt lat="48.40141" lon="7.44125">
        <ele>286.04965</ele>
        <time>2026-09-02T13:59:27Z</time>
      </trkpt>
      <trkpt lat="48.40139" lon="7.44132">
        <ele>286.04965</ele>
        <time>2026-09-02T13:59:32Z</time>
      </trkpt>
      <trkpt lat="48.40137" lon="7.4414">
        <ele>286.04965</ele>
        <time>2026-09-02T13:59:37Z</time>
      </trkpt>
      <trkpt lat="48.40137" lon="7.44149">
        <ele>286.04965</ele>
        <time>2026-09-02T13:59:42Z</time>
      </trkpt>
      <trkpt lat="48.40135" lon="7.44156">
        <ele>286.04965</ele>
        <time>2026-09-02T13:59:46Z</time>
      </trkpt>
      <trkpt lat="48.40135" lon="7.44163">
        <ele>286.04965</ele>
        <time>2026-09-02T13:59:50Z</time>
      </trkpt>
      <trkpt lat="48.40133" lon="7.44171">
        <ele>286.04965</ele>
        <time>2026-09-02T13:59:55Z</time>
      </trkpt>
      <trkpt lat="48.4013" lon="7.44177">
        <ele>286.04965</ele>
        <time>2026-09-02T13:59:58Z</time>
      </trkpt>
      <trkpt lat="48.40128" lon="7.44183">
        <ele>286.04965</ele>
        <time>2026-09-02T14:00:02Z</time>
      </trkpt>
      <trkpt lat="48.40125" lon="7.4419">
        <ele>286.04965</ele>
        <time>2026-09-02T14:00:07Z</time>
      </trkpt>
      <trkpt lat="48.4012" lon="7.4419">
        <ele>286.04965</ele>
        <time>2026-09-02T14:00:35Z</time>
      </trkpt>
      <trkpt lat="48.40115" lon="7.44189">
        <ele>286.04965</ele>
        <time>2026-09-02T14:00:39Z</time>
      </trkpt>
      <trkpt lat="48.4011" lon="7.44189">
        <ele>286.04965</ele>
        <time>2026-09-02T14:00:43Z</time>
      </trkpt>
      <trkpt lat="48.40105" lon="7.44188">
        <ele>286.04965</ele>
        <time>2026-09-02T14:00:47Z</time>
      </trkpt>
      <trkpt lat="48.40101" lon="7.44185">
        <ele>286.04965</ele>
        <time>2026-09-02T14:00:51Z</time>
      </trkpt>
      <trkpt lat="48.40096" lon="7.44184">
        <ele>286.04965</ele>
        <time>2026-09-02T14:00:55Z</time>
      </trkpt>
      <trkpt lat="48.4009" lon="7.44183">
        <ele>286.04965</ele>
        <time>2026-09-02T14:01:00Z</time>
      </trkpt>
      <trkpt lat="48.40086" lon="7.4418">
        <ele>286.04965</ele>
        <time>2026-09-02T14:01:04Z</time>
      </trkpt>
      <trkpt lat="48.4008" lon="7.44181">
        <ele>286.04965</ele>
        <time>2026-09-02T14:01:08Z</time>
      </trkpt>
      <trkpt lat="48.40075" lon="7.44177">
        <ele>286.04965</ele>
        <time>2026-09-02T14:01:12Z</time>
      </trkpt>
      <trkpt lat="48.4007" lon="7.44176">
        <ele>286.04965</ele>
        <time>2026-09-02T14:01:16Z</time>
      </trkpt>
      <trkpt lat="48.40065" lon="7.44174">
        <ele>286.04965</ele>
        <time>2026-09-02T14:01:20Z</time>
      </trkpt>
      <trkpt lat="48.4006" lon="7.44174">
        <ele>286.04965</ele>
        <time>2026-09-02T14:01:24Z</time>
      </trkpt>
      <trkpt lat="48.40054" lon="7.44173">
        <ele>286.04965</ele>
        <time>2026-09-02T14:01:30Z</time>
      </trkpt>
      <trkpt lat="48.40049" lon="7.44172">
        <ele>286.04965</ele>
        <time>2026-09-02T14:01:34Z</time>
      </trkpt>
      <trkpt lat="48.40044" lon="7.44172">
        <ele>286.04965</ele>
        <time>2026-09-02T14:01:38Z</time>
      </trkpt>
      <trkpt lat="48.4004" lon="7.44171">
        <ele>286.04965</ele>
        <time>2026-09-02T14:01:43Z</time>
      </trkpt>
      <trkpt lat="48.40035" lon="7.44169">
        <ele>286.04965</ele>
        <time>2026-09-02T14:01:49Z</time>
      </trkpt>
      <trkpt lat="48.4003" lon="7.44168">
        <ele>286.04965</ele>
        <time>2026-09-02T14:01:54Z</time>
      </trkpt>
      <trkpt lat="48.40024" lon="7.44166">
        <ele>286.04965</ele>
        <time>2026-09-02T14:01:58Z</time>
      </trkpt>
      <trkpt lat="48.40019" lon="7.44165">
        <ele>283.9613</ele>
        <time>2026-09-02T14:02:03Z</time>
      </trkpt>
      <trkpt lat="48.40014" lon="7.44162">
        <ele>281.87292</ele>
        <time>2026-09-02T14:02:08Z</time>
      </trkpt>
      <trkpt lat="48.40009" lon="7.44159">
        <ele>279.78458</ele>
        <time>2026-09-02T14:02:12Z</time>
      </trkpt>
      <trkpt lat="48.40004" lon="7.44157">
        <ele>277.6962</ele>
        <time>2026-09-02T14:02:17Z</time>
      </trkpt>
      <trkpt lat="48.39999" lon="7.44156">
        <ele>275.60785</ele>
        <time>2026-09-02T14:02:22Z</time>
      </trkpt>
      <trkpt lat="48.39994" lon="7.44151">
        <ele>275.60785</ele>
        <time>2026-09-02T14:02:26Z</time>
      </trkpt>
      <trkpt lat="48.39989" lon="7.4415">
        <ele>275.60785</ele>
        <time>2026-09-02T14:02:31Z</time>
      </trkpt>
      <trkpt lat="48.39984" lon="7.44146">
        <ele>275.60785</ele>
        <time>2026-09-02T14:02:35Z</time>
      </trkpt>
      <trkpt lat="48.3998" lon="7.44143">
        <ele>275.60785</ele>
        <time>2026-09-02T14:02:40Z</time>
      </trkpt>
      <trkpt lat="48.39975" lon="7.44143">
        <ele>275.60785</ele>
        <time>2026-09-02T14:02:45Z</time>
      </trkpt>
      <trkpt lat="48.3997" lon="7.44141">
        <ele>273.38916</ele>
        <time>2026-09-02T14:02:50Z</time>
      </trkpt>
      <trkpt lat="48.39965" lon="7.44141">
        <ele>271.17047</ele>
        <time>2026-09-02T14:02:54Z</time>
      </trkpt>
      <trkpt lat="48.39961" lon="7.44141">
        <ele>268.95178</ele>
        <time>2026-09-02T14:02:59Z</time>
      </trkpt>
      <trkpt lat="48.39956" lon="7.44143">
        <ele>266.7331</ele>
        <time>2026-09-02T14:03:03Z</time>
      </trkpt>
      <trkpt lat="48.3995" lon="7.44143">
        <ele>264.5144</ele>
        <time>2026-09-02T14:03:08Z</time>
      </trkpt>
      <trkpt lat="48.39946" lon="7.44146">
        <ele>264.5144</ele>
        <time>2026-09-02T14:03:12Z</time>
      </trkpt>
      <trkpt lat="48.39942" lon="7.4415">
        <ele>264.5144</ele>
        <time>2026-09-02T14:03:17Z</time>
      </trkpt>
      <trkpt lat="48.39937" lon="7.44154">
        <ele>264.5144</ele>
        <time>2026-09-02T14:03:21Z</time>
      </trkpt>
      <trkpt lat="48.39933" lon="7.44159">
        <ele>264.5144</ele>
        <time>2026-09-02T14:03:26Z</time>
      </trkpt>
      <trkpt lat="48.39929" lon="7.44164">
        <ele>264.5144</ele>
        <time>2026-09-02T14:03:41Z</time>
      </trkpt>
      <trkpt lat="48.39925" lon="7.44167">
        <ele>264.5144</ele>
        <time>2026-09-02T14:03:46Z</time>
      </trkpt>
      <trkpt lat="48.3992" lon="7.44173">
        <ele>264.5144</ele>
        <time>2026-09-02T14:03:51Z</time>
      </trkpt>
      <trkpt lat="48.39917" lon="7.44179">
        <ele>264.5144</ele>
        <time>2026-09-02T14:03:56Z</time>
      </trkpt>
      <trkpt lat="48.39913" lon="7.44184">
        <ele>264.5144</ele>
        <time>2026-09-02T14:04:01Z</time>
      </trkpt>
      <trkpt lat="48.39911" lon="7.4419">
        <ele>264.5144</ele>
        <time>2026-09-02T14:04:05Z</time>
      </trkpt>
      <trkpt lat="48.39908" lon="7.44195">
        <ele>264.5144</ele>
        <time>2026-09-02T14:04:10Z</time>
      </trkpt>
      <trkpt lat="48.39904" lon="7.44199">
        <ele>264.5144</ele>
        <time>2026-09-02T14:04:15Z</time>
      </trkpt>
      <trkpt lat="48.39899" lon="7.44197">
        <ele>264.5144</ele>
        <time>2026-09-02T14:04:19Z</time>
      </trkpt>
      <trkpt lat="48.39895" lon="7.44192">
        <ele>264.5144</ele>
        <time>2026-09-02T14:04:24Z</time>
      </trkpt>
      <trkpt lat="48.3989" lon="7.44192">
        <ele>264.5144</ele>
        <time>2026-09-02T14:04:28Z</time>
      </trkpt>
      <trkpt lat="48.39888" lon="7.44185">
        <ele>264.5144</ele>
        <time>2026-09-02T14:04:34Z</time>
      </trkpt>
      <trkpt lat="48.39887" lon="7.44177">
        <ele>264.5144</ele>
        <time>2026-09-02T14:04:38Z</time>
      </trkpt>
      <trkpt lat="48.39885" lon="7.4417">
        <ele>264.5144</ele>
        <time>2026-09-02T14:04:42Z</time>
      </trkpt>
      <trkpt lat="48.39884" lon="7.44161">
        <ele>264.5144</ele>
        <time>2026-09-02T14:04:46Z</time>
      </trkpt>
      <trkpt lat="48.39882" lon="7.44155">
        <ele>264.5144</ele>
        <time>2026-09-02T14:04:50Z</time>
      </trkpt>
      <trkpt lat="48.39882" lon="7.44146">
        <ele>264.5144</ele>
        <time>2026-09-02T14:04:54Z</time>
      </trkpt>
      <trkpt lat="48.39879" lon="7.4414">
        <ele>264.5144</ele>
        <time>2026-09-02T14:04:58Z</time>
      </trkpt>
      <trkpt lat="48.39877" lon="7.44133">
        <ele>262.27673</ele>
        <time>2026-09-02T14:05:03Z</time>
      </trkpt>
      <trkpt lat="48.39876" lon="7.44125">
        <ele>260.03906</ele>
        <time>2026-09-02T14:05:09Z</time>
      </trkpt>
      <trkpt lat="48.39874" lon="7.44119">
        <ele>257.8014</ele>
        <time>2026-09-02T14:05:13Z</time>
      </trkpt>
      <trkpt lat="48.39872" lon="7.44112">
        <ele>255.56374</ele>
        <time>2026-09-02T14:05:18Z</time>
      </trkpt>
      <trkpt lat="48.39871" lon="7.44105">
        <ele>253.32607</ele>
        <time>2026-09-02T14:05:23Z</time>
      </trkpt>
      <trkpt lat="48.39871" lon="7.44098">
        <ele>253.32607</ele>
        <time>2026-09-02T14:05:27Z</time>
      </trkpt>
      <trkpt lat="48.39871" lon="7.44091">
        <ele>253.32607</ele>
        <time>2026-09-02T14:05:33Z</time>
      </trkpt>
      <trkpt lat="48.39869" lon="7.44083">
        <ele>253.32607</ele>
        <time>2026-09-02T14:05:38Z</time>
      </trkpt>
      <trkpt lat="48.39869" lon="7.44076">
        <ele>253.32607</ele>
        <time>2026-09-02T14:05:43Z</time>
      </trkpt>
      <trkpt lat="48.39868" lon="7.44069">
        <ele>253.32607</ele>
        <time>2026-09-02T14:05:48Z</time>
      </trkpt>
      <trkpt lat="48.39867" lon="7.44062">
        <ele>253.32607</ele>
        <time>2026-09-02T14:05:52Z</time>
      </trkpt>
      <trkpt lat="48.39867" lon="7.44055">
        <ele>253.32607</ele>
        <time>2026-09-02T14:05:56Z</time>
      </trkpt>
      <trkpt lat="48.39866" lon="7.44048">
        <ele>253.32607</ele>
        <time>2026-09-02T14:06:02Z</time>
      </trkpt>
      <trkpt lat="48.39865" lon="7.4404">
        <ele>253.32607</ele>
        <time>2026-09-02T14:06:07Z</time>
      </trkpt>
      <trkpt lat="48.39863" lon="7.44033">
        <ele>253.32607</ele>
        <time>2026-09-02T14:06:11Z</time>
      </trkpt>
      <trkpt lat="48.39861" lon="7.44025">
        <ele>253.32607</ele>
        <time>2026-09-02T14:06:16Z</time>
      </trkpt>
      <trkpt lat="48.3986" lon="7.44018">
        <ele>253.32607</ele>
        <time>2026-09-02T14:06:21Z</time>
      </trkpt>
      <trkpt lat="48.3986" lon="7.44009">
        <ele>253.32607</ele>
        <time>2026-09-02T14:06:25Z</time>
      </trkpt>
      <trkpt lat="48.39858" lon="7.44002">
        <ele>253.32607</ele>
        <time>2026-09-02T14:06:31Z</time>
      </trkpt>
      <trkpt lat="48.39856" lon="7.43996">
        <ele>253.32607</ele>
        <time>2026-09-02T14:06:35Z</time>
      </trkpt>
      <trkpt lat="48.39853" lon="7.43989">
        <ele>253.32607</ele>
        <time>2026-09-02T14:06:40Z</time>
      </trkpt>
      <trkpt lat="48.3985" lon="7.43983">
        <ele>251.27649</ele>
        <time>2026-09-02T14:06:45Z</time>
      </trkpt>
      <trkpt lat="48.39847" lon="7.43976">
        <ele>249.22691</ele>
        <time>2026-09-02T14:06:49Z</time>
      </trkpt>
      <trkpt lat="48.39845" lon="7.43969">
        <ele>247.17732</ele>
        <time>2026-09-02T14:06:53Z</time>
      </trkpt>
      <trkpt lat="48.39842" lon="7.43963">
        <ele>245.12775</ele>
        <time>2026-09-02T14:06:57Z</time>
      </trkpt>
      <trkpt lat="48.39838" lon="7.43957">
        <ele>243.07817</ele>
        <time>2026-09-02T14:07:02Z</time>
      </trkpt>
      <trkpt lat="48.39835" lon="7.4395">
        <ele>243.07817</ele>
        <time>2026-09-02T14:07:06Z</time>
      </trkpt>
      <trkpt lat="48.39833" lon="7.43945">
        <ele>243.07817</ele>
        <time>2026-09-02T14:07:10Z</time>
      </trkpt>
      <trkpt lat="48.39829" lon="7.43941">
        <ele>243.07817</ele>
        <time>2026-09-02T14:07:14Z</time>
      </trkpt>
      <trkpt lat="48.39824" lon="7.43938">
        <ele>243.07817</ele>
        <time>2026-09-02T14:07:18Z</time>
      </trkpt>
      <trkpt lat="48.39822" lon="7.43933">
        <ele>243.07817</ele>
        <time>2026-09-02T14:07:22Z</time>
      </trkpt>
      <trkpt lat="48.39817" lon="7.43924">
        <ele>243.07817</ele>
        <time>2026-09-02T14:07:26Z</time>
      </trkpt>
      <trkpt lat="48.39815" lon="7.43918">
        <ele>243.07817</ele>
        <time>2026-09-02T14:07:30Z</time>
      </trkpt>
      <trkpt lat="48.39812" lon="7.43913">
        <ele>243.07817</ele>
        <time>2026-09-02T14:07:34Z</time>
      </trkpt>
      <trkpt lat="48.39808" lon="7.43907">
        <ele>243.07817</ele>
        <time>2026-09-02T14:07:38Z</time>
      </trkpt>
      <trkpt lat="48.39804" lon="7.43902">
        <ele>243.07817</ele>
        <time>2026-09-02T14:07:43Z</time>
      </trkpt>
      <trkpt lat="48.39801" lon="7.43897">
        <ele>243.07817</ele>
        <time>2026-09-02T14:07:47Z</time>
      </trkpt>
      <trkpt lat="48.39798" lon="7.43891">
        <ele>243.07817</ele>
        <time>2026-09-02T14:07:51Z</time>
      </trkpt>
      <trkpt lat="48.39795" lon="7.43887">
        <ele>243.07817</ele>
        <time>2026-09-02T14:07:55Z</time>
      </trkpt>
      <trkpt lat="48.3979" lon="7.43887">
        <ele>243.07817</ele>
        <time>2026-09-02T14:08:00Z</time>
      </trkpt>
      <trkpt lat="48.39785" lon="7.43889">
        <ele>243.07817</ele>
        <time>2026-09-02T14:08:05Z</time>
      </trkpt>
      <trkpt lat="48.3978" lon="7.43892">
        <ele>243.07817</ele>
        <time>2026-09-02T14:08:10Z</time>
      </trkpt>
    </trkseg>
  </trk>
</gpx>